[[{"header":{"parameterUnit":"m.s-1","parameterCategory":1,"la1":30.6,"la2":28.766,"lo1":-90.7593,"lo2":-88.6598,"dy":0.0162,"dx":0.0183,"nx":116,"ny":114,"refTime":"2023-07-27T12:00:00:Z","depth":0,"parameterNumber":2,"parameterNumberName":"U-component_of_WINDS"},"data":[0.0,0.0,0.0,0.0,0.0,0.0,0.0,0.0,0.0,0.0,0.0,0.0,0.0,0.0,0.0,0.0,0.0,0.0,0.0,0.0,0.0,0.0,0.0,0.0,0.0,0.0,0.0,0.0,0.0,0.0,0.0,0.0,0.0,0.0,0.0,0.0,0.0,0.0,0.0,0.0,0.0,0.0,0.0,0.0,0.0,0.0,0.0,0.0,0.0,0.0,0.0,0.0,0.0,0.0,0.0,0.0,0.0,0.0,0.0,0.0,0.0,0.0,0.0,0.0,0.0,0.0,0.0,0.0,0.0,0.0,0.0,0.0,0.0,0.0,0.0,0.0,0.0,0.0,0.0,0.0,0.0,0.0,0.0,0.0,0.0,0.0,0.0,0.0,0.0,0.0,0.0,0.0,0.0,0.0,0.0,0.0,0.0,0.0,0.0,0.0,0.0,0.0,0.0,0.0,0.0,0.0,0.0,0.0,0.0,0.0,0.0,0.0,0.0,0.0,0.0,0.0,0.0,0.0,0.0,0.0,0.0,0.0,0.0,0.0,0.0,0.0,0.0,0.0,0.0,0.0,0.0,0.0,0.0,0.0,0.0,0.0,0.0,0.0,0.0,0.0,0.0,0.0,0.0,0.0,0.0,0.0,0.0,0.0,0.0,0.0,0.0,0.0,0.0,0.0,0.0,0.0,0.0,0.0,0.0,0.0,0.0,0.0,0.0,0.0,0.0,0.0,0.0,0.0,0.0,0.0,0.0,0.0,0.0,0.0,0.0,0.0,0.0,0.0,0.0,0.0,0.0,0.0,0.0,0.0,0.0,0.0,0.0,0.0,0.0,0.0,0.0,0.0,0.0,0.0,0.0,0.0,0.0,0.0,0.0,0.0,0.0,0.0,0.0,0.0,0.0,0.0,0.0,0.0,0.0,0.0,0.0,0.0,0.0,0.0,0.0,0.0,0.0,0.0,0.0,0.0,0.0,0.0,0.0,0.0,0.0,0.0,0.0,0.0,0.0,0.0,0.0,0.0,0.0,0.0,0.0,0.0,0.0,0.0,0.0,0.0,0.0,0.0,0.0,0.0,0.0,0.0,0.0,0.0,0.0,0.0,0.0,0.0,0.0,0.0,0.0,0.0,0.0,0.0,0.0,0.0,0.0,0.0,0.0,0.0,0.0,0.0,0.0,0.0,0.0,0.0,0.0,0.0,0.0,0.0,0.0,0.0,0.0,0.0,0.0,0.0,0.0,0.0,0.0,0.0,0.0,0.0,0.0,0.0,0.0,0.0,0.0,0.0,0.0,0.0,0.0,0.0,0.0,0.0,0.0,0.0,0.0,0.0,0.0,0.0,0.0,0.0,0.0,0.0,0.0,0.0,0.0,0.0,0.0,0.0,0.0,0.0,0.0,0.0,0.0,0.0,0.0,0.0,0.0,0.0,0.0,0.0,0.0,0.0,0.0,0.0,0.0,0.0,0.0,0.0,0.0,0.0,0.0,0.0,0.0,0.0,0.0,0.0,0.0,0.0,0.0,0.0,0.0,0.0,0.0,0.0,0.0,0.0,0.0,0.0,0.0,0.0,0.0,0.0,0.0,0.0,0.0,0.0,0.0,0.0,0.0,0.0,0.0,0.0,0.0,0.0,0.0,0.0,0.0,0.0,0.0,0.0,0.0,0.0,0.0,0.0,0.0,0.0,0.0,0.0,0.0,0.0,0.0,0.0,0.0,0.0,0.0,0.0,0.0,0.0,0.0,0.0,0.0,0.0,0.0,0.0,0.0,0.0,0.0,0.0,0.0,0.0,0.0,0.0,0.0,0.0,0.0,0.0,0.0,0.0,0.0,0.0,0.0,0.0,0.0,0.0,0.0,0.0,0.0,0.0,0.0,0.0,0.0,0.0,0.0,0.0,0.0,0.0,0.0,0.0,0.0,0.0,0.0,0.0,0.0,0.0,0.0,0.0,0.0,0.0,0.0,0.0,0.0,0.0,0.0,0.0,0.0,0.0,0.0,0.0,0.0,0.0,0.0,0.0,0.0,0.0,0.0,0.0,0.0,0.0,0.0,0.0,0.0,0.0,0.0,0.0,0.0,0.0,0.0,0.0,0.0,0.0,0.0,0.0,0.0,0.0,0.0,0.0,0.0,0.0,0.0,0.0,0.0,0.0,0.0,0.0,0.0,0.0,0.0,0.0,0.0,0.0,0.0,0.0,0.0,0.0,0.0,0.0,0.0,0.0,0.0,0.0,0.0,0.0,0.0,0.0,0.0,0.0,0.0,0.0,0.0,0.0,0.0,0.0,0.0,0.0,0.0,0.0,0.0,0.0,0.0,0.0,0.0,0.0,0.0,0.0,0.0,0.0,0.0,0.0,0.0,0.0,0.0,0.0,0.0,0.0,0.0,0.0,0.0,0.0,0.0,0.0,0.0,0.0,0.0,0.0,0.0,0.0,0.0,0.0,0.0,0.0,0.0,0.0,0.0,0.0,0.0,0.0,0.0,0.0,0.0,0.0,0.0,0.0,0.0,0.0,0.0,0.0,0.0,0.0,0.0,0.0,0.0,0.0,0.0,0.0,0.0,0.0,0.0,0.0,0.0,0.0,0.0,0.0,0.0,0.0,0.0,0.0,0.0,0.0,0.0,0.0,0.0,0.0,0.0,0.0,0.0,0.0,0.0,0.0,0.0,0.0,0.0,0.0,0.0,0.0,0.0,0.0,0.0,0.0,0.0,0.0,0.0,0.0,0.0,0.0,0.0,0.0,0.0,0.0,0.0,0.0,0.0,0.0,0.0,0.0,0.0,0.0,0.0,0.0,0.0,0.0,0.0,0.0,0.0,0.0,0.0,0.0,0.0,0.0,0.0,0.0,0.0,0.0,0.0,0.0,0.0,0.0,0.0,0.0,0.0,0.0,0.0,0.0,0.0,0.0,0.0,0.0,0.0,0.0,0.0,0.0,0.0,0.0,0.0,0.0,0.0,0.0,0.0,0.0,0.0,0.0,0.0,0.0,0.0,0.0,0.0,0.0,0.0,0.0,0.0,0.0,0.0,0.0,0.0,0.0,0.0,0.0,0.0,0.0,0.0,0.0,0.0,0.0,0.0,0.0,0.0,0.0,0.0,0.0,0.0,0.0,0.0,0.0,0.0,0.0,0.0,0.0,0.0,0.0,0.0,0.0,0.0,0.0,0.0,0.0,0.0,0.0,0.0,0.0,0.0,0.0,0.0,0.0,0.0,0.0,0.0,0.0,0.0,0.0,0.0,0.0,0.0,0.0,0.0,0.0,0.0,0.0,0.0,0.0,0.0,0.0,0.0,0.0,0.0,0.0,0.0,0.0,0.0,0.0,0.0,0.0,0.0,0.0,0.0,0.0,0.0,0.0,0.0,0.0,0.0,0.0,0.0,0.0,0.0,0.0,0.0,0.0,0.0,0.0,0.0,0.0,0.0,0.0,0.0,0.0,0.0,0.0,0.0,0.0,0.0,0.0,0.0,0.0,0.0,0.0,0.0,0.0,0.0,0.0,0.0,0.0,0.0,0.0,0.0,0.0,0.0,0.0,0.0,0.0,0.0,0.0,0.0,0.0,0.0,0.0,0.0,0.0,0.0,0.0,0.0,0.0,0.0,0.0,0.0,0.0,0.0,0.0,0.0,0.0,0.0,0.0,0.0,0.0,0.0,0.0,0.0,0.0,0.0,0.0,0.0,0.0,0.0,0.0,0.0,0.0,0.0,0.0,0.0,0.0,0.0,0.0,0.0,0.0,0.0,0.0,0.0,0.0,0.0,0.0,0.0,0.0,0.0,0.0,0.0,0.0,0.0,0.0,0.0,0.0,0.0,0.0,0.0,0.0,0.0,0.0,0.0,0.0,0.0,0.0,0.0,0.0,0.0,0.0,0.0,0.0,0.0,0.0,0.0,0.0,0.0,0.0,0.0,0.0,0.0,0.0,0.0,0.0,0.0,0.0,0.0,0.0,0.0,0.0,0.0,0.0,0.0,0.0,0.0,0.0,0.0,0.0,0.0,0.0,0.0,0.0,0.0,0.0,0.0,0.0,0.0,0.0,0.0,0.0,0.0,0.0,0.0,0.0,0.0,0.0,0.0,0.0,0.0,0.0,0.0,0.0,0.0,0.0,0.0,0.0,0.0,0.0,0.0,0.0,0.0,0.0,0.0,0.0,0.0,0.0,0.0,0.0,0.0,0.0,0.0,0.0,0.0,0.0,0.0,0.0,0.0,0.0,0.0,0.0,0.0,0.0,0.0,0.0,0.0,0.0,0.0,0.0,0.0,0.0,0.0,0.0,0.0,0.0,0.0,0.0,0.0,0.0,0.0,0.0,0.0,0.0,0.0,0.0,0.0,0.0,0.0,0.0,0.0,0.0,0.0,0.0,0.0,0.0,0.0,0.0,0.0,0.0,0.0,0.0,0.0,0.0,0.0,0.0,0.0,0.0,0.0,0.0,0.0,0.0,0.0,0.0,0.0,0.0,0.0,0.0,0.0,0.0,0.0,0.0,0.0,0.0,0.0,0.0,0.0,0.0,0.0,0.0,0.0,0.0,0.0,0.0,0.0,0.0,0.0,0.0,0.0,0.0,0.0,0.0,0.0,0.0,0.0,0.0,0.0,0.0,0.0,0.0,0.0,0.0,0.0,0.0,0.0,0.0,0.0,0.0,0.0,0.0,0.0,0.0,0.0,0.0,0.0,0.0,0.0,0.0,0.0,0.0,0.0,0.0,0.0,0.0,0.0,0.0,0.0,0.0,0.0,0.0,0.0,0.0,0.0,0.0,0.0,0.0,0.0,0.0,0.0,0.0,0.0,0.0,0.0,0.0,0.0,0.0,0.0,0.0,0.0,0.0,0.0,0.0,0.0,0.0,0.0,0.0,0.0,0.0,0.0,0.0,0.0,0.0,0.0,0.0,0.0,0.0,0.0,0.0,0.0,0.0,0.0,0.0,0.0,0.0,0.0,0.0,0.0,0.0,0.0,0.0,0.0,0.0,0.0,0.0,0.0,0.0,0.0,0.0,0.0,0.0,0.0,0.0,0.0,0.0,0.0,0.0,0.0,0.0,0.0,0.0,0.0,0.0,0.0,0.0,0.0,0.0,0.0,0.0,0.0,0.0,0.0,0.0,0.0,0.0,0.0,0.0,0.0,0.0,0.0,0.0,0.0,0.0,0.0,0.0,0.0,0.0,0.0,0.0,0.0,0.0,0.0,0.0,0.0,0.0,0.0,0.0,0.0,0.0,0.0,0.0,0.0,0.0,0.0,0.0,0.0,0.0,0.0,0.0,0.0,0.0,0.0,0.0,0.0,0.0,0.0,0.0,0.0,0.0,0.0,0.0,0.0,0.0,0.0,0.0,0.0,0.0,0.0,0.0,0.0,0.0,0.0,0.0,0.0,0.0,0.0,0.0,0.0,0.0,0.0,0.0,0.0,0.0,0.0,0.0,0.0,0.0,0.0,0.0,0.0,0.0,0.0,0.0,0.0,0.0,0.0,0.0,0.0,0.0,0.0,0.0,0.0,0.0,0.0,0.0,0.0,0.0,0.0,0.0,0.0,0.0,0.0,0.0,0.0,0.0,0.0,0.0,0.0,0.0,0.0,0.0,0.0,0.0,0.0,0.0,0.0,0.0,0.0,0.0,0.0,0.0,0.0,0.0,0.0,0.0,0.0,0.0,0.0,0.0,0.0,0.0,0.0,0.0,0.0,0.0,0.0,0.0,0.0,0.0,0.0,0.0,0.0,0.0,0.0,0.0,0.0,0.0,0.0,0.0,0.0,0.0,0.0,0.0,0.0,0.0,0.0,0.0,0.0,0.0,0.0,0.0,0.0,0.0,0.0,0.0,0.0,0.0,0.0,0.0,0.0,0.0,0.0,0.0,0.0,0.0,0.0,0.0,0.0,0.0,0.0,0.0,0.0,0.0,0.0,0.0,0.0,0.0,0.0,0.0,0.0,0.0,0.0,0.0,0.0,0.0,0.0,0.0,0.0,0.0,0.0,0.0,0.0,0.0,0.0,0.0,0.0,0.0,0.0,0.0,0.0,0.0,0.0,0.0,0.0,0.0,0.0,0.0,0.0,0.0,0.0,0.0,0.0,0.0,0.0,0.0,-4.8829,-4.8744,0.0,0.0,0.0,0.0,0.0,0.0,0.0,0.0,0.0,0.0,0.0,0.0,0.0,0.0,0.0,0.0,0.0,0.0,0.0,0.0,0.0,0.0,0.0,0.0,0.0,0.0,0.0,0.0,0.0,0.0,0.0,0.0,0.0,0.0,0.0,0.0,0.0,0.0,0.0,0.0,0.0,0.0,0.0,0.0,0.0,0.0,0.0,0.0,0.0,0.0,0.0,0.0,0.0,0.0,0.0,0.0,0.0,0.0,0.0,0.0,0.0,0.0,0.0,0.0,0.0,0.0,0.0,0.0,0.0,0.0,0.0,0.0,0.0,0.0,0.0,0.0,0.0,0.0,0.0,0.0,0.0,0.0,0.0,0.0,0.0,0.0,0.0,0.0,0.0,0.0,0.0,0.0,0.0,0.0,0.0,0.0,0.0,0.0,0.0,0.0,0.0,0.0,0.0,0.0,0.0,0.0,0.0,0.0,0.0,0.0,0.0,0.0,0.0,0.0,-4.8728,-4.8657,0.0,0.0,0.0,0.0,0.0,0.0,0.0,0.0,0.0,0.0,0.0,0.0,0.0,0.0,0.0,0.0,0.0,0.0,0.0,0.0,0.0,0.0,0.0,0.0,0.0,0.0,0.0,0.0,0.0,0.0,0.0,0.0,0.0,0.0,0.0,0.0,0.0,0.0,0.0,0.0,0.0,0.0,0.0,0.0,0.0,0.0,0.0,0.0,0.0,0.0,0.0,0.0,0.0,0.0,0.0,0.0,0.0,0.0,0.0,0.0,0.0,0.0,0.0,0.0,0.0,0.0,0.0,0.0,0.0,0.0,0.0,0.0,0.0,0.0,0.0,0.0,0.0,0.0,0.0,0.0,0.0,0.0,0.0,0.0,0.0,0.0,0.0,0.0,0.0,0.0,0.0,0.0,0.0,0.0,0.0,0.0,0.0,0.0,0.0,0.0,0.0,0.0,0.0,0.0,0.0,0.0,0.0,0.0,-4.8963,-4.8813,-4.8813,-4.8813,-4.8586,-4.8306,-4.8657,-4.8604,-4.8306,-4.8172,0.0,0.0,0.0,0.0,0.0,0.0,0.0,0.0,0.0,0.0,0.0,0.0,0.0,0.0,0.0,0.0,0.0,0.0,0.0,0.0,0.0,0.0,0.0,0.0,0.0,0.0,0.0,0.0,0.0,0.0,0.0,0.0,0.0,0.0,0.0,0.0,0.0,0.0,-3.5918,-3.5547,-3.5215,-3.4912,-3.4394,0.0,0.0,0.0,0.0,0.0,0.0,0.0,0.0,0.0,0.0,0.0,0.0,0.0,0.0,0.0,0.0,0.0,0.0,0.0,0.0,0.0,0.0,0.0,0.0,0.0,0.0,0.0,0.0,0.0,0.0,0.0,0.0,0.0,0.0,0.0,0.0,0.0,0.0,0.0,0.0,0.0,0.0,0.0,-4.5632,-4.5618,0.0,0.0,0.0,0.0,0.0,0.0,0.0,0.0,0.0,0.0,0.0,0.0,0.0,-4.6559,-4.7151,-4.7334,-4.7776,-4.8458,-4.8383,-4.8402,-4.8402,-4.8402,-4.8326,-4.8306,-4.8364,0.0,-4.8267,-4.7756,0.0,0.0,0.0,0.0,0.0,0.0,0.0,0.0,0.0,0.0,0.0,0.0,0.0,0.0,0.0,0.0,0.0,0.0,0.0,0.0,0.0,0.0,0.0,0.0,0.0,0.0,0.0,0.0,0.0,0.0,0.0,0.0,0.0,0.0,0.0,0.0,-3.3933,-3.4979,-3.5881,-3.5465,-3.4918,-3.4298,-3.3406,-3.2188,-3.0718,-2.954,0.0,0.0,0.0,0.0,0.0,0.0,0.0,0.0,0.0,0.0,0.0,0.0,0.0,0.0,0.0,0.0,0.0,0.0,0.0,0.0,0.0,0.0,0.0,0.0,0.0,0.0,0.0,0.0,0.0,0.0,0.0,0.0,0.0,0.0,0.0,0.0,0.0,0.0,0.0,-4.5586,-4.5586,-4.5586,-4.5586,-4.5586,0.0,0.0,0.0,0.0,0.0,0.0,0.0,0.0,0.0,-4.4243,-4.5072,-4.5579,-4.5755,-4.6673,-4.7297,-4.7645,-4.8086,-4.8306,-4.8306,-4.8306,-4.8306,-4.8306,-4.8306,-4.8132,-4.7756,-4.753,-4.715,-4.6618,0.0,0.0,0.0,0.0,-4.4587,-4.4457,0.0,0.0,0.0,0.0,0.0,0.0,0.0,0.0,0.0,0.0,0.0,0.0,0.0,0.0,0.0,2.0703,0.0,0.0,0.0,0.0,0.0,0.0,0.0,0.0,0.0,0.0,0.0,0.0,-3.4439,-3.5002,-3.5843,-3.5451,-3.485,-3.4027,-3.2783,-3.1719,-3.072,-2.9248,-2.8049,0.0,0.0,0.0,0.0,0.0,0.0,0.0,0.0,0.0,0.0,0.0,0.0,0.0,0.0,0.0,0.0,0.0,0.0,0.0,0.0,0.0,0.0,0.0,0.0,0.0,0.0,0.0,0.0,0.0,0.0,0.0,0.0,0.0,0.0,0.0,0.0,0.0,0.0,-4.5532,-4.5495,-4.5586,-4.5513,-4.5513,0.0,0.0,0.0,0.0,0.0,0.0,-4.4474,-4.4447,-4.4154,-4.3513,-4.4332,-4.4739,-4.4709,-4.5902,-4.6709,-4.7131,-4.7719,-4.8104,-4.8306,-4.8306,-4.8306,-4.8306,-4.8132,-4.7715,-4.715,-4.715,-4.6589,-4.5681,-4.5407,-4.5089,-4.4814,-4.4682,-4.4587,-4.4514,0.0,0.0,0.0,0.0,0.0,0.0,0.0,0.0,0.0,0.0,0.0,0.0,0.0,0.0,2.0067,1.8771,1.5401,1.3597,0.0,0.0,0.0,0.0,0.0,0.0,0.0,0.0,0.0,-3.3725,-3.3866,-3.4551,-3.5701,-3.5369,-3.4774,-3.3981,-3.3195,-3.1423,-2.8959,-2.7731,-2.6422,-2.5236,0.0,0.0,0.0,0.0,0.0,0.0,0.0,0.0,0.0,0.0,0.0,0.0,0.0,0.0,0.0,0.0,0.0,0.0,0.0,0.0,0.0,0.0,0.0,0.0,0.0,0.0,0.0,0.0,0.0,0.0,0.0,0.0,0.0,0.0,0.0,0.0,0.0,0.0,0.0,-4.5568,-4.5322,0.0,0.0,0.0,0.0,-4.5159,-4.5096,-4.4781,-4.4058,-4.4028,-4.3881,-4.3513,-4.3569,-4.3954,-4.4709,-4.4782,-4.5608,-4.7113,-4.715,-4.7572,-4.8306,-4.8306,-4.8306,-4.8267,-4.7697,-4.7062,-4.6478,-4.6478,-4.643,-4.624,-4.5089,-4.4998,-4.5372,-4.4814,-4.4587,-4.457,0.0,0.0,0.0,0.0,0.0,0.0,0.0,0.0,0.0,0.0,0.0,0.0,0.0,1.7379,1.5741,1.4268,1.1475,0.9894,1.0036,0.0,0.0,0.0,0.0,0.0,0.0,0.0,-3.2109,-3.3118,-3.3437,-3.4043,-3.4922,-3.4575,-3.4435,-3.4396,-3.3358,-3.2054,-3.0509,-2.8638,-2.7086,-2.5801,-2.5428,-2.4685,0.0,0.0,0.0,0.0,0.0,0.0,0.0,0.0,0.0,0.0,0.0,0.0,0.0,0.0,0.0,0.0,0.0,0.0,0.0,0.0,0.0,0.0,0.0,0.0,0.0,0.0,0.0,0.0,0.0,0.0,0.0,0.0,0.0,0.0,0.0,0.0,0.0,-4.3656,-4.3558,0.0,-4.4684,-4.4173,-4.4175,-4.5017,-4.4455,-4.4046,-4.3998,-4.3804,-4.3612,-4.3479,-4.3497,-4.3626,-4.392,-4.4452,-4.5002,-4.559,-4.6617,-4.726,-4.7572,-4.8067,-4.8306,-4.8306,-4.8075,-4.7367,-4.6383,-4.6383,-4.5915,-4.5178,-4.4776,-4.472,-4.4906,-4.4665,-4.4587,-4.4514,0.0,0.0,0.0,0.0,0.0,0.0,0.0,0.0,0.0,0.0,0.0,1.8885,1.7337,1.5268,1.3405,1.1822,0.9662,0.791,0.6992,0.0,0.0,0.0,0.0,0.0,0.0,-3.046,-3.1451,-3.2404,-3.2753,-3.332,-3.4062,-3.3829,-3.3915,-3.4213,-3.3115,-3.2139,-3.1162,-2.9432,-2.7745,-2.6171,-2.5375,-2.4343,-2.3275,0.0,0.0,0.0,0.0,0.0,0.0,0.0,0.0,0.0,0.0,0.0,0.0,0.0,0.0,0.0,0.0,0.0,0.0,0.0,0.0,0.0,0.0,0.0,0.0,0.0,0.0,0.0,0.0,0.0,0.0,0.0,0.0,0.0,0.0,-4.2498,-4.2476,-4.26,-4.2581,-4.287,-4.3655,-4.3122,-4.3108,-4.4003,-4.3586,-4.3319,-4.3428,-4.3465,-4.3497,-4.3497,-4.3497,-4.3497,-4.3497,-4.403,-4.4433,-4.4727,-4.5792,-4.6434,-4.6728,-4.7535,-4.7769,-4.7594,-4.7629,-4.707,-4.6112,-4.5865,-4.532,-4.4587,-4.4587,-4.4587,-4.4587,-4.4587,-4.4384,-4.4064,0.0,0.0,0.0,0.0,0.0,0.0,0.0,0.0,0.0,0.0,1.8722,1.6949,1.5408,1.4526,1.3374,1.1736,1.0086,0.8012,0.531,0.0328,0.0,0.0,0.0,0.0,-2.7351,-2.8595,-2.9978,-3.1562,-3.1836,-3.2363,-3.3164,-3.3161,-3.3215,-3.3322,-3.2474,-3.1582,-3.0611,-2.9732,-2.816,-2.6199,-2.5382,-2.4099,-2.2567,0.0,0.0,0.0,0.0,0.0,0.0,0.0,0.0,0.0,0.0,0.0,0.0,0.0,0.0,0.0,0.0,0.0,0.0,0.0,0.0,0.0,0.0,0.0,0.0,0.0,0.0,0.0,0.0,0.0,0.0,0.0,0.0,0.0,-4.2174,-4.2204,-4.2111,-4.2463,-4.2425,-4.2444,-4.2543,-4.2543,-4.2417,-4.2114,-4.251,-4.2588,-4.2283,-4.302,-4.3442,-4.3442,-4.3479,-4.3497,-4.3497,-4.3497,-4.3883,-4.4672,-4.469,-4.5112,-4.5883,-4.6709,-4.6734,-4.6224,-4.6354,-4.6028,-4.5459,-4.4852,-4.4626,-4.4587,-4.4587,-4.4587,-4.4587,-4.4587,-4.4006,-4.3108,0.0,0.0,0.0,0.0,0.0,0.0,0.0,0.0,0.0,0.0,1.8228,1.6781,1.4634,1.3194,1.1446,0.9199,0.8035,0.6221,0.354,0.0,0.0,0.0,0.0,0.0,-2.7606,-2.8445,-2.9505,-3.0879,-3.0996,-3.1465,-3.2246,-3.2111,-3.2218,-3.2513,-3.2028,-3.1306,-3.0392,-2.9127,-2.7707,-2.6185,-2.4909,-2.3065,-2.1197,0.0,0.0,0.0,0.0,0.0,0.0,0.0,0.0,0.0,0.0,0.0,0.0,0.0,0.0,0.0,0.0,0.0,0.0,0.0,0.0,0.0,0.0,0.0,0.0,0.0,0.0,0.0,0.0,0.0,0.0,0.0,-3.8223,-3.8664,-3.9888,-3.9989,-3.9956,-4.0065,-4.0259,-4.0732,-4.1588,-4.1217,-4.1337,-4.2335,-4.1894,-4.1625,-4.176,-4.2322,-4.2635,-4.2635,-4.3185,-4.3497,-4.3497,-4.3497,-4.3608,-4.3828,-4.4415,-4.4837,-4.5057,-4.5865,-4.6205,-4.6188,-4.6216,-4.5981,-4.5511,-4.532,-4.4998,-4.4587,-4.4587,-4.4587,-4.4587,-4.4587,-4.3663,-4.2316,0.0,0.0,0.0,0.0,0.0,0.0,0.0,0.0,0.0,0.0,1.7734,1.6218,1.3903,1.2509,1.0739,0.8223,0.7145,0.5526,0.286,0.0,0.0,0.0,0.0,-2.3071,-2.7352,-2.8277,-2.9323,-3.0599,-3.0675,-3.0918,-3.1348,-3.115,-3.1167,-3.1379,-3.0909,-3.0039,-2.8907,-2.8186,-2.657,-2.4477,-2.3482,-2.2115,-2.0587,-2.0497,-1.9114,-1.7133,-1.6679,-1.52,-1.3266,-1.252,0.0,0.0,0.0,0.0,0.0,0.0,0.0,0.0,0.0,0.0,0.0,0.0,0.0,0.0,0.0,0.0,0.0,0.0,0.0,0.0,0.0,0.0,0.0,0.0,-3.7893,-3.8129,-3.8847,-3.9036,-3.9099,-3.9099,-3.9529,-3.9946,-4.0333,-4.0152,-4.029,-4.1028,-4.0773,-4.0675,-4.0885,-4.148,-4.1956,-4.2286,-4.2745,-4.3149,-4.3497,-4.3497,-4.3497,-4.3497,-4.3975,-4.4089,-4.3907,-4.4691,-4.4827,-4.4494,-4.4858,-4.4839,-4.4592,-4.4592,-4.4599,-4.4587,0.0,0.0,0.0,0.0,-4.2892,-4.1869,0.0,0.0,0.0,0.0,0.0,0.0,0.0,0.0,0.0,0.0,0.0,1.5716,1.3476,1.2474,1.0927,0.8495,0.738,0.5545,0.0,0.0,0.0,-1.3857,-1.7728,-2.1964,-2.6657,-2.8034,-2.9317,-3.0602,-3.0654,-3.0664,-3.0586,-3.0358,-3.0216,-3.0143,-2.9533,-2.837,-2.686,-2.693,-2.5092,-2.2067,-2.1619,-2.0974,-2.0197,-1.925,-1.7988,-1.6276,-1.358,-1.2638,-1.2479,-1.071,0.0,0.0,0.0,0.0,0.0,0.0,0.0,0.0,0.0,0.0,0.0,0.0,0.0,0.0,0.0,0.0,0.0,0.0,0.0,0.0,0.0,0.0,0.0,0.0,-3.7825,-3.8032,-3.8627,-3.8894,-3.9072,-3.9099,-3.9645,-3.9797,-3.9212,-3.9432,-3.9481,-3.916,-3.952,-3.9785,-3.9798,-4.0556,0.0,0.0,0.0,-4.2543,-4.3351,-4.3351,-4.3406,-4.3497,-4.3497,-4.325,-4.2806,-4.3472,-4.3184,-4.2215,-4.2874,-4.3219,-4.3301,-4.3301,-4.3758,-4.4451,-4.4536,-4.4514,-4.4253,-4.2707,-4.1997,-4.1609,0.0,0.0,0.0,0.0,0.0,0.0,0.0,0.0,0.0,1.9424,1.8057,1.6623,1.4769,1.349,1.2012,1.0205,0.8592,0.5971,0.0,0.0,-0.6573,-1.1517,-1.6311,-2.09,-2.5279,-2.7512,-2.9267,-3.0602,-3.0611,-3.0605,-3.0586,-3.0164,-2.9747,-2.9305,-2.9147,-2.7923,-2.6005,-2.5693,-2.4232,-2.1983,-2.0607,-1.934,-1.8332,-1.7416,-1.5469,-1.3121,-1.2517,-1.0905,-0.8986,-0.8554,-0.7875,-0.7149,-0.7156,-0.7163,0.0,0.0,0.0,0.0,0.0,0.0,0.0,0.0,0.0,0.0,0.0,0.0,0.0,0.0,0.0,0.0,0.0,0.0,0.0,-3.7079,-3.7323,-3.7667,-3.8578,-3.8732,-3.8855,-3.9072,-3.9438,-3.9645,-3.9529,-3.9576,-3.9576,-3.9529,-3.9156,-3.9043,-3.925,-3.981,-4.0194,-4.0359,-4.1001,-4.1735,-4.2525,-4.2525,-4.2855,-4.3497,-4.3497,0.0,-4.3339,-4.3065,-4.2857,-4.274,-4.2445,-4.2396,-4.2506,-4.2506,-4.2946,-4.3707,-4.4333,-4.4196,-4.3502,-4.3169,-4.2125,-4.0878,0.0,0.0,0.0,0.0,0.0,0.0,0.0,0.0,0.0,0.0,1.876,1.7302,1.5308,1.3822,1.212,1.0034,0.7459,0.0,0.0,-0.1144,-0.4737,-0.9585,-1.4385,-1.9211,-2.4098,-2.6822,-2.891,-3.0398,-3.0533,-3.0586,-3.0547,-3.0106,-2.939,-2.8419,-2.7831,-2.6286,-2.4127,-2.3511,-2.193,-1.9719,-1.8814,-1.7013,-1.5119,-1.5625,-1.4281,-1.2077,-1.1109,-0.9545,-0.7859,-0.7403,-0.7001,-0.6515,-0.5558,-0.5277,-0.5549,0.0,0.0,0.0,0.0,0.0,0.0,0.0,0.0,0.0,0.0,0.0,0.0,0.0,0.0,-3.0995,-3.209,0.0,-3.5182,-3.6925,-3.719,-3.756,-3.8546,-3.8707,-3.8803,-3.9072,-3.9389,-3.9599,-3.9599,-3.9599,-3.9529,-3.9364,-3.8942,-3.8762,-3.8894,-3.916,-3.9478,-3.9882,-4.0286,-4.0891,-4.1699,-4.2103,-4.2368,-4.245,-4.2887,-4.2772,-4.219,-4.1919,-4.1701,-4.1492,-4.1226,-4.1341,-4.1779,-4.1741,-4.1983,-4.2295,-4.2286,-4.2706,-4.3169,-4.2332,-4.1478,-4.0622,0.0,0.0,0.0,0.0,0.0,0.0,0.0,0.0,0.0,0.0,1.9402,1.7791,1.6006,1.4258,1.2235,0.0,0.0,0.0,0.0,0.0469,-0.253,-0.7127,-1.1791,-1.6773,-2.2102,-2.5342,-2.7924,-2.9867,-3.0233,-3.0442,-3.0449,-3.0086,-2.909,-2.7573,-2.6407,-2.4482,-2.2033,-2.0901,-1.9056,-1.6926,-1.6457,-1.4585,-1.2305,-1.3414,-1.2797,-1.1113,-0.9566,-0.8358,-0.7386,-0.674,-0.6507,-0.6284,-0.4612,-0.3886,-0.3939,-0.5894,-0.6707,0.0,0.0,0.0,0.0,0.0,0.0,0.0,0.0,-2.2689,-2.423,-2.6921,-2.8702,-3.0248,-3.1769,-3.3335,-3.4998,-3.6907,-3.719,-3.756,-3.8546,-3.8707,-3.8803,-3.9072,-3.9389,-3.9599,-3.9599,-3.9599,-3.9432,-3.9036,-3.8815,-3.8707,-3.8707,-3.8707,-3.9001,-3.9643,-3.9662,-4.0047,-4.0873,-4.1515,-4.1661,-4.1343,-4.21,-4.1912,-4.0979,-4.0926,-4.0655,-4.0237,-4.0171,-4.0358,-4.0757,-4.0901,-4.0901,-4.0689,-4.0003,-4.082,-4.2255,-4.0962,-4.0421,-4.0194,0.0,0.0,0.0,0.0,0.0,0.0,0.0,0.0,0.0,0.0,0.0,0.0,0.0,0.0,0.0,0.0,0.0,0.0,0.502,0.3228,0.0605,-0.3023,-0.8302,-1.328,-1.7978,-2.1998,-2.5597,-2.8699,-2.9443,-2.9972,-3.0312,-3.0028,-2.8885,-2.7024,-2.5717,-2.3466,-2.0555,-1.8304,-1.6407,-1.4915,-1.3569,-1.2579,-1.1761,-1.0427,-0.9291,-0.8231,-0.8021,-0.7305,-0.6419,-0.6342,-0.6295,-0.627,-0.6093,-0.492,-0.3688,-0.3941,-0.545,-0.7408,-0.8544,-1.0438,-1.2656,-1.5108,-1.6601,-1.8257,0.0,-2.2689,-2.4108,-2.6208,-2.7973,-2.9515,-3.0904,-3.2554,-3.4493,-3.6812,-3.719,-3.756,-3.8546,-3.8707,-3.8803,-3.9072,-3.9389,-3.9599,-3.9599,-3.9599,-3.9352,-3.8792,-3.8719,-3.8707,-3.8707,-3.8707,-3.8744,-3.8836,-3.8836,-3.9221,-4.0029,-4.012,-4.0492,-4.1141,-4.1397,-4.1481,-4.1328,-4.1025,-4.0856,-4.078,-4.0336,-3.9764,-3.9197,-3.9902,-3.9789,-3.914,-3.8905,-3.8996,-3.9263,-3.9691,-3.9336,-3.8712,0.0,0.0,0.0,0.0,0.0,0.0,0.0,0.0,0.0,0.0,0.0,0.0,0.0,0.0,0.0,0.0,0.0,0.0,0.7584,0.6841,0.5055,0.2074,-0.1919,-0.62,-1.0652,-1.4334,-1.8361,-2.279,-2.4121,-2.5963,-2.8242,-2.7748,-2.6937,-2.5841,-2.4424,-2.2363,-1.967,-1.4883,-1.176,-0.985,-0.8238,-0.6893,-0.58,-0.445,-0.3262,-0.2918,-0.7123,-0.6581,0.0,0.0,-0.2666,-0.2438,-0.1178,-0.1858,-0.3036,-0.3099,-0.5018,-0.7507,-0.941,-1.0611,-1.206,-1.4935,-1.6519,-1.7946,-2.0477,-2.2339,-2.3879,-2.5358,-2.7432,-2.931,-3.0205,-3.2175,-3.4235,-3.6232,-3.6911,-3.756,-3.8546,-3.8707,-3.8637,-3.8439,-3.852,-3.8882,-3.9538,-3.9599,-3.9408,-3.8961,-3.8773,-3.8707,-3.8707,-3.8707,-3.8707,-3.8707,-3.8707,-3.8854,-3.9203,-3.9363,-3.9458,-3.9481,-3.97,-3.9891,-4.0018,-3.9881,-4.0055,-4.04,-3.968,-3.9193,-3.887,-3.8309,-3.7852,-3.7479,-3.7026,-3.6843,-3.6964,-3.7998,-3.7764,-3.7022,0.0,0.0,0.0,0.0,0.0,0.0,0.0,0.0,0.0,0.0,0.0,0.0,0.0,0.0,0.0,0.0,0.0,0.0,0.0,1.0129,0.9052,0.6583,0.4162,0.0708,-0.3756,-0.6574,-1.0345,-1.5022,-1.6277,-1.8358,-2.1077,-1.9889,-1.9084,-1.8624,-1.7093,-1.5527,-1.3596,-0.8653,-0.5735,-0.4273,-0.246,-0.0853,0.0704,0.2586,0.3828,0.3565,-0.374,-0.4219,0.0,0.0,0.1096,0.2036,0.3532,0.2036,-0.0476,-0.1703,-0.4489,-0.7499,-0.9511,-1.0307,-1.1375,-1.442,-1.6265,-1.7883,-1.9887,-2.1824,-2.3441,-2.4719,-2.6912,-2.8892,-2.9843,-3.1971,-3.4105,-3.5677,-3.6449,-3.7148,-3.8022,-3.8065,-3.7908,-3.7506,-3.7578,-3.7954,-3.8621,-3.8963,-3.9045,-3.8809,-3.8715,-3.8707,-3.8707,-3.8707,-3.8707,-3.8707,-3.8707,-3.8627,-3.8465,-3.866,-3.8492,-3.8001,-3.8273,-3.8446,-3.8601,-3.8653,-3.8942,-3.9429,-3.8842,-3.8453,-3.8157,-3.7068,-3.6508,-3.6212,-3.5429,-3.5067,-3.517,-3.5869,-3.5948,-3.574,0.0,0.0,0.0,0.0,0.0,0.0,0.0,0.0,0.0,0.0,0.0,0.0,0.0,0.0,0.0,0.0,0.0,0.0,0.0,1.2706,1.1873,1.0093,0.8974,0.6224,0.1645,0.0,-0.2469,-0.5778,-0.5992,-0.6322,-0.675,-0.4212,-0.2837,-0.245,-0.0894,-0.0,0.0336,0.1613,0.174,0.1195,0.3129,0.4706,0.6504,1.0269,1.1822,1.0983,0.3807,0.0,0.0,0.0,0.3889,0.6103,0.6183,0.6103,0.5162,0.0786,-0.3597,-0.7369,-0.8495,-0.9681,-1.1203,-1.3477,-1.5659,-1.7883,-1.9887,-2.1227,-2.2627,-2.4564,-2.6388,-2.8069,-2.9693,-3.1971,-3.3989,-3.5234,-3.5717,-3.6114,-3.669,-3.6528,-3.6358,-3.6368,-3.6814,-3.6939,-3.6454,-3.733,-3.7944,-3.7955,-3.842,-3.8707,-3.8707,-3.8707,-3.8707,-3.8707,-3.8707,-3.8465,-3.7946,-3.7929,-3.7685,-3.7226,-3.7446,-3.7534,-3.756,-3.7736,-3.787,-3.7867,-3.7842,-3.7397,-3.6676,-3.66,-3.6165,-3.5424,-3.4461,-3.4027,-3.3959,-3.3073,-3.3748,-3.5008,0.0,0.0,0.0,0.0,0.0,0.0,0.0,0.0,0.0,0.0,0.0,0.0,0.0,0.0,0.0,0.0,0.0,0.0,0.0,1.6192,1.5699,1.5167,1.4242,1.2537,0.9827,0.8705,0.6231,0.2213,0.2018,0.066,-0.1652,0.0542,0.1468,0.1494,0.5253,0.641,0.5908,1.1005,1.2781,1.2112,1.1885,1.1826,1.2039,1.3962,1.4426,1.3628,0.0,0.0,0.0,0.0,0.7871,0.828,0.828,0.7382,0.5628,0.2108,-0.1751,-0.4991,-0.6157,-0.7745,-0.9854,-1.3054,-1.4335,-1.5529,-1.7797,-1.9672,-2.1349,-2.2668,-2.4943,-2.7235,-2.9032,-3.081,-3.2434,-3.3713,-3.4628,-3.5367,-3.5894,-3.6158,-3.6168,-3.5803,-3.5919,-3.5839,-3.5292,-3.6531,-3.7218,-3.6879,-3.7004,-3.7331,-3.7863,-3.79,-3.8138,-3.8689,-3.8332,-3.8099,-3.7893,-3.723,-3.6825,-3.6661,-3.693,-3.7058,-3.703,-3.7086,-3.7164,-3.7094,-3.654,-3.6172,-3.5904,-3.5194,-3.4751,-3.4394,-3.3463,-3.3101,-3.2961,-3.2033,-3.2009,-3.2504,0.0,0.0,0.0,0.0,0.0,0.0,0.0,0.0,0.0,0.0,0.0,0.0,0.0,0.0,0.0,0.0,0.0,1.9542,0.0,0.0,1.892,1.8736,1.8426,1.7323,1.5204,1.5342,1.383,1.0599,1.1066,1.0269,0.8288,1.0752,1.1602,1.1239,1.4623,1.5295,1.414,1.81,1.9361,1.8567,1.7247,1.6797,1.6862,1.6843,1.6798,0.0,0.0,0.0,0.0,0.0,0.9921,0.9271,0.9271,0.7957,0.5786,0.3041,-0.0,-0.2937,-0.5046,-0.6685,-0.8405,-1.1137,-1.2717,-1.3982,-1.5503,-1.7509,-1.9345,-2.066,-2.2999,-2.5373,-2.7494,-2.9376,-3.1032,-3.2399,-3.34,-3.4253,-3.482,-3.5193,-3.5266,-3.4932,-3.508,-3.5019,-3.4564,-3.5555,-3.6175,-3.6038,-3.6205,-3.6523,-3.7037,-3.7055,-3.7344,-3.7977,-3.7831,-3.7623,-3.7379,-3.6904,-3.6481,-3.6114,-3.6293,-3.6257,-3.6008,-3.6025,-3.586,-3.5577,-3.5101,-3.4698,-3.4332,-3.3623,-3.3278,-3.3123,-3.2148,-3.1928,-3.196,-3.1044,-3.043,-3.0177,0.0,0.0,0.0,0.0,0.0,0.0,0.0,0.0,0.0,0.0,0.0,0.0,0.0,0.0,0.0,0.0,0.0,0.0,0.0,0.0,0.0,2.0809,2.1417,2.0502,1.7879,1.9672,2.0028,1.879,2.063,2.1775,2.2293,2.5553,2.67,2.6016,2.6666,2.6169,2.4729,2.3001,2.1684,2.0741,1.9521,1.9894,2.0939,1.9287,0.0,0.0,0.0,0.0,0.0,1.2243,1.0336,0.9611,0.9453,0.8134,0.617,0.3904,0.159,-0.0972,-0.4856,-0.6225,-0.6876,-0.7967,-1.069,-1.3073,-1.3171,-1.4811,-1.6798,-1.8822,-2.0631,-2.2683,-2.5338,-2.7769,-2.9809,-3.1148,-3.2035,-3.2819,-3.3424,-3.3647,-3.3788,-3.3815,-3.4325,-3.4551,-3.4223,-3.4486,-3.4867,-3.5373,-3.5873,-3.6193,-3.6229,-3.6229,-3.6383,-3.6648,-3.7124,-3.703,-3.6388,-3.6865,-3.6586,-3.556,-3.556,-3.5207,-3.456,-3.453,-3.4092,-3.3419,-3.3411,-3.2901,-3.2162,-3.2062,-3.1881,-3.1585,-3.0655,-3.0566,-3.0952,-2.9973,-2.8966,-2.8219,0.0,0.0,0.0,0.0,0.0,0.0,0.0,0.0,0.0,0.0,0.0,0.0,0.0,0.0,0.0,0.0,0.0,0.0,0.0,0.0,0.0,0.0,0.0,0.0,0.0,0.0,0.0,0.0,0.0,2.402,2.5113,2.7246,2.837,2.8573,2.8781,2.8135,2.6803,2.6004,2.5028,2.4079,0.0,2.4718,2.4161,0.0,0.0,0.0,0.0,0.0,1.9594,1.6085,1.4355,1.3402,1.1964,1.1125,1.0115,0.7419,0.4846,0.2496,0.047,-0.3153,-0.6469,-0.678,-0.8162,-0.9968,-1.1671,-1.312,-1.4858,-1.7539,-1.9616,-2.1766,-2.4569,-2.651,-2.8032,-2.9037,-3.0424,-3.1521,-3.202,-3.2844,-3.3542,-3.4025,-3.4242,-3.4292,-3.42,-3.4288,-3.4288,-3.4242,-3.4357,-3.4706,-3.5312,-3.5349,-3.5659,-3.6394,-3.5804,-3.5652,-3.6045,-3.6022,-3.5627,-3.483,-3.483,-3.4479,-3.3853,-3.3319,-3.2998,-3.281,-3.2064,-3.1671,-3.1386,-3.0538,-3.0144,-3.0014,-2.9073,-2.8753,-2.8781,-2.7789,-2.7411,-2.7435,0.0,0.0,0.0,0.0,0.0,0.0,0.0,0.0,0.0,0.0,0.0,0.0,0.0,0.0,0.0,0.0,0.0,0.0,0.0,0.0,0.0,0.0,0.0,0.0,0.0,0.0,0.0,0.0,0.0,0.0,0.0,2.8156,2.9176,2.9679,2.9877,2.9444,2.8574,2.8086,0.0,0.0,0.0,0.0,0.0,0.0,0.0,0.0,0.0,0.0,2.2604,1.9972,1.7394,1.4974,1.3866,1.2884,1.189,1.0223,0.7503,0.4788,0.3328,-0.0233,-0.3675,-0.4337,-0.593,-0.7704,-0.9061,-1.0489,-1.2247,-1.4758,-1.6813,-1.9079,-2.2268,-2.4465,-2.6351,-2.8092,-2.9556,-3.0769,-3.156,-3.2577,-3.3382,-3.3894,-3.4228,-3.4423,-3.4423,-3.4423,-3.4307,-3.4012,-3.3868,-3.4009,-3.4468,-3.43,-3.4579,-3.5417,-3.4697,-3.457,-3.5142,-3.4831,-3.4476,-3.4114,-3.4137,-3.3786,-3.3145,-3.2788,-3.2241,-3.1564,-3.1039,-3.0372,-2.9628,-2.8946,-2.8651,-2.8479,-2.7948,-2.7653,-2.7385,-2.6827,-2.6158,-2.5543,0.0,0.0,0.0,0.0,0.0,0.0,0.0,0.0,0.0,0.0,0.0,0.0,0.0,0.0,0.0,0.0,0.0,0.0,0.0,0.0,0.0,0.0,0.0,0.0,0.0,0.0,0.0,0.0,0.0,0.0,0.0,0.0,0.0,0.0,0.0,0.0,0.0,0.0,0.0,0.0,0.0,0.0,0.0,0.0,0.0,0.0,0.0,2.6596,2.5049,2.3543,1.9976,1.5972,1.5692,1.4369,1.2839,1.2391,0.9836,0.6729,0.4862,0.2477,0.0233,-0.1166,-0.3647,-0.5819,-0.6046,-0.7668,-0.9734,-1.1784,-1.3724,-1.6142,-1.9544,-2.2261,-2.4831,-2.7573,-2.9016,-3.0253,-3.1573,-3.2548,-3.3248,-3.3632,-3.4232,-3.4632,-3.4632,-3.4632,-3.4508,-3.4171,-3.391,-3.3807,-3.3807,-3.3465,-3.3521,-3.4051,-3.375,-3.3722,-3.3969,-3.355,-3.3393,-3.335,-3.3367,-3.2982,-3.2296,-3.2296,-3.1477,-3.0133,-3.0011,-2.9129,-2.767,-2.7458,-2.7161,-2.6943,-2.6872,-2.6542,-2.6162,-2.6,-2.4891,-2.3398,0.0,0.0,0.0,0.0,0.0,0.0,0.0,0.0,0.0,0.0,2.7434,0.0,0.0,0.0,0.0,0.0,0.0,0.0,0.0,0.0,0.0,0.0,0.0,0.0,0.0,2.6305,2.6229,2.648,2.6471,0.0,0.0,0.0,0.0,0.0,0.0,0.0,0.0,0.0,0.0,0.0,0.0,0.0,0.0,0.0,0.0,0.0,2.9688,2.8282,2.6524,2.5762,2.3277,2.0172,1.8103,1.7163,1.6294,1.3129,1.1777,1.0513,0.6878,0.4717,0.3091,0.1707,-0.0776,-0.3181,-0.4553,-0.6714,-0.918,-1.1704,-1.4324,-1.6816,-1.8968,-2.1478,-2.3935,-2.6265,-2.7719,-2.9311,-3.1328,-3.221,-3.2973,-3.3969,-3.42,-3.4288,-3.4288,-3.4288,-3.4171,-3.3876,-3.3815,-3.3807,-3.3807,-3.3734,-3.3415,-3.2811,-3.3002,-3.2959,-3.2621,-3.264,-3.2651,-3.2657,-3.2195,-3.1509,-3.0674,-3.0674,-3.0179,-2.9192,-2.8427,-2.7986,-2.7604,-2.6102,-2.5407,-2.529,-2.4464,-2.4134,-2.392,-2.309,-2.2817,-2.2699,0.0,0.0,0.0,0.0,0.0,0.0,0.0,0.0,0.0,0.0,2.8525,2.753,0.0,0.0,0.0,0.0,0.0,0.0,0.0,0.0,0.0,0.0,0.0,0.0,0.0,2.7845,2.7734,2.7657,0.0,2.804,2.8489,2.912,2.9547,2.9821,3.0296,3.0272,0.0,0.0,0.0,0.0,3.1713,3.2094,0.0,0.0,0.0,0.0,0.0,3.0595,2.9247,2.8331,2.6852,2.4874,2.1488,2.008,1.9211,1.6541,1.5038,1.3484,1.0228,0.7882,0.6122,0.5478,0.3242,0.0849,-0.0384,-0.3233,-0.6645,-1.0421,-1.2781,-1.5027,-1.7868,-2.0848,-2.3638,-2.5909,-2.7731,-2.9351,-3.074,-3.161,-3.2462,-3.3396,-3.3877,-3.4195,-3.4445,-3.4445,-3.4334,-3.4018,-3.3876,-3.3707,-3.3494,-3.3255,-3.2727,-3.186,-3.2169,-3.2021,-3.1258,-3.1352,-3.1276,-3.0948,-3.0243,-2.9876,-2.9779,-2.9405,-2.8886,-2.8298,-2.7855,-2.7191,-2.6239,-2.5358,-2.4707,-2.4192,-2.3661,-2.3147,-2.2627,-2.2178,-2.1803,-2.1467,0.0,0.0,0.0,0.0,0.0,0.0,0.0,3.1394,3.073,3.1083,2.996,2.8568,2.727,2.7944,2.8145,0.0,0.0,0.0,0.0,0.0,0.0,0.0,0.0,0.0,0.0,0.0,0.0,2.8612,2.9059,0.0,0.0,0.0,0.0,0.0,3.0821,3.0963,3.0864,3.1484,0.0,0.0,0.0,3.3469,0.0,0.0,0.0,0.0,0.0,3.2577,3.169,3.0637,2.9978,2.8963,2.556,2.3395,2.1837,2.0194,1.8397,1.6318,1.3734,1.1398,0.9538,0.899,0.7083,0.5078,0.3699,0.0308,-0.3707,-0.8147,-1.0507,-1.282,-1.6451,-1.9849,-2.2987,-2.5781,-2.7992,-2.9669,-3.051,-3.1401,-3.2228,-3.2943,-3.3652,-3.418,-3.4572,-3.4593,-3.4464,-3.4147,-3.376,-3.3419,-3.3214,-3.2745,-3.2162,-3.1351,-3.1435,-3.1094,-3.0293,-3.0087,-2.9736,-2.9254,-2.8552,-2.8369,-2.8573,-2.8033,-2.7557,-2.7222,-2.7009,-2.6195,-2.4933,-2.4564,-2.3891,-2.3147,-2.2925,-2.2253,-2.1344,-2.1344,-2.074,-1.9756,0.0,0.0,0.0,0.0,0.0,0.0,0.0,3.2175,3.1497,3.0992,3.0948,3.0492,2.9249,2.8761,2.8685,0.0,0.0,0.0,0.0,0.0,0.0,0.0,0.0,0.0,0.0,0.0,0.0,2.995,3.0034,0.0,0.0,0.0,0.0,0.0,0.0,3.2793,3.2837,3.2853,0.0,0.0,0.0,0.0,0.0,0.0,0.0,0.0,0.0,3.3421,3.266,3.2039,3.1771,3.1532,3.0347,2.7518,2.4351,2.2533,2.1005,1.9276,1.6444,1.5016,1.3704,1.1132,1.0112,0.8806,0.5228,0.1989,-0.1221,-0.4461,-0.7966,-1.1407,-1.4566,-1.778,-2.1234,-2.5283,-2.7762,-2.9766,-3.1442,-3.2092,-3.2723,-3.3451,-3.3907,-3.42,-3.4246,-3.4265,-3.4123,-3.3868,-3.3087,-3.2777,-3.3184,-3.2745,-3.2282,-3.1752,-3.0914,-3.0377,-3.0293,-2.9198,-2.8624,-2.8501,-2.7896,-2.7172,-2.6382,-2.6334,-2.6087,-2.5728,-2.4908,-2.4704,-2.4862,-2.2999,-2.2253,-2.2027,-2.1231,-2.0226,-1.9265,-1.9265,-1.8541,-1.7577,0.0,0.0,0.0,0.0,0.0,0.0,0.0,3.2925,3.2207,3.1519,3.1215,3.0891,3.0509,2.994,2.9545,0.0,0.0,0.0,0.0,0.0,0.0,0.0,0.0,0.0,0.0,0.0,3.0752,3.0752,3.0842,0.0,0.0,0.0,0.0,0.0,0.0,3.3035,3.3145,3.3672,0.0,0.0,0.0,0.0,0.0,0.0,0.0,0.0,0.0,0.0,3.3889,3.3374,3.324,3.3158,3.2473,3.1011,2.8963,2.5903,2.4609,2.3461,2.0177,1.9009,1.8322,1.6152,1.4645,1.2721,0.8871,0.5738,0.2275,-0.2611,-0.6331,-0.9353,-1.1728,-1.6468,-2.1007,-2.4053,-2.7052,-2.9629,-3.133,-3.2239,-3.2955,-3.3533,-3.3877,-3.4106,-3.42,-3.3994,-3.3615,-3.3057,-3.2713,-3.2297,-3.1829,-3.1408,-3.1077,-3.0897,-3.0175,-2.9358,-2.8561,-2.8066,-2.7408,-2.6583,-2.5897,-2.5298,-2.4679,-2.428,-2.3876,-2.3517,-2.3189,-2.291,-2.2789,-2.1997,-2.11,-2.0197,-1.9747,-1.8957,-1.7989,-1.7989,-1.7666,-1.7172,0.0,0.0,0.0,0.0,0.0,0.0,3.4027,3.3386,3.2626,3.1915,3.1425,3.1176,3.1213,3.0838,3.0425,2.9984,0.0,0.0,0.0,0.0,0.0,0.0,0.0,0.0,0.0,0.0,3.128,3.1365,3.154,3.1708,0.0,0.0,3.2939,3.2966,0.0,0.0,0.0,0.0,0.0,0.0,0.0,0.0,0.0,0.0,0.0,0.0,0.0,0.0,0.0,0.0,0.0,3.4377,3.3929,3.3593,0.0,2.9415,2.8034,2.6892,2.3906,2.2802,2.2016,2.0024,1.855,1.6609,1.2825,0.9563,0.5969,0.1137,-0.2345,-0.5473,-0.8846,-1.4338,-1.9644,-2.3267,-2.6868,-2.9716,-3.1296,-3.246,-3.3239,-3.356,-3.3727,-3.3825,-3.3827,-3.322,-3.2412,-3.151,-3.1579,-3.1219,-3.0206,-2.9856,-2.9809,-3.0021,-2.9223,-2.8355,-2.741,-2.7004,-2.6236,-2.5063,-2.431,-2.3671,-2.3232,-2.2452,-2.2047,-2.1981,-2.1629,-2.1431,-2.1156,-2.0563,-1.9771,-1.8786,-1.8461,-1.7717,-1.6846,-1.6846,-1.6421,-1.5749,0.0,0.0,0.0,0.0,0.0,0.0,0.0,3.3386,3.2675,3.2003,3.186,3.1623,3.1252,3.119,3.119,3.1173,0.0,0.0,0.0,0.0,0.0,0.0,0.0,0.0,0.0,0.0,3.1382,3.1788,3.2264,3.2722,3.3203,3.4211,3.466,3.4697,0.0,0.0,0.0,0.0,0.0,0.0,0.0,0.0,0.0,0.0,0.0,0.0,0.0,0.0,0.0,0.0,0.0,0.0,0.0,3.5056,0.0,0.0,3.089,2.8951,2.7527,2.6073,2.4392,2.1956,2.1354,2.0426,1.6788,1.2983,0.9752,0.7859,0.5031,0.0759,-0.6226,-1.1027,-1.6318,-2.343,-2.7503,-3.0266,-3.1627,-3.2822,-3.3587,-3.3587,-3.3482,-3.3289,-3.303,-3.1748,-3.038,-2.9056,-2.9369,-2.9289,-2.8485,-2.8334,-2.8686,-2.939,-2.81,-2.7395,-2.741,-2.6105,-2.5063,-2.4292,-2.3441,-2.2615,-2.1889,-2.1049,-2.0935,-2.133,-2.039,-2.0254,-2.0694,-1.8737,-1.8085,-1.8208,-1.725,-1.6445,-1.5696,-1.5696,-1.4266,-1.2322,0.0,0.0,0.0,0.0,0.0,0.0,0.0,3.3839,3.3314,3.2433,3.2004,3.1752,3.1623,3.1351,3.119,3.119,0.0,0.0,0.0,0.0,0.0,0.0,0.0,0.0,0.0,0.0,3.1382,3.1805,3.226,3.2744,3.3221,3.3995,3.4471,3.473,3.5066,3.5377,0.0,0.0,0.0,0.0,0.0,0.0,3.5628,0.0,0.0,0.0,0.0,0.0,0.0,0.0,0.0,0.0,0.0,0.0,0.0,0.0,3.3412,3.1833,3.0625,2.9938,2.9248,2.7892,2.6765,2.5084,2.1665,1.9129,1.6192,1.1646,0.816,0.46,0.0295,-0.9281,-1.8186,-2.3259,-2.6969,-3.03,-3.334,-3.3867,-3.3848,-3.3638,-3.2455,-3.1427,-3.0737,-2.9983,-2.9231,-2.8469,-2.8207,-2.7818,-2.7127,-2.6714,-2.6934,-2.8021,-2.7202,-2.6279,-2.5273,-2.4881,-2.4279,-2.3484,-2.2652,-2.1779,-2.0974,-2.0139,-1.9449,-1.8992,-1.8066,-1.7891,-1.8218,-1.6978,-1.6238,-1.5878,-1.5568,-1.4862,-1.389,-1.3326,-1.264,-1.192,0.0,0.0,0.0,0.0,0.0,0.0,0.0,3.3971,3.346,3.2364,3.1773,3.1405,3.1249,3.0988,3.0878,3.0878,0.0,0.0,0.0,0.0,0.0,0.0,0.0,0.0,0.0,3.1438,3.1647,3.2071,3.2371,3.2738,3.3221,3.3907,3.4395,3.4706,3.498,3.5277,0.0,0.0,0.0,0.0,0.0,0.0,3.5644,0.0,0.0,0.0,0.0,0.0,0.0,0.0,0.0,0.0,0.0,0.0,0.0,0.0,3.4983,3.4005,3.2804,3.2285,3.1878,3.1112,3.0105,2.8586,2.5908,2.4047,2.1662,1.7461,1.4581,1.1744,0.8206,0.0709,-0.8154,-1.7885,-2.1688,-2.5823,-3.2676,-3.3677,-3.3356,-3.2502,-3.1325,-3.0216,-2.9153,-2.8421,-2.7729,-2.7126,-2.6511,-2.5947,-2.5485,-2.5045,-2.4893,-2.5185,-2.5289,-2.4998,-2.4292,-2.3682,-2.316,-2.2628,-2.1479,-2.0655,-2.0074,-1.8803,-1.8017,-1.7432,-1.6498,-1.6219,0.0,-1.5033,-1.4276,-1.3894,-1.3199,-1.2504,-1.2006,-1.1421,-1.0975,-1.0496,0.0,0.0,0.0,0.0,0.0,0.0,0.0,0.0,0.0,0.0,3.1295,3.0774,3.0402,3.0335,3.0293,0.0,0.0,0.0,0.0,0.0,0.0,0.0,0.0,0.0,0.0,3.1752,3.1995,3.2491,3.2491,3.2748,3.3276,3.3862,3.4345,3.4678,3.495,3.5215,0.0,0.0,0.0,0.0,0.0,0.0,0.0,0.0,0.0,0.0,0.0,0.0,0.0,0.0,0.0,0.0,0.0,0.0,0.0,0.0,0.0,0.0,0.0,3.3393,3.2764,3.2216,3.1804,3.1135,2.96,2.7907,0.0,2.4524,2.3462,2.1504,1.7242,1.5864,0.9563,-0.8484,-1.2651,-1.7743,-2.9603,-3.2062,-3.2013,-3.0379,-2.9941,-2.9338,-2.8152,-2.6882,-2.5834,-2.5057,-2.4371,-2.3799,-2.3515,-2.3316,-2.2655,-2.1365,-2.2437,-2.3328,-2.3968,-2.2482,-2.1779,-2.1815,-2.0063,-1.9222,-1.9156,-1.7316,-1.6498,-1.6428,-1.5517,-1.5092,-1.495,-1.2961,-1.2317,-1.2335,-1.044,-0.9884,-1.0155,-1.009,-0.9361,-0.8384,0.0,0.0,0.0,0.0,0.0,0.0,0.0,0.0,0.0,0.0,3.1623,3.105,3.079,3.0476,3.0123,0.0,0.0,0.0,0.0,0.0,0.0,0.0,0.0,0.0,0.0,3.1349,3.1729,3.2491,3.2496,3.2902,3.3652,3.3825,3.4052,3.4319,3.4641,0.0,0.0,0.0,0.0,0.0,0.0,0.0,0.0,0.0,0.0,0.0,3.5756,3.5763,0.0,0.0,0.0,0.0,0.0,0.0,0.0,0.0,3.3751,3.3873,3.4245,0.0,3.4963,3.4824,3.4347,3.3691,0.0,3.188,3.0565,2.8505,2.8759,2.8778,2.6917,1.5924,0.4919,-0.1802,-0.5643,-1.1836,-2.3456,-2.7399,-2.8799,-2.805,-2.7186,-2.6607,-2.6522,-2.4131,-2.2746,-2.3097,-2.2073,-2.1411,-2.1313,-2.0861,-2.0399,-1.9934,-1.9749,-2.0064,-2.0909,-2.0565,-2.0523,-2.091,-1.9093,-1.8218,-1.814,-1.6323,-1.5517,-1.5438,-1.445,-1.4027,-1.3882,-1.1957,-1.1186,-1.1091,-0.99,-0.9407,-0.9396,-0.8769,-0.8347,-0.7973,0.0,0.0,0.0,0.0,0.0,0.0,0.0,0.0,0.0,0.0,0.0,0.0,0.0,0.0,0.0,0.0,0.0,0.0,0.0,0.0,0.0,0.0,0.0,0.0,3.1065,3.1052,3.1278,3.1788,3.1812,3.2188,3.2893,3.3331,3.3652,3.3952,3.4473,0.0,0.0,0.0,0.0,0.0,3.466,0.0,0.0,0.0,0.0,0.0,3.5472,3.5488,0.0,3.5629,3.5579,3.5327,0.0,0.0,0.0,0.0,3.2842,3.2832,3.364,3.4481,3.5242,3.5684,3.5388,3.4909,3.4642,0.0,3.3091,3.1882,3.2111,3.2151,3.0948,2.3595,1.4411,0.4308,0.3357,-0.1384,-1.6681,-2.1921,-2.4664,-2.5945,-2.6032,-2.5745,-2.5112,-2.3634,-2.2497,-2.203,-2.0877,-2.0041,-1.9699,-1.873,-1.7961,-1.7544,-1.6848,-1.7322,-1.9072,-1.8794,-1.8574,-1.8479,-1.7233,-1.6642,-1.6582,-1.5138,-1.4522,-1.445,-1.299,-1.2338,-1.2191,-1.0254,-0.9437,-0.9286,-0.8318,-0.794,-0.7872,-0.7364,-0.7242,-0.7175,0.0,0.0,0.0,0.0,0.0,0.0,0.0,0.0,0.0,0.0,0.0,0.0,0.0,0.0,0.0,0.0,0.0,0.0,0.0,0.0,0.0,0.0,0.0,3.1134,3.0506,3.0632,3.0741,3.0892,3.0868,3.1168,3.1794,3.2578,3.3148,3.3532,3.4101,3.4173,0.0,0.0,3.4125,3.3821,3.4195,0.0,0.0,0.0,0.0,0.0,0.0,0.0,0.0,3.5198,3.5013,3.4623,3.3929,0.0,0.0,0.0,0.0,0.0,3.2397,3.3253,3.4212,3.5338,3.5371,3.5176,3.5367,0.0,0.0,3.429,3.3763,3.2999,3.2056,3.1202,2.5565,0.9998,1.0878,0.7688,-0.885,-1.5419,-2.0234,-2.4769,-2.5816,-2.5567,-2.412,-2.3483,-2.2453,-2.0751,-1.9522,-1.8495,-1.7756,-1.6517,-1.5474,-1.4557,-1.4164,-1.4893,-1.6911,-1.6777,-1.6253,-1.5508,-1.5083,-1.479,-1.4482,-1.3628,-1.315,-1.2931,-1.1304,-1.0565,-1.0415,-0.8533,-0.7863,-0.7791,-0.6732,-0.6112,-0.5867,-0.6207,-0.6126,-0.5883,0.0,0.0,0.0,0.0,0.0,0.0,0.0,0.0,0.0,0.0,0.0,0.0,0.0,0.0,0.0,0.0,0.0,0.0,0.0,0.0,0.0,0.0,2.9066,2.9412,2.8712,2.9327,3.0079,3.0892,3.0421,3.064,3.1617,3.1757,3.226,3.3012,3.2889,3.2915,3.3065,3.288,3.2787,3.2737,3.2818,0.0,0.0,0.0,0.0,0.0,0.0,0.0,0.0,3.363,3.321,3.2501,3.1672,0.0,0.0,0.0,0.0,0.0,3.0086,3.0875,3.1923,3.3901,3.4332,3.4408,3.4867,3.4629,3.4299,3.4299,3.3028,3.2156,3.3066,2.4702,1.7104,1.531,0.9236,0.3904,0.1575,-0.6888,-1.6522,-2.6409,-2.5847,-2.4533,-2.4262,-2.0838,-1.8189,-1.7236,-1.5725,-1.4552,-1.3708,-1.349,-1.2674,-1.12,-1.2448,-1.2704,-1.1707,-1.3345,-1.393,-1.3462,-1.3554,-1.2791,-1.1255,-1.1248,-1.0783,-0.997,-0.9669,-0.9518,-0.9448,-0.8313,-0.7949,-0.8128,-0.6817,-0.5168,-0.3828,-0.5652,-0.5174,-0.383,0.0,0.0,0.0,0.0,0.0,0.0,0.0,0.0,0.0,0.0,0.0,0.0,0.0,0.0,0.0,0.0,0.0,0.0,0.0,0.0,0.0,2.5655,2.6651,2.7235,2.7235,2.7551,2.7931,2.8428,2.8151,2.8403,2.9223,2.9865,3.0888,3.219,3.2081,3.1966,3.19,3.1974,3.169,3.1229,0.0,0.0,0.0,0.0,0.0,0.0,0.0,0.0,0.0,0.0,3.2692,3.1881,3.1132,0.0,0.0,0.0,0.0,0.0,2.8947,2.9407,2.9958,3.1241,3.235,3.3256,3.3795,3.3308,3.2863,3.3273,3.1359,3.0068,3.1506,2.6284,2.2338,2.41,1.6083,0.9968,1.0999,-0.0217,-1.1075,-1.7989,-2.2367,-2.446,-2.349,-2.0843,-1.8679,-1.7553,-1.5738,-1.3508,-1.0704,-1.1225,-1.0967,-0.9794,-1.0084,-0.992,-0.9163,-1.0104,-1.103,-1.1933,-1.1655,-1.1179,-1.0444,-1.0076,-0.9697,-0.9296,-0.8689,-0.8466,-0.8389,-0.7411,-0.7119,-0.713,-0.6532,-0.5023,-0.3359,-0.5509,-0.424,-0.1566,0.0,0.0,0.0,0.0,0.0,0.0,0.0,0.0,0.0,0.0,0.0,0.0,0.0,0.0,0.0,0.0,0.0,0.0,0.0,0.0,2.42,2.3479,2.4142,2.4939,2.5823,2.6006,2.6145,2.6323,2.6148,2.6408,2.7001,2.7886,2.9114,3.0576,3.0737,3.0578,3.0127,3.0619,3.0268,2.9452,0.0,0.0,0.0,0.0,0.0,0.0,0.0,0.0,0.0,0.0,0.0,0.0,0.0,0.0,0.0,2.7807,2.7075,2.645,2.6957,2.7414,2.7814,2.7984,2.9958,3.1989,3.2349,3.1813,3.1276,3.1418,2.9259,2.767,2.8708,2.6158,2.4281,2.5289,1.9814,1.5303,1.5017,0.5794,-0.3662,-1.1071,-1.7255,-2.1474,-2.2852,-2.136,-1.958,-1.7802,-1.5107,-1.2224,-0.9289,-0.9249,-0.9006,-0.8308,-0.8081,-0.7772,-0.7372,-0.7772,-0.8641,-1.0017,-0.9814,-0.955,-0.923,-0.8907,-0.8684,-0.8472,-0.7766,-0.7484,-0.7411,-0.6581,-0.6285,-0.6295,-0.6318,-0.4719,-0.2581,-0.4247,-0.2752,-0.0,0.0,0.0,0.0,0.0,0.0,0.0,0.0,0.0,0.0,0.0,0.0,0.0,0.0,0.0,0.0,0.0,0.0,0.0,0.0,0.0,2.1623,2.0899,2.1561,2.275,2.4411,2.5089,2.5757,2.6321,2.5751,2.5765,2.638,2.6462,2.6862,2.7538,2.821,2.8124,2.7506,2.8232,2.8076,2.7431,2.7447,0.0,0.0,0.0,0.0,0.0,0.0,0.0,0.0,0.0,0.0,0.0,0.0,0.0,2.5287,2.526,2.398,2.2598,2.2655,2.3932,2.5023,2.4134,2.7314,3.061,3.0505,3.063,3.0248,2.8598,2.672,2.5246,2.4829,1.8181,1.198,0.9724,1.2743,1.3762,0.9046,1.1554,0.6665,-1.2764,-1.0862,-1.2217,-2.3123,-2.1554,-1.8671,-1.572,-1.1024,-0.8863,-1.0384,-0.7456,-0.5749,-0.5652,-0.7157,-0.7204,-0.5606,-0.7204,-0.7671,-0.7003,-0.8071,-0.7646,-0.5974,-0.7126,-0.7134,-0.6279,-0.636,-0.643,-0.643,-0.6366,-0.6308,-0.6325,-0.6329,-0.3777,-0.0235,-0.0393,-0.0236,-0.0,0.0,0.0,0.0,0.0,0.0,0.0,0.0,0.0,0.0,0.0,0.0,0.0,0.0,0.0,0.0,0.0,0.0,0.0,0.0,0.0,1.8137,1.7856,1.7529,1.7632,1.8314,2.1005,2.2515,2.276,2.254,2.3053,2.421,2.3689,2.4273,2.5826,2.5554,2.5257,2.504,2.532,2.5079,2.4436,2.4436,2.4532,0.0,0.0,0.0,0.0,0.0,0.0,0.0,0.0,2.7793,2.6622,2.6647,2.5417,2.3851,2.3398,2.2787,2.2117,2.1643,2.2351,2.3083,2.2204,2.4031,2.6163,2.6629,2.6814,2.6567,2.5288,2.4343,2.2901,2.037,1.8309,1.6076,1.2964,1.4137,1.5835,1.7094,1.0671,0.531,0.3912,-0.1788,-0.7631,-1.2794,-1.0327,-1.11,-1.7606,-1.1631,-0.6612,-0.4151,-0.4882,-0.4815,-0.3756,-0.4345,-0.4406,-0.3744,-0.4406,-0.4535,-0.4268,-0.6897,-0.7779,-0.7091,-0.6502,-0.6187,-0.6159,-0.6245,-0.553,-0.4215,-0.2948,-0.3919,-0.6009,-0.3383,-0.1414,-0.0,-0.0,-0.0,0.0393,0.0,0.0,0.0,0.0,0.0,0.0,0.0,0.0,0.0,0.0,0.0,0.0,0.0,0.0,0.0,0.0,0.0,0.0,0.0,1.4319,1.3948,1.3948,1.3282,1.2909,1.2909,1.5519,1.7531,1.8732,1.873,1.9291,2.0387,1.976,2.027,2.1749,2.1369,2.126,2.1375,2.1549,2.1479,2.1138,2.0482,2.0228,0.0,0.0,0.0,0.0,0.0,0.0,0.0,0.0,2.588,2.4852,2.5124,2.4104,2.2626,2.1865,2.1203,2.0606,1.9842,2.046,2.1096,2.0086,0.0,2.229,2.2554,2.3259,2.3555,2.2605,2.134,1.9218,1.5297,1.5355,1.4805,1.1149,1.1938,1.4232,1.7736,1.0509,0.688,1.2319,0.904,0.2929,-0.5746,-0.3208,-0.6214,-1.885,-1.0768,-0.3699,-0.0201,-0.2274,-0.3076,-0.1877,-0.1877,-0.1877,-0.1877,-0.2415,-0.2684,-0.2753,-0.5183,-0.6329,-0.6294,-0.4524,-0.3951,-0.4319,-0.436,-0.3519,-0.1958,0.0153,-0.1086,-0.3853,0.0314,0.1963,0.1885,0.1254,0.094,0.141,0.0,0.0,0.0,0.0,0.0,0.0,0.0,0.0,0.0,0.0,0.0,0.0,0.0,0.0,0.0,0.0,0.0,0.0,0.9003,0.893,0.893,0.893,0.893,0.893,0.893,0.893,1.079,1.4676,1.4622,1.4653,1.4637,1.4666,1.4665,1.4662,1.5402,1.5839,1.6142,1.6856,1.732,1.7414,1.5392,1.4569,1.4823,0.0,0.0,0.0,0.0,0.0,0.0,0.0,2.4942,2.395,2.4862,2.3481,2.1398,2.0704,1.9111,1.7433,1.6694,1.7886,1.9007,1.7564,1.8565,1.9653,1.8533,2.0267,2.1848,2.0656,1.7699,1.3952,0.9576,0.7506,0.5042,0.0738,0.4274,0.7634,0.7702,1.2033,1.3399,0.8443,2.1396,2.1008,-0.3829,-0.2347,-0.5359,-1.8606,-0.7461,-0.0,-0.0,-0.0,0.0067,0.0067,0.0067,-0.0,-0.0,-0.1755,-0.2636,-0.2636,-0.2636,-0.2626,-0.2546,-0.0755,0.0069,0.0069,-0.0143,-0.0146,0.0224,0.2257,0.1913,0.047,0.4646,0.625,0.6006,0.3915,0.3124,0.3124,0.0,0.0,0.0,0.0,0.0,0.0,0.0,0.0,0.0,0.0,0.0,0.0,0.0,0.0,0.0,0.0,0.0,0.0,0.6945,0.5645,0.4879,0.4879,0.4208,0.3446,0.2673,0.268,0.5324,1.0676,1.0657,1.1031,1.1608,1.0961,1.1059,1.1614,1.1198,1.0245,0.8939,0.9155,0.8503,0.7175,0.6538,0.6332,0.6581,0.0,0.0,0.0,0.0,0.0,0.0,0.0,0.0,0.0,2.0156,1.9543,1.7897,1.7769,1.6852,1.5949,1.5783,1.6524,1.7097,1.6161,1.6732,1.7423,1.7116,1.8077,1.846,1.655,1.4736,1.1988,0.7049,0.5769,0.4221,0.0603,0.1281,0.352,0.7203,0.5879,0.804,1.7489,1.9449,1.9945,1.977,1.4337,0.6187,-0.5017,-0.2214,-0.0,-0.0,0.2424,0.3777,0.3777,0.2552,0.1877,0.1877,0.134,0.1072,0.1072,0.1072,0.1742,0.3021,0.3524,0.3806,0.3806,0.3702,0.3761,0.387,0.4927,0.4402,0.3049,0.3732,0.4948,0.6224,0.5578,0.5335,0.5335,0.0,0.0,0.0,0.0,0.0,0.0,0.0,0.0,0.0,0.0,0.0,0.0,0.0,0.0,0.0,0.0,0.0,0.0,0.0,0.0,0.0618,0.0618,-0.0693,-0.2146,-0.3575,-0.3561,-0.1769,0.187,0.4246,0.5655,0.6213,0.4859,0.4543,0.501,0.3686,0.263,0.179,0.1803,0.1301,0.0506,-0.0291,-0.0663,-0.0447,0.0,0.0,0.0,0.0,0.0,0.0,0.0,0.0,0.0,1.5081,0.0,1.5297,1.5058,1.5339,1.5735,1.5477,1.5956,1.6369,1.5956,1.6155,1.6042,1.4461,1.5726,1.6434,1.3782,1.248,1.0296,0.5467,0.428,0.3142,0.047,0.0,0.1079,0.4206,0.1957,0.5033,1.8482,1.7301,1.9483,2.9893,2.1473,1.1094,0.0809,0.2626,0.3639,0.2223,0.3558,0.464,0.5406,0.437,0.3758,0.3758,0.3758,0.3758,0.3758,0.3758,0.437,0.5399,0.5399,0.5396,0.5396,0.5473,0.5467,0.5487,0.5884,0.5596,0.4842,0.4427,0.5018,0.6203,0.6261,0.6281,0.6281,0.0,0.0,0.0,0.0,0.0,0.0,0.0,0.0,0.0,0.0,0.0,0.0,0.0,0.0,0.0,0.0,0.0,0.0,0.0,0.0,-0.3953,-0.4026,-0.5746,-0.758,-0.9369,-0.9408,-0.9421,-0.9421,-0.3604,-0.0784,-0.0863,-0.2594,-0.3526,-0.3647,-0.5473,-0.5996,-0.5443,-0.5411,-0.5029,-0.4544,-0.6439,-0.7212,-0.712,-0.605,0.0,0.0,0.0,0.0,0.0,0.0,0.0,0.0,0.9775,1.1493,1.3033,1.2601,1.4161,1.5878,1.541,1.581,1.6369,1.6369,1.6206,1.5081,1.1358,1.3203,1.4743,1.1442,1.0281,0.8515,0.431,0.2907,0.1868,0.0269,0.0,0.0,0.0,0.0,0.3862,1.416,1.5423,1.9483,2.9893,2.1473,1.1539,0.2087,0.7123,0.9236,0.6015,0.4138,0.3862,0.5526,0.5459,0.5393,0.5393,0.5393,0.5393,0.5393,0.5459,0.5452,0.5376,0.5379,0.5379,0.5382,0.5511,0.5638,0.5717,0.5813,0.5885,0.6118,0.6117,0.6023,0.604,0.6246,0.6381,0.6391,0.0,0.0,0.0,0.0,0.0,0.0,0.0,0.0,0.0,0.0,0.0,0.0,0.0,0.0,0.0,0.0,0.0,0.0,0.0,0.0,-1.0269,-1.0901,-1.1527,-1.2029,-1.2451,-1.2417,-1.2472,-1.2472,-0.8813,-0.7083,-0.7083,-0.7488,-0.8023,-0.8754,-0.9168,-1.0849,-1.3333,-1.3334,-1.4519,-1.6322,-1.6732,-1.7203,-1.7409,-1.5076,-1.4513,0.0,0.0,0.0,0.0,0.0,0.0,0.0,0.4576,0.6584,0.8425,1.0309,1.1299,1.2099,1.3974,1.5032,1.5644,1.5644,1.4155,1.2394,1.1533,1.0424,0.8646,0.5223,0.4961,0.4375,0.1399,0.0671,0.0403,0.0067,0.0,0.0,0.0,0.0,0.3862,1.416,1.5423,1.9483,2.9893,2.1473,1.4463,1.2233,1.1161,1.0252,0.9509,0.7349,0.6358,0.6713,0.5841,0.5369,0.5369,0.5369,0.5369,0.5435,0.6083,0.6083,0.5432,0.5376,0.5372,0.5432,0.5396,0.5803,0.6469,0.6587,0.6664,0.6753,0.6789,0.6429,0.593,0.6683,0.707,0.7335,0.0,0.0,0.0,0.0,0.0,0.0,0.0,0.0,0.0,0.0,0.0,0.0,0.0,0.0,0.0,0.0,0.0,0.0,0.0,0.0,0.0,-1.6309,-1.6096,-1.6367,-1.7321,-1.7067,-1.7001,-1.7345,-1.5843,-1.3956,-1.176,-1.267,-1.3344,-1.3855,-1.5188,-1.6836,-1.8658,-1.8972,-2.0004,-2.1317,-2.1293,-2.1668,-2.2072,-2.0665,-2.0674,-2.105,-1.828,0.0,0.0,0.0,0.0,0.0,0.0,0.0,0.3623,0.5008,0.7778,1.0753,1.248,1.3889,1.4945,1.5332,1.4418,1.3126,1.1904,0.955,0.684,0.3873,0.361,0.2538,-0.2004,-0.2845,-0.2845,-0.2845,-0.2845,-0.2154,-0.0268,0.0,0.3862,1.416,1.5423,1.9483,2.9893,2.1497,1.5391,1.542,1.292,1.086,0.9731,0.8333,0.7148,0.63,0.5697,0.5428,0.5428,0.5815,0.6009,0.6009,0.692,0.7116,0.6597,0.576,0.5627,0.6009,0.6009,0.6527,0.7316,0.7423,0.7403,0.7421,0.756,0.7364,0.7024,0.7535,0.7842,0.8001,0.0,0.0,0.0,0.0,0.0,0.0,0.0,0.0,0.0,0.0,0.0,0.0,0.0,0.0,0.0,0.0,0.0,0.0,0.0,0.0,0.0,-2.0925,-2.0115,-2.0393,-2.2078,-2.1493,-2.1487,-2.2092,-2.2274,-2.0335,-1.6598,-1.7873,-1.8604,-1.8835,-2.1104,-2.2273,-2.2584,-2.3257,-2.3663,-2.3778,-2.397,-2.4393,-2.4844,-2.4919,-2.5553,-2.6188,-2.5015,-2.3232,-2.1033,-1.8395,0.0,0.0,0.0,0.0,-0.1731,-0.1344,0.3436,0.8868,1.0147,1.2329,1.4415,1.5187,1.508,1.4164,1.2093,0.955,0.7147,0.5182,0.3918,0.1557,-0.3851,-0.4908,-0.4908,-0.4908,-0.4908,-0.3771,-0.0469,0.0469,0.4448,1.4236,1.5742,1.978,2.9547,2.1312,1.5561,1.5879,1.36,1.1361,0.932,0.8731,0.7632,0.5885,0.6009,0.6009,0.5818,0.6593,0.6915,0.6915,0.7632,0.8091,0.8156,0.6601,0.6272,0.6915,0.6915,0.7437,0.8221,0.8221,0.8221,0.8242,0.8368,0.8312,0.8193,0.8437,0.8592,0.8628,0.0,0.0,0.0,0.0,0.0,0.0,0.0,0.0,0.0,0.0,0.0,0.0,0.0,0.0,0.0,0.0,0.0,0.0,-2.4873,0.0,0.0,-2.5418,-2.412,-2.3508,-2.3748,-2.3704,-2.3717,-2.3768,-2.4543,-2.4605,-2.3928,-2.2715,-2.2506,-2.3223,-2.3651,-2.4544,-2.5914,-2.6528,-2.7149,-2.7792,-2.8665,-2.9175,-2.9475,-2.9939,-3.0315,-3.0383,-2.8649,-2.7821,-2.7162,-2.4812,-2.1524,0.0,0.0,0.0,-0.8731,-0.6743,-0.2557,0.2056,0.5255,1.0087,1.4415,1.5187,1.3764,1.2033,1.1654,0.955,0.7756,0.8057,0.4092,0.0268,-0.06,-0.08,-0.08,-0.08,-0.08,-0.0601,-0.0067,0.2492,0.7071,1.4513,1.7024,2.0989,2.8128,2.0679,1.6046,1.7698,1.4337,1.1914,1.1334,1.06,0.9412,0.7697,0.8308,0.8372,0.7637,0.7767,0.7832,0.7832,0.7962,0.842,0.9075,0.8096,0.7702,0.7832,0.7832,0.8291,0.9139,0.9139,0.9139,0.9145,0.9116,0.8663,0.8143,0.8896,0.9311,0.9629,0.0,0.0,0.0,0.0,0.0,0.0,0.0,0.0,0.0,0.0,0.0,0.0,0.0,0.0,0.0,-3.0315,-2.906,-2.8398,-2.8585,-2.8451,-2.8341,-2.8369,-2.7157,-2.6294,-2.5974,-2.5545,-2.5341,-2.5411,-2.583,-2.6221,-2.6621,-2.5866,-2.5273,-2.4874,-2.5589,-2.6361,-2.7036,-2.7639,-2.8182,-2.8682,-2.8697,-2.9148,-2.9881,-3.0091,-3.0742,-3.1311,-2.9878,-2.9607,-2.9479,-2.6923,-2.4846,-2.3001,-2.132,0.0,0.0,0.0,-0.7384,-0.0312,0.6813,1.2195,1.6053,1.7333,1.7277,1.6776,1.6111,1.4428,1.2912,1.2634,0.9879,0.642,0.2922,0.2269,0.2269,0.2269,0.2269,0.3032,0.5258,0.7719,1.1556,1.7509,1.9342,2.1964,2.6709,2.2016,1.901,1.9655,1.5752,1.3416,1.3514,1.2057,1.0392,0.8692,0.8995,0.8815,0.8027,0.8484,0.9005,0.9454,0.8941,0.9204,0.9977,0.9134,0.8748,0.8748,0.8748,0.9204,1.0047,1.0047,1.0047,1.0047,1.0047,0.9779,0.9518,0.9913,1.0123,1.029,0.0,0.0,0.0,0.0,0.0,0.0,0.0,0.0,0.0,0.0,0.0,0.0,0.0,0.0,0.0,0.0,-3.1792,-3.1462,-3.1268,-3.0746,-3.0351,-3.0218,-2.9273,-2.8451,-2.7944,-2.7386,-2.7137,-2.7227,-2.7216,-2.7506,-2.8047,-2.8047,-2.75,-2.6474,-2.7303,-2.7582,-2.7473,-2.8202,-2.8623,-2.8725,-2.8511,-2.8972,-2.9816,-3.0161,-3.0872,-3.1615,-3.0906,-3.0914,-3.0918,-2.8699,-2.7674,-2.6992,-2.5011,-2.2222,0.0,0.0,0.0,-0.2077,0.7845,1.2887,1.5932,1.8481,1.9777,2.0219,1.9544,1.878,1.7909,1.6974,1.6154,1.4268,0.9756,0.754,0.6413,0.6365,0.6518,0.7671,1.0646,1.3116,1.6279,2.0588,2.1807,2.3446,2.6318,2.355,2.1519,2.1299,1.7213,1.4811,1.4971,1.328,1.1559,0.9863,1.024,1.0014,0.8977,0.939,1.004,1.0863,1.004,1.0104,1.0863,1.004,0.9716,0.9901,0.9716,0.9977,1.0624,1.0624,1.0624,1.0624,1.0624,1.0624,1.0624,1.0624,1.0624,1.0624,0.0,0.0,0.0,0.0,0.0,0.0,0.0,0.0,0.0,0.0,0.0,0.0,-3.6426,-3.5289,-3.4357,-3.3927,-3.3854,-3.3524,-3.282,-3.1984,-3.1339,-3.0853,-3.0261,0.0,-2.9297,-2.9262,-2.9245,-2.9225,-2.9271,-2.9256,-2.9311,-2.9311,-2.9281,-2.9189,-2.8685,-2.8039,-2.7482,-2.8653,-2.8926,-2.8718,-2.9889,-3.0432,-3.0693,-3.1948,-3.225,-3.2044,-3.2488,-3.259,-3.2404,-3.1672,-3.0964,-3.0181,-2.9109,-2.729,-2.523,0.0,0.0,0.0,0.5233,0.9298,1.1948,1.707,1.8408,1.8598,1.9248,2.0174,2.0764,2.0338,2.1041,2.1871,2.2236,1.7133,1.2919,1.2897,1.3427,1.3933,1.4138,1.7509,2.0769,2.2831,2.4264,2.5832,2.7715,2.4533,2.2314,2.2314,1.8514,1.5854,1.5027,1.4412,1.3322,1.1621,1.3132,1.3166,1.164,1.0856,1.0919,1.171,1.0919,1.0982,1.171,1.0926,1.0919,1.1648,1.0863,1.0561,1.0624,1.0624,1.0624,1.0624,1.0624,1.0624,1.0624,1.0624,1.0624,1.0624,0.0,0.0,0.0,0.0,0.0,0.0,0.0,0.0,0.0,0.0,0.0,0.0,0.0,-3.5132,-3.4676,-3.4457,-3.4461,-3.4344,-3.4062,-3.3469,-3.2984,-3.2657,-3.2126,-3.1542,-3.0811,-3.0824,-3.0455,-2.9769,-2.979,-2.9654,-2.9405,-2.9702,-2.9545,-2.9,-2.8952,-2.8791,-2.8569,-2.8665,-2.8767,-2.8896,-2.9305,-2.9723,-3.0147,-3.0805,-3.1006,-3.0925,-3.0985,-3.1054,-3.107,-3.0625,-3.0449,-3.0194,-2.8978,-2.8158,-2.6779,-2.2232,-1.5519,-0.7534,0.2055,0.8343,1.3424,1.8471,2.1012,2.2279,2.2286,2.3717,2.4901,2.424,2.4846,2.5636,2.6152,2.2702,1.975,1.975,2.034,2.0743,2.0743,2.3412,2.5591,2.6242,2.6748,2.7399,2.829,2.5035,2.3345,2.4493,2.1033,1.9145,1.9716,1.8025,1.6507,1.5392,1.5071,1.4159,1.2573,1.2274,1.2274,1.2573,1.2274,1.2274,1.2573,1.2274,1.2274,1.2573,1.2274,1.1849,1.1344,1.08,1.0926,1.1351,1.0807,1.0624,1.0681,1.1163,1.1344,1.1344,0.0,0.0,0.0,0.0,0.0,0.0,0.0,0.0,0.0,0.0,0.0,0.0,0.0,0.0,-3.5085,-3.5005,-3.4921,-3.487,-3.4836,-3.4454,-3.4095,-3.3751,-3.3441,-3.293,-3.2196,-3.1912,-3.1498,0.0,-3.0692,-3.052,-3.0452,-3.0492,-3.018,-2.9626,-2.9278,-2.9034,-2.8837,-2.8663,-2.8749,-2.8945,-2.9015,-2.9415,-3.0006,-3.0277,-3.0386,-3.0357,-3.0044,-2.9989,-2.9995,-2.9605,-2.9602,-2.9635,-2.8747,-2.8275,-2.7075,-2.2048,-1.7523,-1.1556,0.0066,0.5274,0.9461,1.767,2.0447,2.1325,2.2196,2.4439,2.6383,2.6411,2.7097,2.7757,2.8127,2.6522,2.5088,2.4868,2.5513,2.6006,2.6003,2.7757,2.901,2.8892,2.8639,2.8521,2.8694,2.5995,2.4738,2.594,2.2929,2.1398,2.2333,2.0161,1.8577,1.7852,1.6437,1.5197,1.4186,1.364,1.3408,1.3425,1.313,1.313,1.3364,1.313,1.313,1.3373,1.313,1.2704,1.2143,1.16,1.1538,1.1772,1.1538,1.1233,1.1108,1.1896,1.2205,1.2143,0.0,0.0,0.0,0.0,0.0,0.0,0.0,0.0,0.0,0.0,0.0,0.0,0.0,0.0,0.0,-3.5605,-3.5372,-3.5185,-3.5128,-3.4872,-3.4513,-3.4049,-3.4035,-3.3826,-3.3364,-3.2596,-3.2429,-3.2937,0.0,0.0,0.0,-3.1694,-3.1341,-3.1228,-2.971,-2.8687,-2.8176,-2.8733,-2.8908,-2.8836,-2.9189,-2.971,-3.0339,-3.0587,-3.0643,-3.0502,-2.9978,-2.9701,-2.9497,-2.8971,-2.8774,-2.8782,-2.8779,-2.7964,-2.6462,-2.3672,-2.1648,-1.6839,0.0,0.0,0.0,1.4396,1.6252,1.5282,1.8776,2.2153,2.504,2.6757,2.7702,2.8359,2.8754,2.881,2.8621,2.8029,2.8763,2.9414,2.9401,3.0261,3.0787,3.0451,2.9813,2.9273,2.8931,2.7448,2.6521,2.6505,2.3993,2.2481,2.2437,2.0625,1.9304,1.8637,1.7236,1.6522,1.6539,1.4954,1.42,1.4264,1.3485,1.3485,1.4264,1.3485,1.3545,1.4204,1.3433,1.307,1.307,1.3009,1.2573,1.1958,1.2696,1.2512,1.195,1.2757,1.307,1.2948,0.0,0.0,0.0,0.0,0.0,0.0,0.0,0.0,0.0,0.0,0.0,0.0,-3.576,-3.5724,-3.5682,-3.5666,-3.5608,-3.5565,-3.5545,-3.5461,-3.5256,-3.4891,-3.4868,-3.4697,-3.4333,-3.4105,-3.388,-3.3698,0.0,0.0,0.0,0.0,0.0,-3.1188,-3.0268,-2.9446,-2.8749,-2.8623,-2.8652,-2.8854,-2.9431,-2.9884,-3.024,-3.0313,-3.0214,-2.9979,-2.9638,-2.9311,-2.8961,-2.8619,-2.8443,-2.8384,-2.8411,-2.8046,-2.7395,-2.651,-2.3706,-1.9188,-1.1374,0.0,0.0,0.0,0.0,0.0,2.1951,2.4769,2.6163,2.6691,2.6748,2.7163,2.8676,2.8935,2.8896,2.8722,2.9263,2.97,2.9692,3.0381,3.0787,3.0451,2.9945,2.942,2.8959,2.7933,2.7091,2.6521,2.5196,2.4265,2.3869,2.255,2.1054,1.9428,1.8988,1.8324,1.7302,1.6327,1.6099,1.6666,1.5881,1.5661,1.5843,1.5603,1.5381,1.505,1.4805,1.4746,1.4628,1.3485,1.3183,1.3476,1.3122,1.2887,1.2757,1.3545,1.3855,1.3846,0.0,0.0,0.0,0.0,0.0,0.0,0.0,0.0,0.0,0.0,0.0,0.0,-3.582,-3.5823,-3.5814,-3.5795,-3.5775,-3.5768,-3.569,-3.5695,-3.5608,-3.5426,-3.5377,-3.5287,-3.5115,-3.4724,-3.451,-3.4499,0.0,0.0,0.0,0.0,0.0,0.0,-3.032,-2.9725,-2.9272,-2.904,-2.9028,-2.9217,-2.9642,-3.0011,-3.0314,-3.0269,-3.0017,-2.9644,-2.9129,-2.8772,-2.8439,-2.7666,-2.735,-2.7288,-2.7273,-2.7152,-2.7068,-2.7212,-2.5513,-2.1995,-1.4827,-1.2547,-0.9277,0.2821,0.0,0.0,1.6611,2.1252,2.4733,2.682,2.7255,2.7662,2.8927,2.9274,2.9409,2.9528,2.9585,2.9666,2.9772,3.035,3.0665,3.0358,3.0075,2.9626,2.8925,2.8384,2.7751,2.6899,2.6164,2.5347,2.4471,2.3535,2.2395,2.0997,2.0654,1.9978,1.8871,1.8174,1.7915,1.8012,1.7291,1.6978,1.6978,1.6978,1.6698,1.6301,1.5968,1.5864,1.5748,1.4501,1.4085,1.4213,1.4025,1.3786,1.3606,1.4392,1.4688,1.4628,0.0,0.0,0.0,0.0,0.0,0.0,0.0,0.0,0.0,0.0,0.0,-3.5752,-3.5953,-3.5975,-3.5936,-3.5878,-3.5879,-3.582,-3.5703,-3.5702,-3.5702,-3.5682,-3.5638,-3.5623,-3.5677,-3.4862,-3.4703,-3.5251,0.0,0.0,0.0,0.0,0.0,0.0,0.0,-2.9695,-2.9712,-2.9712,-2.972,-2.976,-2.9786,-3.0088,-3.0463,-3.0309,-2.9959,-2.9506,-2.8616,-2.8256,-2.7943,-2.6482,-2.5946,-2.5879,-2.5782,-2.5779,-2.5884,-2.6407,-2.658,-2.4484,-1.4764,-1.5295,-1.5999,-0.5389,-0.165,0.0,0.7432,1.451,2.1197,2.6404,2.7913,2.844,2.896,2.9357,2.9683,2.9964,2.9588,2.9397,2.9732,3.0135,3.0298,3.0018,3.0042,2.9719,2.8792,2.8769,2.837,2.7282,2.6672,2.5812,2.4536,2.3971,2.3419,2.2891,2.2225,2.1547,2.0793,2.0066,1.9428,1.8859,1.8078,1.7743,1.7743,1.7743,1.7688,1.7578,1.6821,1.6492,1.6436,1.569,1.4991,1.4392,1.5108,1.4932,1.4451,1.5108,1.541,1.5294,-3.1891,0.0,0.0,0.0,0.0,0.0,0.0,0.0,0.0,0.0,-3.5599,-3.5666,-3.5741,-3.5752,-3.5749,-3.574,-3.5737,-3.5723,-3.5703,-3.5708,-3.5675,-3.5616,-3.5611,-3.5583,-3.5541,-3.5369,-3.5357,-3.5519,0.0,0.0,0.0,0.0,0.0,0.0,0.0,-2.9689,-2.9709,-2.9709,-2.9857,-3.0094,-2.999,-3.0154,-3.0377,-2.996,-2.976,-2.9579,-2.8694,-2.8187,-2.7771,-2.6426,-2.5711,-2.5368,-2.5335,-2.4948,-2.464,-2.5066,-2.4665,-2.3437,-2.0666,-2.0002,-1.784,-0.8527,-0.5108,0.0,0.7856,1.1826,1.5595,2.2815,2.4379,2.4986,2.6591,2.73,2.777,2.8156,2.8324,2.8737,2.9588,2.9383,2.904,2.8712,2.9082,2.9035,2.8166,2.8506,2.8214,2.6768,2.5917,2.5341,2.5067,2.4934,2.4554,2.3921,2.3402,2.2819,2.2161,2.0489,1.9927,2.0357,1.9073,1.8501,1.8501,1.8501,1.8167,1.7578,1.6821,1.6492,1.6436,1.569,1.5294,1.5167,1.5352,1.5294,1.5167,1.5352,1.541,1.5352,-3.1773,0.0,0.0,0.0,0.0,0.0,0.0,0.0,0.0,-3.5546,-3.5611,-3.5671,-3.5703,-3.5703,-3.5703,-3.5703,-3.5695,-3.5704,-3.571,-3.5697,-3.5688,-3.5649,-3.5494,-3.5463,-3.5611,-3.5435,-3.5217,-3.4941,0.0,0.0,0.0,0.0,0.0,0.0,0.0,-3.0093,-3.0042,-3.0062,-3.0148,-3.0292,-3.0077,-3.0175,-3.0386,-2.9898,-2.9476,-2.9052,-2.8388,-2.7644,-2.6824,-2.6138,-2.5589,-2.5114,-2.4548,-2.4149,-2.383,-2.3788,-2.3336,-2.269,-2.1708,-2.101,-1.9359,-1.4669,-1.2185,0.0,0.0,0.3714,0.8197,1.5983,1.8456,2.008,2.2808,2.4176,2.5059,2.5492,2.5775,2.6513,2.8094,2.868,2.8887,2.8724,2.9134,2.9082,2.8129,2.8494,2.8258,2.7012,2.6318,2.5872,2.5615,2.5615,2.5303,2.4737,2.4474,2.4066,2.343,2.2204,2.1655,2.1752,2.0408,1.9761,1.9761,1.9399,1.9044,1.8661,1.7907,1.7578,1.7523,1.68,1.6301,1.5921,1.5526,1.541,1.541,1.541,1.541,1.541,-3.2092,0.0,0.0,0.0,0.0,0.0,0.0,0.0,0.0,-3.5566,-3.563,-3.5663,-3.5663,-3.5663,-3.5657,-3.5669,-3.5668,-3.5641,-3.5597,-3.5584,-3.5561,-3.5522,-3.5249,-3.5245,-3.5571,-3.5265,-3.4847,-3.43,0.0,0.0,0.0,0.0,0.0,-3.0429,-3.0468,-3.0464,-3.0422,-3.0414,-3.0404,-3.0432,-3.0172,-3.0232,-3.0419,-2.9905,-2.9339,-2.8729,-2.8105,-2.6994,-2.5839,-2.5839,-2.5498,-2.4887,-2.4021,-2.3554,-2.3211,-2.2816,-2.238,-2.1813,-2.1022,-2.0461,-2.0102,-1.9863,-1.8421,-1.58,0.0,0.0,0.0,0.7084,1.068,1.3618,1.7666,1.9967,2.1326,2.1696,2.2656,2.3905,2.538,2.7022,2.8242,2.8699,2.9047,2.896,2.8214,2.8445,2.8304,2.747,2.7115,2.6757,2.6402,2.6368,2.6125,2.5603,2.5475,2.515,2.4552,2.3846,2.3216,2.2694,2.1513,2.0979,2.093,2.0295,2.0003,1.994,1.9097,1.8715,1.8661,1.7895,1.7257,1.6652,1.5921,1.5526,1.541,1.5584,1.5584,1.5584,-3.2092,-3.2484,0.0,0.0,0.0,0.0,0.0,0.0,0.0,-3.5488,-3.5509,-3.5522,-3.5522,-3.5522,-3.5522,-3.5528,-3.5509,-3.5432,-3.5185,-3.5166,-3.5044,-3.4832,-3.4793,-3.4897,-3.5146,-3.4906,-3.4617,-3.4302,0.0,0.0,0.0,0.0,0.0,-3.0487,-3.043,-3.0439,-3.0489,-3.0436,-3.0477,-3.056,-3.041,-3.0378,-3.0378,-2.9941,-2.9701,-2.9436,-2.8299,-2.6786,-2.5368,-2.582,-2.5326,-2.4461,-2.4365,-2.3526,-2.2637,-2.269,-2.1456,-2.0194,-2.0686,-1.9863,-1.9061,-1.9631,-1.8643,-1.7457,-1.7291,0.0,-1.1445,-0.3727,0.0,0.4449,1.0561,0.0,0.0,1.577,1.9335,2.1857,2.1076,2.2892,2.5106,2.7252,2.7519,2.7672,2.7918,2.7992,2.7964,2.784,2.7783,2.7736,2.7707,2.7678,2.7482,2.708,2.6605,2.5936,2.5144,2.4039,2.3216,2.2694,2.196,2.1615,2.1568,2.0979,2.0696,2.0597,1.9282,1.8715,1.8661,1.7895,1.7523,1.7413,1.6641,1.5979,1.5468,1.6151,1.6379,1.6379,-3.1737,-3.2298,0.0,0.0,0.0,0.0,0.0,0.0,-3.5207,-3.546,-3.5493,-3.5493,-3.5493,-3.5493,-3.5432,-3.5289,-3.528,-3.5139,-3.4889,-3.4869,-3.482,-3.4697,-3.4503,-3.4561,-3.487,-3.4101,-3.3525,-3.3081,-3.213,0.0,0.0,0.0,0.0,-3.0211,-3.0258,-3.0342,-3.0435,-3.0327,-3.0374,-3.054,-3.0408,-3.032,-3.0236,-2.9874,-2.9415,-2.8837,-2.7879,-2.7077,-2.6352,-2.5746,-2.5444,-2.5159,-2.4219,-2.3553,-2.301,-2.2768,-2.1589,-2.0446,-2.0696,-2.008,-1.9423,-1.9695,-1.898,-1.8309,-1.8534,-1.692,-1.4455,-1.1245,0.0,0.0,0.0,0.0,0.0,0.0,1.3059,1.5637,1.7738,1.9354,2.1674,2.5403,2.6626,2.7274,2.7525,2.725,2.7227,2.7542,2.7783,2.7897,2.7897,2.7897,2.7725,2.7317,2.7095,2.6539,2.5689,2.4863,2.422,2.3679,2.2741,2.23,2.2253,2.1629,2.1342,2.1293,2.0307,1.9914,1.9863,1.919,1.8608,1.8232,1.7895,1.7346,1.6687,1.7024,1.7146,1.7146,-3.1116,-3.188,-3.2517,-3.3105,0.0,0.0,0.0,-3.4735,-3.5286,-3.5465,-3.5504,-3.5493,-3.5493,-3.5432,-3.5304,-3.5122,-3.5039,-3.4868,-3.4572,-3.4544,-3.4447,-3.4134,-3.4081,-3.4043,-3.3913,-3.3239,-3.2571,-3.1883,0.0,0.0,0.0,0.0,0.0,0.0,-3.0095,-3.0219,-3.0346,-3.0274,-3.0325,-3.0404,-3.0267,-3.0121,-2.9939,-2.9712,-2.9095,-2.8324,-2.7689,-2.7299,-2.692,-2.5777,-2.5598,-2.5527,-2.405,-2.3404,-2.3127,-2.2606,-2.15,-2.0547,-2.0746,-2.0295,-1.9798,-1.9798,-1.9423,-1.898,-1.898,-1.7401,-1.5918,-1.5982,-1.4063,0.0,0.0,0.0,-0.095,0.3958,0.0,0.9185,1.3141,1.5182,1.8138,2.3282,2.5441,2.6591,2.6903,2.6768,2.6835,2.7269,2.7851,2.8147,2.8047,2.8147,2.802,2.7601,2.75,2.7049,2.6142,2.5672,2.5144,2.4632,2.3621,2.3172,2.3113,2.2331,2.1946,2.1946,2.1307,2.1028,2.1028,2.0346,1.9773,1.9242,1.9085,1.8661,1.8178,1.7961,1.7895,1.7895,-3.0208,-3.1133,-3.2127,-3.3045,-3.3123,-3.3193,-3.3722,-3.4773,-3.5484,-3.5484,-3.5507,-3.5493,-3.5493,-3.5273,-3.5105,-3.5105,-3.4865,-3.4583,-3.424,-3.4234,-3.3758,-3.2711,-3.3401,-3.3216,-3.1915,-3.2373,-3.2103,-3.1033,-3.0748,0.0,0.0,0.0,0.0,0.0,-3.0009,-3.0081,-3.0213,-3.0346,-3.0316,-3.0186,-3.0056,-2.9774,-2.9435,-2.9414,-2.8993,-2.835,-2.7992,-2.7309,-2.6455,-2.6087,-2.5652,-2.5035,-2.3872,-2.304,-2.2417,-2.1904,-2.0855,-1.9952,-2.0597,-2.0295,-1.9798,-1.9798,-1.9798,-1.9747,-1.9747,-1.8596,-1.7512,-1.7523,-1.5081,-1.2668,-1.2066,-1.0077,-0.7347,-0.3753,0.0129,0.0,0.0,0.997,1.4648,2.0849,2.3519,2.5161,2.597,2.6673,2.713,2.7286,2.8316,2.8773,2.8394,2.8749,2.8773,2.8394,2.8047,2.7447,2.6505,2.616,2.5705,2.5182,2.4617,2.4348,2.4307,2.3157,2.2649,2.2649,2.1946,2.1649,2.1602,2.1028,2.0746,2.0646,2.0003,1.9747,1.9631,1.8927,1.8661,1.8661,-2.9585,-3.0178,-3.1074,-3.2482,-3.2893,-3.3164,-3.3722,-3.4136,-3.4651,-3.54,-3.5267,-3.5114,-3.5114,-3.4945,-3.4754,-3.4513,-3.393,-3.345,-3.3161,-3.3143,-3.2637,-3.1516,-3.2458,-3.2305,-3.083,-3.0666,-3.0451,-3.0068,-2.9239,0.0,0.0,0.0,0.0,0.0,-2.9607,-2.9695,-2.9867,-2.9827,-2.9863,-2.992,-2.9737,-2.9574,-2.9412,-2.9412,-2.9141,-2.8725,-2.812,-2.7689,-2.7247,-2.5914,-2.5577,-2.5486,-2.4002,-2.3649,-2.3561,-2.2651,-2.1758,-2.1037,-2.0832,-1.9965,-1.9202,-1.9695,-1.9423,-1.9202,-1.9695,-1.9044,-1.8167,-1.7688,-1.5914,-1.4114,-1.2931,-1.1176,-0.9273,-0.7302,-0.4129,-0.0522,0.0,0.8068,1.265,1.6735,2.045,2.3207,2.4458,2.5598,2.6524,2.7245,2.8101,2.8546,2.8415,2.8777,2.8819,2.8421,2.8281,2.7852,2.7046,2.6556,2.6127,2.5726,2.5182,2.4736,2.4389,2.4002,2.3636,2.3275,2.262,2.2346,2.2253,2.1224,2.1028,2.1293,2.0232,2.0055,2.0396,1.9683,1.9423,1.9371,-2.9114,-2.9626,-3.0506,-3.2092,-3.288,-3.34,-3.3739,-3.3783,-3.406,-3.4811,-3.467,-3.443,-3.4166,-3.4085,-3.3824,-3.3384,-3.2785,-3.236,-3.2184,-3.2078,-3.1532,-3.0487,-3.13,-3.1039,-2.9479,-2.9438,-2.9286,-2.8999,-2.8269,-2.8147,0.0,0.0,0.0,0.0,-2.9332,-2.9455,-2.9588,-2.9584,-2.9597,-2.9647,-2.958,-2.9458,-2.9267,-2.9372,-2.9289,-2.9026,-2.8183,-2.7897,-2.7613,-2.5826,-2.5411,-2.5449,-2.3806,-2.3362,-2.323,-2.2285,-2.1534,-2.0953,-2.0534,-1.9773,-1.9202,-1.9695,-1.9254,-1.8874,-1.9631,-1.8821,-1.7841,-1.7633,-1.6373,-1.4876,-1.3304,-1.212,-1.0752,-0.884,-0.662,-0.3224,0.0,0.6286,0.9907,1.3057,1.7603,2.1246,2.3171,2.4623,2.5832,2.6784,2.7718,2.8209,2.82,2.8578,2.8769,2.875,2.8526,2.8221,2.7837,2.7282,2.6808,2.6447,2.5908,2.5438,2.495,2.4776,2.4389,2.3864,2.3463,2.3216,2.292,2.1894,2.169,2.1946,2.0904,2.0633,2.0696,2.0055,1.9798,1.9747,-2.8772,-2.9502,-3.0468,-3.1817,-3.3037,-3.3807,-3.3808,-3.3808,-3.3817,-3.3817,-3.3802,-3.3558,-3.292,-3.2748,-3.2426,-3.1797,-3.1505,-3.1336,-3.1311,-3.1011,-3.0436,-2.952,-2.9982,-2.9474,-2.787,-2.8614,-2.8652,-2.7869,-2.784,-2.7869,0.0,0.0,0.0,0.0,-2.9172,-2.9353,-2.9373,-2.9589,-2.9551,-2.9412,-2.9589,-2.9416,-2.9062,-2.9289,-2.9392,-2.923,-2.8246,-2.7897,-2.7601,-2.579,-2.5221,-2.4934,-2.3274,-2.23,-2.1615,-2.1028,-2.0346,-1.985,-1.9798,-1.9747,-1.9747,-1.9747,-1.9202,-1.8821,-1.9527,-1.8058,-1.6708,-1.7357,-1.6348,-1.4864,-1.3243,-1.2948,-1.1873,-0.8597,-0.7488,-0.462,0.2275,0.4428,0.651,0.9844,1.4967,1.9294,2.1991,2.3736,2.5056,2.5933,2.7157,2.7858,2.7922,2.8261,2.8732,2.937,2.8782,2.8576,2.8787,2.8217,2.7709,2.7317,2.6792,2.637,2.5997,2.547,2.4918,2.4389,2.4389,2.4116,2.3551,2.2965,2.2694,2.2694,2.1946,2.1342,2.0746,2.0055,1.9798,1.9798,-2.8574,-2.9915,-3.1015,-3.1362,-3.274,-3.3791,-3.3789,-3.3798,-3.3795,-3.3795,-3.3814,-3.3743,-3.3557,-3.212,-3.1109,-3.0925,-3.0656,-3.038,-3.008,-2.9989,-2.9313,-2.7958,-2.8863,-2.8662,-2.7046,-2.7496,-2.7652,-2.7439,-2.7147,-2.7317,-2.7897,0.0,0.0,0.0,-2.8603,-2.8808,-2.9112,-2.916,-2.916,-2.9112,-2.916,-2.9246,-2.9289,-2.9156,-2.9056,-2.8856,-2.8148,-2.7707,-2.7238,-2.5697,-2.5221,-2.4989,-2.3779,-2.2965,-2.23,-2.1663,-2.1015,-2.0446,-1.9952,-1.9423,-1.898,-1.898,-1.8447,-1.7961,-1.8112,-1.7743,-1.7069,-1.6115,-1.5601,-1.4681,-1.2496,-1.2143,-1.1392,-0.932,-0.7228,-0.4581,-0.0932,0.2136,0.4656,0.6463,1.1192,1.5759,1.9559,2.1805,2.3864,2.5848,2.6805,2.7493,2.79,2.8702,2.92,2.9389,2.9229,2.902,2.881,2.8464,2.8094,2.7742,2.7291,2.6826,2.637,2.5962,2.5281,2.4389,2.4389,2.4116,2.3551,2.2965,2.2965,2.3275,2.2132,2.1615,2.1328,2.0232,1.9798,1.985,-2.7975,-2.9842,-3.1182,-3.1213,-3.0924,-3.072,-3.0716,-3.1258,-3.1692,-3.17,-3.1693,-3.1691,-3.1704,-3.0626,-2.9893,-2.9905,-2.957,-2.9243,-2.9071,-2.8754,-2.8211,-2.7341,-2.7774,-2.7636,-2.6742,-2.6903,-2.7031,-2.7019,-2.6808,-2.6939,-2.7378,0.0,0.0,0.0,-2.8246,-2.854,-2.8749,-2.8929,-2.8994,-2.8994,-2.8994,-2.9089,0.0,-2.8868,-2.8597,-2.8348,-2.7833,-2.747,-2.708,-2.5677,-2.5221,-2.5012,-2.3948,-2.2995,-2.2193,-2.1805,-2.1051,-2.0308,-1.9901,-1.9475,-1.9097,-1.8768,-1.8167,-1.7578,-1.7578,-1.7079,-1.6384,-1.5476,-1.5032,-1.4218,-1.2189,-1.1834,-1.1142,-0.9064,-0.6837,-0.4524,-0.2131,0.08,0.3398,0.5222,0.8846,1.2696,1.6402,1.9917,2.2742,2.4589,2.6042,2.7139,2.7859,2.8594,2.9148,2.9513,2.945,2.9342,2.9187,2.8957,2.8603,2.8136,2.7901,2.7448,2.6826,2.6657,2.6025,2.5088,2.4839,2.4457,2.3921,2.3319,2.3275,2.3508,2.2515,2.2146,2.2007,2.0988,2.0607,2.0657,-2.7265,-2.9524,-3.1174,-3.121,-2.8494,-2.6368,-2.6667,-2.7844,-2.8745,-2.8834,-2.8927,-2.9014,-2.8998,-2.8998,-2.8986,-2.9009,-2.8522,-2.8226,-2.829,-2.7677,-2.729,-2.7216,-2.6882,-2.6691,-2.6691,-2.6623,-2.6623,-2.6691,-2.6624,-2.6624,0.0,0.0,0.0,-2.7238,-2.7929,-2.829,-2.8368,-2.87,-2.8858,-2.8858,-2.8858,-2.8858,-2.8815,-2.8464,-2.8129,-2.7783,-2.7426,-2.7224,-2.692,-2.564,-2.5128,-2.4934,-2.3921,-2.2741,-2.1697,-2.1697,-2.0805,-1.9798,-1.9798,-1.9747,-1.9475,-1.8715,-1.8015,-1.7413,-1.7346,-1.6301,-1.5332,-1.5032,-1.4464,-1.3537,-1.1958,-1.1524,-1.0696,-0.8409,-0.6645,-0.486,-0.2599,-0.0266,0.2265,0.509,0.7377,0.0,1.2923,1.7874,2.1462,2.292,2.5056,2.6718,2.7669,2.8187,2.8814,2.9601,2.95,2.954,2.9749,2.9499,2.9108,2.8526,2.8429,2.8048,2.7375,2.7316,2.6809,2.595,2.5497,2.4981,2.4369,2.3894,2.3681,2.3551,2.2934,2.2754,2.274,2.2053,2.1899,2.1932,-2.7317,-2.9556,-3.1199,-3.1179,-2.7301,-2.4735,-2.645,-2.694,-2.735,-2.8006,-2.8607,-2.9007,-2.8989,-2.8989,-2.9016,-2.898,-2.8513,-2.8039,-2.7682,-2.7444,-2.7158,-2.6821,-2.6724,-2.6691,-2.6691,-2.6313,-2.6313,-2.6691,-2.6297,-2.612,0.0,0.0,-2.6757,-2.6655,-2.7234,-2.7678,-2.7992,-2.8065,-2.8093,-2.8093,-2.8093,-2.8093,-2.8093,-2.7992,-2.7736,-2.7396,-2.7334,-2.6839,-2.6123,-2.5449,-2.491,-2.443,-2.3794,-2.2741,-2.1697,-2.1697,-2.0805,-1.9798,-1.9798,-1.9371,-1.8715,-1.7961,-1.7246,-1.6539,-1.5911,-1.5575,-1.505,-1.3657,-1.3304,-1.2704,-1.1115,-1.0225,-0.9384,-0.8221,-0.7335,-0.63,-0.4976,-0.3147,-0.0067,0.484,0.5778,0.7125,0.9736,1.4904,1.9347,2.2309,2.4132,2.5565,2.6693,2.7999,2.8883,2.9212,2.9502,2.973,2.995,2.9565,2.9333,2.92,2.8677,2.8184,2.7789,2.7438,2.6809,2.6,2.5897,2.5309,2.4387,2.4307,2.3991,2.3551,2.2934,2.3009,2.3377,2.2725,2.286,2.3216,-2.5636,-2.6476,-2.7598,-2.8679,-2.6405,-2.4594,-2.5008,-2.5796,-2.6646,-2.7474,-2.8094,-2.8426,-2.8426,-2.805,-2.7826,-2.7826,-2.7572,-2.7447,-2.7504,-2.7166,-2.6906,-2.6725,-2.6455,-2.632,-2.632,-2.5857,-2.5709,-2.5928,-2.5717,-2.5575,-2.5615,-2.6104,-2.6298,-2.6266,-2.6706,-2.7265,-2.7897,-2.7607,-2.7654,-2.7897,-2.7897,-2.7897,-2.7869,-2.7648,-2.747,-2.7255,-2.7051,-2.6386,-2.554,-2.5297,-2.4816,-2.4266,-2.3391,-2.2469,-2.1663,-2.1342,-2.057,-1.9695,-1.9307,-1.898,-1.8447,-1.7302,-1.6765,-1.6322,-1.5584,-1.541,-1.4932,-1.3304,-1.3009,-1.252,-1.0933,-1.0238,-0.9524,-0.8221,-0.7787,-0.6741,-0.4359,-0.3011,-0.1001,0.221,0.4278,0.5851,0.7108,1.1538,1.5975,1.9878,2.2429,2.4457,2.5964,2.7243,2.8219,2.8915,2.9238,2.9548,2.9848,2.9661,2.9494,2.9389,2.8938,2.8526,2.814,2.7779,2.725,2.6657,2.6185,2.5702,2.5182,2.4616,2.4073,2.3551,2.329,2.3319,2.3551,2.3275,2.3334,2.3551,-2.356,-2.3421,-2.4101,-2.5778,-2.539,-2.4585,-2.3725,-2.4756,-2.5999,-2.6888,-2.7378,-2.7648,-2.7648,-2.7075,-2.669,-2.669,-2.6692,-2.6891,-2.7313,-2.6808,-2.6522,-2.6539,-2.61,-2.583,-2.5811,-2.5283,-2.5077,-2.5213,-2.5108,-2.5048,-2.5028,-2.5577,-2.5852,-2.5852,-2.611,-2.6622,-2.7309,-2.6879,-2.696,-2.7326,-2.7326,-2.7326,-2.7296,-2.6982,-2.6871,-2.6805,-2.6505,-2.5819,-2.5012,-2.4879,-2.4576,-2.4059,-2.3039,-2.2253,-2.1568,-2.0979,-2.0359,-1.9643,-1.8874,-1.8608,-1.8167,-1.681,-1.6368,-1.6093,-1.5342,-1.5108,-1.4688,-1.3061,-1.2642,-1.2027,-1.0611,-1.0168,-0.9518,-0.7962,-0.7572,-0.6453,-0.368,-0.2204,-0.1068,-0.0134,0.2865,0.4976,0.538,0.8849,1.2724,1.6667,2.0167,2.2954,2.4818,2.6184,2.7373,2.8464,2.8932,2.9358,2.9771,2.9733,2.9611,2.9467,2.92,2.8847,2.8388,2.8134,2.7747,2.725,2.6556,2.6169,2.5915,2.4851,2.4141,2.3786,2.3625,2.3595,2.3595,2.3595,2.3595,2.3595,-2.1695,-2.2802,-2.3656,-2.3846,-2.3797,-2.372,-2.3616,-2.4139,-2.4934,-2.598,-2.6522,-2.6808,-2.6808,-2.674,-2.6707,-2.6707,-2.669,-2.6724,-2.6758,-2.618,-2.5865,-2.6068,-2.557,-2.5264,-2.5271,-2.4729,-2.4725,-2.5213,-2.4686,-2.4476,-2.4511,-2.5012,-2.5259,-2.5297,-2.5319,-2.5379,-2.5454,-2.5416,-2.5416,-2.5454,-2.5454,-2.5454,-2.5454,-2.5416,-2.5395,-2.5395,-2.5357,-2.4973,-2.4374,-2.383,-2.3664,-2.3551,-2.292,-2.2253,-2.1568,-2.0979,-2.0359,-1.9643,-1.8874,-1.8221,-1.7523,-1.6708,-1.5979,-1.5284,-1.451,-1.4323,-1.3837,-1.2258,-1.1351,-1.0548,-0.9594,-0.8742,-0.7957,-0.6981,-0.6152,-0.5512,-0.5186,-0.2278,-0.0134,-0.0,0.1738,0.3604,0.5252,0.7816,1.05,1.3078,1.7158,2.0457,2.2581,2.4899,2.6589,2.7514,2.8717,2.957,2.9963,2.979,2.9703,2.9674,2.9467,2.9012,2.8393,2.8372,2.7966,2.7317,2.7216,2.6708,2.5915,2.4851,2.4364,2.426,2.3801,2.3595,2.3595,2.3595,2.3595,2.3595,-2.0439,-2.0989,-2.1337,-2.1296,-2.22,-2.2893,-2.2873,-2.3732,-2.4552,-2.4973,-2.5999,-2.6703,-2.6703,-2.6708,-2.6708,-2.6686,-2.6703,-2.6681,-2.67,-2.5889,-2.5336,-2.5217,-2.4882,-2.4546,-2.4207,-2.3644,-2.3286,-2.3096,-2.3286,-2.34,-2.3378,-2.3921,-2.4117,-2.404,-2.3709,-2.3751,-2.4081,-2.4133,-2.4337,-2.4642,-2.5035,-2.5221,-2.5221,-2.5221,-2.4941,-2.4602,-2.4602,-2.4004,-2.3199,-2.2981,-2.2966,-2.2875,-2.1894,-2.1369,-2.0966,-1.9851,-1.9347,-1.8874,-1.7688,-1.7146,-1.6754,-1.6036,-1.5274,-1.4628,-1.4264,-1.3855,-1.3183,-1.2012,-1.0717,-0.9722,-0.9338,-0.8613,-0.7702,-0.685,-0.64,-0.6024,-0.5459,-0.3218,-0.1205,-0.0134,0.0671,0.2207,0.5096,0.6354,0.7977,1.0428,1.4857,1.8709,2.1629,2.3133,2.4909,2.7136,2.787,2.8658,2.9626,2.9565,2.9518,2.9512,2.9291,2.9012,2.875,2.8301,2.7692,2.6945,2.6945,2.6573,2.5933,2.5196,2.4689,2.4349,2.3816,2.3595,2.3595,2.3595,2.3595,2.3595,-1.9428,-1.9674,-1.9778,-1.9799,-2.1043,-2.203,-2.2024,-2.2937,-2.3676,-2.3876,-2.4973,-2.5886,-2.6217,-2.617,-2.6274,-2.668,-2.6422,-2.6122,-2.5815,-2.5098,-2.4697,-2.4681,-2.4122,-2.364,-2.3259,-2.2715,-2.2146,-2.1725,-2.2152,-2.2433,-2.241,-2.279,-2.2907,-2.2805,-2.2403,-2.2493,-2.2849,-2.2907,-2.3171,-2.3513,-2.3978,-2.4174,-2.4174,-2.4174,-2.3895,-2.3456,-2.3456,-2.2952,-2.2221,-2.1868,-2.1717,-2.1448,-2.0554,-2.0156,-1.9793,-1.8534,-1.8225,-1.794,-1.6834,-1.6358,-1.5948,-1.5216,-1.4451,-1.3786,-1.3537,-1.3053,-1.2328,-1.1267,-1.0148,-0.9139,-0.8613,-0.8027,-0.7307,-0.6461,-0.6334,-0.6086,-0.5459,-0.4303,-0.2619,-0.0269,-0.0,0.1205,0.4303,0.508,0.6379,0.8613,1.2405,1.6257,2.0015,2.1531,2.353,2.6347,2.7015,2.7944,2.92,2.9211,2.9281,2.9395,2.9202,2.909,2.8975,2.8254,2.7513,2.686,2.6759,2.6522,2.6152,2.5481,2.4965,2.4572,2.3889,2.3595,2.3595,2.3595,2.3595,2.3595,-1.859,-1.9312,-1.9825,-1.9795,-2.0548,-2.1118,-2.1131,-2.1478,-2.1946,-2.2634,-2.3216,-2.3956,-2.5105,-2.4898,-2.5253,-2.658,-2.5799,-2.4764,-2.37,-2.3628,-2.3933,-2.4683,-2.3245,-2.2486,-2.2686,-2.2035,-2.1697,-2.1697,-2.169,-2.1731,-2.1731,-2.1694,-2.1744,-2.1744,-2.1697,-2.1697,-2.1744,-2.1697,-2.1744,-2.1744,-2.1744,-2.1744,-2.1744,-2.1744,-2.1744,-2.1744,-2.1744,-2.1744,-2.1519,-2.0408,-1.9564,-1.9029,-1.9041,-1.8662,-1.8097,-1.7277,-1.7033,-1.6922,-1.6581,-1.5918,-1.5139,-1.4373,-1.3614,-1.2826,-1.202,-1.1834,-1.1329,-0.9646,-0.9338,-0.8748,-0.7046,-0.6719,-0.6461,-0.5557,-0.5439,-0.5382,-0.5393,-0.5406,-0.4048,-0.0404,-0.0,0.0736,0.2544,0.4334,0.6106,0.7777,0.9551,1.2599,1.7201,2.0351,2.2861,2.4762,2.632,2.7643,2.8787,2.881,2.8998,2.9393,2.9412,2.926,2.897,2.822,2.7691,2.725,2.686,2.6691,2.6623,2.5615,2.5185,2.5093,2.4023,2.3595,2.3595,2.3595,2.3595,2.3595,-1.8466,-1.8905,-1.9194,-1.9699,-2.0395,-2.0908,-2.0899,-2.1335,-2.1805,-2.1993,-2.2165,-2.2412,-2.2789,-2.3948,-2.4862,-2.5306,-2.4585,-2.3968,-2.3629,-2.3623,-2.3334,-2.2673,-2.2483,-2.2072,-2.1411,-2.122,-2.0836,-2.0421,-2.0874,-2.1112,-2.1069,-2.1089,-2.0851,-2.0421,-2.0421,-2.0156,-1.9659,-2.0155,-2.0356,-2.0356,-2.0811,-2.126,-2.1697,-2.1697,-2.1424,-2.1015,-2.0531,-1.9874,-1.9096,-1.8232,-1.7343,-1.6559,-1.6147,-1.6443,-1.6726,-1.5477,-1.5101,-1.4867,-1.3784,-1.3468,-1.3383,-1.3167,-1.2639,-1.195,-1.1121,-1.0053,-0.9046,-0.8544,-0.7962,-0.7372,-0.6785,-0.6203,-0.5756,-0.5439,-0.5376,-0.5386,-0.5403,-0.541,-0.4048,-0.0404,-0.0,0.0201,0.0803,0.3616,0.562,0.6171,0.8297,1.1396,1.5537,1.7254,1.9779,2.3375,2.4337,2.5691,2.7622,2.8016,2.8242,2.8393,2.8386,2.819,2.7843,2.7897,2.7521,2.6894,2.6775,2.6691,2.664,2.5615,2.5185,2.5093,2.4023,2.3595,2.3595,2.3595,2.3595,2.3595,-1.7644,-1.7863,-1.8167,-1.9202,-1.9722,-2.0118,-2.0396,-2.0769,-2.1086,-2.1342,-2.1342,-2.1424,-2.1663,-2.2805,-2.364,-2.3816,-2.3419,-2.326,-2.357,-2.361,-2.2847,-2.1057,-2.1267,-2.1259,-2.0904,-2.0584,-2.0088,-1.9379,-1.9531,-1.9585,-1.9609,-1.9586,-1.938,-1.8948,-1.8955,-1.8715,-1.8328,-1.8732,-1.8931,-1.8919,-1.9339,-1.9737,-2.0167,-2.0167,-1.9953,-1.9505,-1.8922,-1.8255,-1.7524,-1.6445,-1.5498,-1.4644,-1.3768,-1.3851,-1.4216,-1.3717,-1.3389,-1.3046,-1.2321,-1.2036,-1.1887,-1.1705,-1.1112,-1.0492,-0.9711,-0.872,-0.7897,-0.7567,-0.7111,-0.6593,-0.6272,-0.5756,-0.5372,-0.5382,-0.5389,-0.5396,-0.541,-0.4252,-0.256,-0.027,-0.0,-0.0,-0.0,0.2681,0.4697,0.5348,0.7149,0.9479,1.2195,1.4865,1.7787,2.1015,2.2461,2.4048,2.5799,2.6696,2.7263,2.7602,2.7788,2.7698,2.7317,2.7552,2.7334,2.6691,2.6691,2.6691,2.6624,2.5607,2.5198,2.5093,2.4023,2.3595,2.3595,2.3595,2.3595,2.3595,-1.6321,-1.6486,-1.6922,-1.8394,-1.8608,-1.8886,-1.9527,-1.9643,-1.9888,-2.0497,-2.0584,-2.0769,-2.1349,-2.1445,-2.1575,-2.2034,-2.2192,-2.2644,-2.3374,-2.3388,-2.2267,-1.9877,-1.9814,-2.015,-2.0964,-2.0169,-1.9339,-1.8614,-1.796,-1.7636,-1.7624,-1.7577,-1.7605,-1.7594,-1.7588,-1.7589,-1.7523,-1.7523,-1.7523,-1.7523,-1.7523,-1.7578,-1.7567,-1.7512,-1.749,-1.74,-1.6955,-1.6755,-1.6439,-1.485,-1.3901,-1.3181,-1.1968,-1.1132,-1.0879,-1.1982,-1.1869,-1.1452,-1.1699,-1.1248,-1.0587,-0.9979,-0.9242,-0.8556,-0.804,-0.7902,-0.7572,-0.6789,-0.6593,-0.6338,-0.5575,-0.5309,-0.5246,-0.5396,-0.5406,-0.5343,-0.5071,-0.2155,-0.0,-0.0,-0.0,-0.0,-0.0,0.1539,0.3282,0.5243,0.6145,0.6976,0.7757,1.294,1.6499,1.7759,2.0548,2.2514,2.3531,2.4909,2.6084,2.7046,2.7538,2.7623,2.725,2.73,2.708,2.6691,2.6691,2.6691,2.6607,2.5619,2.5186,2.5093,2.4023,2.3595,2.3595,2.3595,2.3595,2.3595,-1.6224,-1.6472,-1.6821,-1.7688,-1.7841,-1.7907,-1.8112,-1.8112,-1.8167,-1.8317,-1.837,-1.8412,-1.8549,-1.8549,-1.8614,-1.8715,-2.0377,-2.1505,-2.1697,-2.1054,-2.042,-1.9853,-1.9787,-1.9889,-2.008,-1.9216,-1.8448,-1.7855,-1.8261,-1.8171,-1.7597,-1.7617,-1.7586,-1.759,-1.7567,-1.7311,-1.6765,-1.6765,-1.6765,-1.6765,-1.6765,-1.709,-1.7512,-1.6914,-1.6556,-1.6213,-1.4954,-1.4131,-1.3497,-1.2532,-1.1868,-1.131,-1.0477,-0.9746,-0.937,-1.0208,-1.0343,-0.9993,-0.9005,-0.8809,-0.8658,-0.7971,-0.7511,-0.7283,-0.7307,-0.6634,-0.5977,-0.5782,-0.5715,-0.5649,-0.5456,-0.4298,-0.3758,-0.5202,-0.541,-0.4456,-0.1683,-0.0539,-0.0,-0.0,-0.0,-0.0,-0.0,0.0403,0.1941,0.5186,0.5609,0.6106,0.6963,1.011,1.2732,1.4674,1.7045,1.9397,2.1709,2.3061,2.4592,2.627,2.6657,2.6826,2.6843,2.7182,2.708,2.6691,2.6691,2.6691,2.6607,2.5602,2.5203,2.5093,2.4023,2.3595,2.3595,2.3595,2.3595,2.3595,-1.5264,-1.5738,-1.6255,-1.6978,-1.709,-1.7191,-1.7523,-1.7578,-1.7578,-1.7578,-1.7578,-1.7578,-1.7578,-1.7578,-1.7578,-1.7578,-1.877,-1.9623,-1.9826,-1.9403,-1.9374,-1.9756,-1.9133,-1.8768,-1.8768,-1.8548,-1.7959,-1.7126,-1.7188,-1.6774,-1.6045,-1.6045,-1.5846,-1.5491,-1.5491,-1.5282,-1.4877,-1.4877,-1.4906,-1.4895,-1.4895,-1.5168,-1.5438,-1.5013,-1.4687,-1.4296,-1.3226,-1.2327,-1.1477,-1.0551,-0.9806,-0.9231,-0.8502,-0.8041,-0.7794,-0.8224,-0.8336,-0.8178,-0.7391,-0.7334,-0.7295,-0.6662,-0.6246,-0.6065,-0.6165,-0.512,-0.4164,-0.4164,-0.4164,-0.4436,-0.5266,-0.4582,-0.3699,-0.3032,-0.2965,-0.2223,-0.027,-0.0,-0.0,-0.0,-0.0,-0.0,-0.0,-0.0,0.1138,0.3966,0.4957,0.5609,0.6063,0.8197,1.0225,1.2163,1.5139,1.7581,1.9384,2.1988,2.3804,2.4862,2.5808,2.6184,2.6016,2.6482,2.6587,2.6367,2.6123,2.628,2.6607,2.5341,2.4982,2.5108,2.4016,2.3595,2.3595,2.3595,2.3595,2.3595,-1.4025,-1.4569,-1.5225,-1.5843,-1.5958,-1.6177,-1.6824,-1.7002,-1.7069,-1.7069,-1.718,-1.7246,-1.7246,-1.718,-1.7069,-1.7069,-1.7002,-1.7224,-1.8045,-1.8111,-1.8481,-1.9452,-1.8269,-1.7512,-1.7269,-1.7677,-1.7274,-1.5996,-1.5455,-1.48,-1.4041,-1.4024,-1.3635,-1.2983,-1.2983,-1.2991,-1.2997,-1.3014,-1.3011,-1.3025,-1.3009,-1.294,-1.281,-1.2687,-1.2378,-1.1919,-1.1365,-1.0597,-0.9685,-0.8705,-0.7988,-0.7351,-0.6691,-0.6485,-0.6485,-0.6322,-0.6268,-0.6322,-0.6431,-0.6376,-0.6151,-0.5734,-0.5306,-0.5034,-0.5145,-0.3668,-0.2265,-0.2275,-0.2278,-0.275,-0.4317,-0.4593,-0.3574,-0.0472,-0.0,-0.0,-0.0,-0.0,-0.0,-0.0,-0.0,-0.0,-0.0,-0.0,0.0737,0.2551,0.4375,0.5386,0.5428,0.6946,0.8521,1.0066,1.3832,1.6382,1.7546,2.1307,2.3303,2.3535,2.5035,2.5557,2.5221,2.5689,2.5888,2.5852,2.5411,2.5672,2.635,2.4957,2.4672,2.4973,2.3991,2.3595,2.3595,2.3595,2.3595,2.3595,-1.3061,-1.3312,-1.3425,-1.3537,-1.3537,-1.3597,-1.3708,-1.4305,-1.4718,-1.4718,-1.5323,-1.5748,-1.5748,-1.5138,-1.4718,-1.4718,-1.4127,-1.4573,-1.6578,-1.6701,-1.7086,-1.7944,-1.7707,-1.7045,-1.578,-1.5743,-1.506,-1.3513,-1.4045,-1.3907,-1.3182,-1.3214,-1.3127,-1.2978,-1.2978,-1.2989,-1.2992,-1.2997,-1.2969,-1.2977,-1.2972,-1.2541,-1.182,-1.1162,-1.0134,-0.9066,-0.8282,-0.7643,-0.716,-0.6966,-0.6848,-0.6691,-0.6168,-0.6014,-0.5854,-0.5037,-0.482,-0.4982,-0.5795,-0.5419,-0.4804,-0.4731,-0.4637,-0.475,-0.5265,-0.2786,-0.0392,-0.0402,-0.0404,-0.0471,-0.0808,-0.0808,-0.0674,-0.0067,-0.0,-0.0,-0.0,-0.0,-0.0,-0.0,-0.0,-0.0,-0.0,-0.0,0.074,0.2552,0.4375,0.5386,0.5428,0.6324,0.7335,0.8328,1.1714,1.5109,1.8401,2.0718,2.2457,2.3492,2.4271,2.4847,2.5221,2.5297,2.5335,2.5335,2.5259,2.5297,2.5357,2.4712,2.4471,2.4471,2.3837,2.3595,2.3595,2.3595,2.3595,2.3595,-1.2266,-1.2696,-1.3009,-1.3009,-1.3009,-1.3009,-1.3009,-1.3666,-1.4025,-1.3606,-1.4264,-1.4569,-1.4145,-1.3786,-1.3545,-1.3545,-1.3183,-1.3278,-1.3877,-1.43,-1.4591,-1.4675,-1.4675,-1.4519,-1.4132,-1.3775,-1.3305,-1.2546,-1.3191,-1.3103,-1.2371,-1.232,-1.2089,-1.1714,-1.1714,-1.1711,-1.167,-1.122,-1.0982,-1.0954,-1.0508,-1.0097,-0.9629,-0.9182,-0.8531,-0.7784,-0.7327,-0.6751,-0.6223,-0.6223,-0.59,-0.5238,-0.3941,-0.3157,-0.2656,-0.222,-0.3236,-0.4262,-0.3051,-0.2386,-0.2065,-0.2095,-0.2078,-0.2125,-0.2433,-0.1195,-0.0,-0.0,-0.0,-0.0,-0.0,0.1616,0.2896,0.2896,0.2084,0.1141,0.0134,-0.0,-0.0,-0.0,0.1751,0.2896,0.2896,0.2016,0.2218,0.3986,0.4928,0.5386,0.5428,0.6254,0.7109,0.7977,1.164,1.5023,1.8045,1.9737,2.1254,2.2555,2.3125,2.3734,2.4348,2.4302,2.4465,2.4736,2.4471,2.4672,2.5144,2.4307,2.4158,2.4348,2.3794,2.3595,2.3595,2.3595,2.3595,2.3595,-1.1205,-1.1896,-1.2458,-1.2458,-1.2458,-1.2458,-1.2458,-1.3122,-1.3425,-1.2818,-1.3425,-1.3674,-1.307,-1.2826,-1.2704,-1.2704,-1.2581,-1.2212,-1.1593,-1.2089,-1.2251,-1.1874,-1.1813,-1.2028,-1.2458,-1.202,-1.1703,-1.1392,-1.1833,-1.1672,-1.0918,-1.0918,-1.0561,-0.999,-0.999,-0.999,-0.9926,-0.9268,-0.8981,-0.8944,-0.8247,-0.7907,-0.7757,-0.7598,-0.7191,-0.6744,-0.6606,-0.6126,-0.547,-0.478,-0.4064,-0.3183,-0.161,-0.0443,0.0443,0.0885,-0.061,-0.2062,-0.0444,0.0499,0.1054,0.1052,0.1074,0.104,0.1048,0.11,0.1021,0.0706,0.0659,0.0605,0.0605,0.2893,0.4928,0.5339,0.4236,0.2813,0.1473,0.087,0.0603,0.0605,0.3096,0.4928,0.5343,0.4169,0.3899,0.5295,0.541,0.5386,0.5428,0.6047,0.6995,0.827,1.1905,1.4895,1.7039,1.8678,2.0057,2.1254,2.1971,2.2606,2.3172,2.326,2.3462,2.3761,2.3651,2.3991,2.4561,2.3864,2.3837,2.4184,2.3752,2.3595,2.3595,2.3595,2.3595,2.3595,-0.946,-1.0168,-1.0807,-1.0807,-1.0807,-1.0807,-1.0807,-1.1476,-1.195,-1.1896,-1.2573,-1.307,-1.3009,-1.2328,-1.1888,-1.1888,-1.1233,-1.0744,-1.0681,-1.0744,-1.0744,-1.0737,-1.0737,-1.0744,-1.0807,-1.0744,-1.018,-0.9045,-0.9087,-0.882,-0.8249,-0.8249,-0.8249,-0.818,-0.818,-0.818,-0.818,-0.8122,-0.8125,-0.8118,-0.8043,-0.7686,-0.7152,-0.7144,-0.6258,-0.505,-0.5074,-0.4855,-0.4203,-0.1386,-0.0388,-0.0333,-0.0166,0.0554,0.1777,0.3635,0.4036,0.3299,0.0721,0.2058,0.415,0.415,0.416,0.4144,0.4155,0.436,0.4123,0.2752,0.2497,0.2477,0.2477,0.2744,0.342,0.5122,0.5259,0.5122,0.5052,0.3556,0.2476,0.2477,0.2744,0.3556,0.5259,0.5259,0.5259,0.5399,0.5396,0.5386,0.5428,0.5428,0.6584,0.9047,1.1691,1.3861,1.5438,1.7596,1.9055,1.9851,2.1164,2.1791,2.1838,2.2483,2.2438,2.1979,2.3113,2.3319,2.2905,2.3406,2.3638,2.3681,2.3595,2.3595,2.3595,2.3595,2.3595,2.3508,-0.8484,-0.8742,-0.9,-0.9,-0.9454,-0.9786,-0.9786,-1.0968,-1.1648,-1.1108,-1.1779,-1.2089,-1.1538,-1.1233,-1.085,-1.0275,-0.997,-0.9588,-0.9,-0.9,-0.9262,-0.9786,-0.9591,-0.9458,-0.9454,-0.8764,-0.8371,-0.8275,-0.8285,-0.7991,-0.7471,-0.781,-0.7994,-0.8002,-0.8002,-0.8213,-0.8424,-0.7727,-0.7649,-0.7893,-0.6809,-0.625,-0.5818,-0.3675,-0.2532,-0.2009,-0.1904,-0.1796,-0.1555,-0.0388,0.1222,0.2788,0.2783,0.3063,0.3514,0.4304,0.4477,0.4353,0.3597,0.3947,0.4484,0.4477,0.4802,0.5144,0.5094,0.5346,0.5451,0.5301,0.5664,0.6016,0.5982,0.5679,0.5627,0.6312,0.5844,0.5376,0.5382,0.4837,0.4361,0.437,0.4364,0.4634,0.5316,0.5379,0.5376,0.5376,0.5376,0.5369,0.5428,0.6394,0.747,0.8397,1.0912,1.3009,1.4519,1.5873,1.7147,1.8289,1.8847,1.9584,2.0351,2.0677,2.0873,2.1089,2.1997,2.2271,2.21,2.2317,2.2409,2.2409,2.2409,2.2409,2.2409,2.2409,2.2409,2.2409,-0.7567,-0.7827,-0.8027,-0.8027,-0.8484,-0.9005,-0.9274,-1.0275,-1.0843,-1.0231,-1.0661,-1.071,-0.9901,-0.9779,-0.9518,-0.8941,-0.8877,-0.8613,-0.8027,-0.8027,-0.8285,-0.8877,-0.8468,-0.8255,-0.8249,-0.7118,-0.6788,-0.7182,-0.7205,-0.6959,-0.6563,-0.697,-0.7214,-0.7158,-0.7158,-0.7371,-0.7584,-0.5656,-0.5122,-0.541,-0.4169,-0.3732,-0.354,-0.1183,0.0304,0.1197,0.1357,0.1386,0.1388,0.1387,0.2785,0.449,0.4477,0.4639,0.4853,0.5066,0.5171,0.5281,0.571,0.55,0.5183,0.5171,0.5496,0.5873,0.5873,0.6012,0.6358,0.674,0.739,0.7855,0.7866,0.7367,0.6959,0.6959,0.6094,0.5432,0.5372,0.5372,0.5376,0.5382,0.5379,0.5372,0.5372,0.5432,0.5428,0.5428,0.5428,0.5498,0.5771,0.7229,0.8103,0.8392,1.0345,1.1914,1.3018,1.4542,1.577,1.6763,1.7335,1.8055,1.8915,1.9236,1.9609,2.0041,2.0957,2.1239,2.1108,2.1287,2.137,2.1322,2.1102,2.126,2.1649,2.1431,2.1479,2.1649,-0.6715,-0.7367,-0.7962,-0.7962,-0.7962,-0.8291,-0.9139,-0.9274,-0.9274,-0.9274,-0.9274,-0.8947,-0.8091,-0.8027,-0.8027,-0.7962,-0.7962,-0.7962,-0.7962,-0.7962,-0.7962,-0.7962,-0.744,-0.7081,-0.7085,-0.599,-0.5408,-0.5408,-0.5418,-0.5384,-0.5428,-0.5428,-0.5362,-0.5362,-0.5362,-0.5359,-0.5093,-0.1545,-0.0,0.0067,0.0067,-0.0065,-0.0252,-0.0246,0.1742,0.4523,0.4492,0.4497,0.4494,0.4484,0.4536,0.4532,0.4522,0.4948,0.5651,0.6367,0.6588,0.6588,0.6642,0.6642,0.6642,0.6588,0.6588,0.6588,0.6588,0.6749,0.6904,0.6904,0.7255,0.7504,0.7504,0.7104,0.6719,0.6719,0.6009,0.5428,0.5428,0.5428,0.5428,0.5428,0.5428,0.5428,0.5428,0.5428,0.5428,0.5428,0.5428,0.5771,0.6668,0.7508,0.838,0.9289,1.0129,1.0624,1.0624,1.3707,1.5293,1.5293,1.6813,1.7578,1.7622,1.83,1.8631,1.8756,2.0041,2.0241,1.9736,2.0328,2.0548,2.0486,1.9737,2.0388,2.1574,2.0833,2.104,2.1554,-0.577,-0.5981,-0.6209,-0.6191,-0.6662,-0.7177,-0.7437,-0.8027,-0.842,-0.842,-0.842,-0.8285,-0.8027,-0.8027,-0.7767,-0.7111,-0.7111,-0.6859,-0.6222,-0.6156,-0.616,-0.6172,-0.658,-0.6555,-0.5924,-0.5599,-0.5401,-0.5401,-0.5404,-0.5415,-0.5428,-0.5403,-0.4509,-0.2861,-0.2009,-0.1612,-0.1545,-0.0471,0.1478,0.3818,0.3811,0.3596,0.3348,0.3279,0.38,0.4513,0.4472,0.4798,0.5175,0.5226,0.5555,0.5996,0.5991,0.6095,0.6312,0.6534,0.6945,0.741,0.7947,0.841,0.8449,0.695,0.6966,0.7396,0.7396,0.7836,0.8275,0.846,0.878,0.9081,0.9272,0.8897,0.8549,0.8549,0.7767,0.6985,0.64,0.6334,0.6075,0.5491,0.5428,0.5428,0.5428,0.5428,0.5428,0.5428,0.5977,0.6394,0.6672,0.8117,0.9023,0.9289,1.0129,1.0624,1.0624,1.212,1.283,1.2838,1.3853,1.4641,1.5235,1.5971,1.6422,1.6785,1.7694,1.7816,1.742,1.7585,1.7623,1.7659,1.7709,1.8005,1.8413,1.8448,1.8631,1.8802,-0.46,-0.4932,-0.5213,-0.5172,-0.5627,-0.6125,-0.6438,-0.7008,-0.7383,-0.7383,-0.7455,-0.7377,-0.699,-0.699,-0.6728,-0.621,-0.6214,-0.5962,-0.5452,-0.47,-0.4361,-0.43,-0.4125,-0.4452,-0.5372,-0.5376,-0.4691,-0.327,-0.2533,-0.2332,-0.2533,-0.3023,-0.2479,-0.1062,0.02,0.1273,0.2147,0.2147,0.3418,0.5418,0.5301,0.5301,0.5294,0.4877,0.4972,0.5265,0.499,0.5328,0.5928,0.5928,0.6258,0.6691,0.7272,0.7427,0.7534,0.8106,0.8561,0.8971,0.9408,0.9813,0.9857,0.8574,0.8389,0.8461,0.8203,0.848,0.8858,0.9031,0.9305,0.9599,0.9893,0.9494,0.9144,0.9256,0.8549,0.7827,0.7307,0.7242,0.7046,0.647,0.6404,0.6272,0.5943,0.5899,0.5911,0.5911,0.6394,0.6981,0.7722,0.8751,0.9491,0.9775,1.0338,1.0624,1.0624,1.1108,1.1469,1.1834,1.2634,1.3243,1.3726,1.4357,1.4941,1.5468,1.6051,1.6137,1.5924,1.5924,1.5924,1.5906,1.5879,1.6208,1.6796,1.6894,1.7125,1.7375,-0.3362,-0.4224,-0.4847,-0.4857,-0.4921,-0.5157,-0.5984,-0.6191,-0.6237,-0.6237,-0.6442,-0.6225,-0.547,-0.5342,-0.5352,-0.5379,-0.5252,-0.5256,-0.5396,-0.3553,-0.2341,-0.2007,-0.0533,-0.12,-0.437,-0.4776,-0.3218,0.0267,0.2072,0.2676,0.2071,0.1001,0.0466,0.0531,0.1661,0.3332,0.5428,0.5428,0.5428,0.5474,0.5262,0.5574,0.6053,0.5191,0.5607,0.6534,0.5814,0.6091,0.6696,0.675,0.6804,0.7015,0.837,0.8783,0.9044,1.0399,1.0864,1.0864,1.0864,1.0922,1.0973,1.0914,1.0415,0.9814,0.9106,0.8956,0.8956,0.891,0.9092,0.9381,0.9633,0.9238,0.9013,0.9354,0.8742,0.8221,0.8156,0.8091,0.8091,0.8027,0.8027,0.7702,0.692,0.6841,0.6809,0.6809,0.6862,0.7596,0.9225,0.9352,0.9775,1.0555,1.0624,1.0624,1.0624,1.0624,1.0989,1.171,1.2451,1.2826,1.287,1.3217,1.38,1.4479,1.4775,1.4883,1.4893,1.4893,1.4955,1.4914,1.4307,1.4894,1.6087,1.5818,1.617,1.6877,-0.3795,-0.4417,-0.4631,-0.4789,-0.4809,-0.4925,-0.5157,-0.5186,-0.5207,-0.5207,-0.5236,-0.5244,-0.5179,-0.5192,-0.5247,-0.5379,-0.4095,-0.3894,-0.5339,-0.241,0.0668,0.3496,0.2678,0.2407,0.3013,0.0267,-0.0067,0.2088,0.3956,0.4752,0.4616,0.4345,0.4209,0.4273,0.4515,0.4922,0.5428,0.5428,0.5771,0.6386,0.6102,0.6406,0.6986,0.6559,0.6519,0.6588,0.6421,0.6853,0.7563,0.8156,0.8321,0.8474,0.9287,0.9547,0.9747,1.0559,1.1166,1.1566,1.1566,1.199,1.2304,1.1724,1.1458,1.1216,1.0517,1.0364,1.0218,0.971,0.9817,0.9979,0.9741,0.9794,0.9956,1.0255,1.0168,0.9779,0.9139,0.9011,0.8748,0.8091,0.7982,0.7932,0.7736,0.7739,0.7721,0.7721,0.8382,0.8925,0.9283,0.992,1.0408,1.0561,1.0624,1.0624,1.0624,1.0624,1.0688,1.0863,1.1052,1.1476,1.2066,1.19,1.2044,1.2479,1.2369,1.2398,1.252,1.252,1.2888,1.3422,1.3567,1.3848,1.4144,1.442,1.48,1.5325,-0.2058,-0.293,-0.3412,-0.3521,-0.4185,-0.4666,-0.4718,-0.472,-0.4703,-0.4703,-0.483,-0.4904,-0.4984,-0.435,-0.4342,-0.5287,-0.1379,0.0792,-0.0201,0.0735,0.2544,0.5266,0.4503,0.4431,0.5386,0.3544,0.3013,0.3981,0.4903,0.5428,0.5428,0.5428,0.5428,0.5428,0.5393,0.5663,0.6047,0.6047,0.6461,0.7061,0.6845,0.7096,0.7521,0.6949,0.7138,0.7616,0.7235,0.7616,0.8315,0.9047,0.9256,0.9465,1.0415,1.0762,1.0864,1.1584,1.2049,1.2344,1.2344,1.2618,1.2822,1.2403,1.2344,1.2039,1.1015,1.0813,1.0618,0.9909,0.9948,0.9911,0.9525,0.9713,1.0007,1.0301,1.053,1.0428,0.9983,0.9913,0.9722,0.932,0.921,0.9081,0.8661,0.8254,0.8164,0.8603,0.9023,0.9491,0.9914,1.0345,1.0624,1.0624,1.0624,1.0624,1.0624,1.0624,1.0624,1.0624,1.0624,1.0807,1.1212,1.1093,1.1123,1.1311,1.1227,1.1251,1.1316,1.1316,1.1525,1.1918,1.2117,1.2199,1.2304,1.309,1.3959,1.4844,0.0445,-0.0612,-0.1448,-0.1558,-0.2792,-0.3811,-0.3978,-0.4077,-0.4091,-0.4091,-0.4308,-0.4515,-0.4789,-0.2822,-0.2175,-0.3972,0.1406,0.5009,0.5325,0.4122,0.4058,0.555,0.576,0.5833,0.5833,0.5822,0.5697,0.5389,0.5369,0.5498,0.5634,0.5634,0.5704,0.5841,0.5841,0.6254,0.6946,0.6841,0.717,0.7671,0.7493,0.7699,0.8053,0.7278,0.7723,0.8699,0.8103,0.8368,0.9061,0.9614,0.9865,1.0167,1.1408,1.1814,1.1922,1.2666,1.2881,1.2881,1.2881,1.2881,1.2881,1.2881,1.2881,1.2569,1.1434,1.1174,1.0973,1.0261,1.0167,0.9963,0.9501,0.9649,0.9948,1.0067,1.0367,1.0624,1.0624,1.0624,1.0624,1.0624,1.0624,1.0338,0.9566,0.8868,0.8766,0.9446,0.9497,0.9844,1.0555,1.0624,1.0624,1.0624,1.0624,1.0624,1.0624,1.0624,1.0624,1.0624,1.0624,1.0624,1.0604,1.0576,1.0595,1.0616,1.0546,1.0605,1.0699,1.0643,1.0712,1.0813,1.0813,1.0813,1.0922,1.2,1.323,1.4494,0.2174,0.1728,0.1503,0.1055,0.0111,-0.089,-0.1778,-0.2237,-0.2529,-0.2529,-0.2538,-0.3097,-0.4392,0.0303,0.2903,0.1296,0.204,0.3292,0.4885,0.5746,0.6328,0.6591,0.7302,0.7642,0.7642,0.7637,0.6924,0.5432,0.5428,0.5771,0.6531,0.6531,0.6946,0.765,0.765,0.7721,0.7778,0.75,0.7889,0.8565,0.8066,0.8281,0.899,0.8646,0.8646,0.8804,0.8699,0.9106,0.9666,0.9762,1.0167,1.0813,1.1566,1.1814,1.1922,1.2666,1.2881,1.2881,1.2881,1.2881,1.2881,1.2881,1.2881,1.2832,1.2666,1.2618,1.2412,1.1674,1.1516,1.1226,1.0301,1.036,1.0451,1.0127,1.0367,1.0624,1.0624,1.0624,1.0624,1.0624,1.0624,1.0555,1.0415,1.0308,1.0314,1.0415,1.0415,1.0485,1.0561,1.0624,1.0624,1.0624,1.0624,1.0624,1.0624,1.0624,1.0624,1.0624,1.0624,1.0624,1.0611,1.0329,1.0174,1.014,0.9651,0.9767,1.0325,1.003,1.0261,1.0813,1.0813,1.0813,1.0896,1.1681,1.2295,1.2884,0.3633,0.3466,0.3413,0.3239,0.279,0.2062,0.0778,0.0389,0.0278,0.0278,0.0278,-0.0,-0.0683,0.2373,0.4197,0.3537,0.36,0.4228,0.554,0.6092,0.6555,0.6922,0.7301,0.7469,0.7469,0.7469,0.7216,0.657,0.6759,0.7047,0.7437,0.7442,0.7658,0.8006,0.8006,0.8146,0.8484,0.8712,0.9089,0.9596,0.9329,0.9348,0.9475,0.899,0.8804,0.8804,0.8804,0.9008,0.9309,0.9658,1.0269,1.0914,1.1566,1.208,1.2501,1.2822,1.2881,1.2881,1.2881,1.2881,1.2881,1.2881,1.2881,1.2881,1.2881,1.2881,1.2666,1.1972,1.1814,1.1569,1.0725,1.0509,1.0468,1.045,1.0349,1.0374,1.0598,1.0624,1.0624,1.0624,1.0624,1.0624,1.0624,1.0624,1.0624,1.0624,1.0624,1.0624,1.0624,1.0624,1.0624,1.0624,1.0624,1.0624,1.0624,1.0624,1.0624,1.0624,1.0624,1.0624,1.0611,1.0254,1.0114,1.0094,0.9673,0.9656,0.9974,0.9778,0.9936,1.0148,1.0071,1.0028,1.002,1.013,1.1279,1.2954]},{"header":{"parameterUnit":"m.s-1","parameterCategory":1,"la1":30.6,"la2":28.766,"lo1":-90.7593,"lo2":-88.6598,"dy":0.0162,"dx":0.0183,"nx":116,"ny":114,"refTime":"2023-07-27T12:00:00:Z","depth":0,"parameterNumber":3,"parameterNumberName":"V-component_of_WINDS"},"data":[0.0,0.0,0.0,0.0,0.0,0.0,0.0,0.0,0.0,0.0,0.0,0.0,0.0,0.0,0.0,0.0,0.0,0.0,0.0,0.0,0.0,0.0,0.0,0.0,0.0,0.0,0.0,0.0,0.0,0.0,0.0,0.0,0.0,0.0,0.0,0.0,0.0,0.0,0.0,0.0,0.0,0.0,0.0,0.0,0.0,0.0,0.0,0.0,0.0,0.0,0.0,0.0,0.0,0.0,0.0,0.0,0.0,0.0,0.0,0.0,0.0,0.0,0.0,0.0,0.0,0.0,0.0,0.0,0.0,0.0,0.0,0.0,0.0,0.0,0.0,0.0,0.0,0.0,0.0,0.0,0.0,0.0,0.0,0.0,0.0,0.0,0.0,0.0,0.0,0.0,0.0,0.0,0.0,0.0,0.0,0.0,0.0,0.0,0.0,0.0,0.0,0.0,0.0,0.0,0.0,0.0,0.0,0.0,0.0,0.0,0.0,0.0,0.0,0.0,0.0,0.0,0.0,0.0,0.0,0.0,0.0,0.0,0.0,0.0,0.0,0.0,0.0,0.0,0.0,0.0,0.0,0.0,0.0,0.0,0.0,0.0,0.0,0.0,0.0,0.0,0.0,0.0,0.0,0.0,0.0,0.0,0.0,0.0,0.0,0.0,0.0,0.0,0.0,0.0,0.0,0.0,0.0,0.0,0.0,0.0,0.0,0.0,0.0,0.0,0.0,0.0,0.0,0.0,0.0,0.0,0.0,0.0,0.0,0.0,0.0,0.0,0.0,0.0,0.0,0.0,0.0,0.0,0.0,0.0,0.0,0.0,0.0,0.0,0.0,0.0,0.0,0.0,0.0,0.0,0.0,0.0,0.0,0.0,0.0,0.0,0.0,0.0,0.0,0.0,0.0,0.0,0.0,0.0,0.0,0.0,0.0,0.0,0.0,0.0,0.0,0.0,0.0,0.0,0.0,0.0,0.0,0.0,0.0,0.0,0.0,0.0,0.0,0.0,0.0,0.0,0.0,0.0,0.0,0.0,0.0,0.0,0.0,0.0,0.0,0.0,0.0,0.0,0.0,0.0,0.0,0.0,0.0,0.0,0.0,0.0,0.0,0.0,0.0,0.0,0.0,0.0,0.0,0.0,0.0,0.0,0.0,0.0,0.0,0.0,0.0,0.0,0.0,0.0,0.0,0.0,0.0,0.0,0.0,0.0,0.0,0.0,0.0,0.0,0.0,0.0,0.0,0.0,0.0,0.0,0.0,0.0,0.0,0.0,0.0,0.0,0.0,0.0,0.0,0.0,0.0,0.0,0.0,0.0,0.0,0.0,0.0,0.0,0.0,0.0,0.0,0.0,0.0,0.0,0.0,0.0,0.0,0.0,0.0,0.0,0.0,0.0,0.0,0.0,0.0,0.0,0.0,0.0,0.0,0.0,0.0,0.0,0.0,0.0,0.0,0.0,0.0,0.0,0.0,0.0,0.0,0.0,0.0,0.0,0.0,0.0,0.0,0.0,0.0,0.0,0.0,0.0,0.0,0.0,0.0,0.0,0.0,0.0,0.0,0.0,0.0,0.0,0.0,0.0,0.0,0.0,0.0,0.0,0.0,0.0,0.0,0.0,0.0,0.0,0.0,0.0,0.0,0.0,0.0,0.0,0.0,0.0,0.0,0.0,0.0,0.0,0.0,0.0,0.0,0.0,0.0,0.0,0.0,0.0,0.0,0.0,0.0,0.0,0.0,0.0,0.0,0.0,0.0,0.0,0.0,0.0,0.0,0.0,0.0,0.0,0.0,0.0,0.0,0.0,0.0,0.0,0.0,0.0,0.0,0.0,0.0,0.0,0.0,0.0,0.0,0.0,0.0,0.0,0.0,0.0,0.0,0.0,0.0,0.0,0.0,0.0,0.0,0.0,0.0,0.0,0.0,0.0,0.0,0.0,0.0,0.0,0.0,0.0,0.0,0.0,0.0,0.0,0.0,0.0,0.0,0.0,0.0,0.0,0.0,0.0,0.0,0.0,0.0,0.0,0.0,0.0,0.0,0.0,0.0,0.0,0.0,0.0,0.0,0.0,0.0,0.0,0.0,0.0,0.0,0.0,0.0,0.0,0.0,0.0,0.0,0.0,0.0,0.0,0.0,0.0,0.0,0.0,0.0,0.0,0.0,0.0,0.0,0.0,0.0,0.0,0.0,0.0,0.0,0.0,0.0,0.0,0.0,0.0,0.0,0.0,0.0,0.0,0.0,0.0,0.0,0.0,0.0,0.0,0.0,0.0,0.0,0.0,0.0,0.0,0.0,0.0,0.0,0.0,0.0,0.0,0.0,0.0,0.0,0.0,0.0,0.0,0.0,0.0,0.0,0.0,0.0,0.0,0.0,0.0,0.0,0.0,0.0,0.0,0.0,0.0,0.0,0.0,0.0,0.0,0.0,0.0,0.0,0.0,0.0,0.0,0.0,0.0,0.0,0.0,0.0,0.0,0.0,0.0,0.0,0.0,0.0,0.0,0.0,0.0,0.0,0.0,0.0,0.0,0.0,0.0,0.0,0.0,0.0,0.0,0.0,0.0,0.0,0.0,0.0,0.0,0.0,0.0,0.0,0.0,0.0,0.0,0.0,0.0,0.0,0.0,0.0,0.0,0.0,0.0,0.0,0.0,0.0,0.0,0.0,0.0,0.0,0.0,0.0,0.0,0.0,0.0,0.0,0.0,0.0,0.0,0.0,0.0,0.0,0.0,0.0,0.0,0.0,0.0,0.0,0.0,0.0,0.0,0.0,0.0,0.0,0.0,0.0,0.0,0.0,0.0,0.0,0.0,0.0,0.0,0.0,0.0,0.0,0.0,0.0,0.0,0.0,0.0,0.0,0.0,0.0,0.0,0.0,0.0,0.0,0.0,0.0,0.0,0.0,0.0,0.0,0.0,0.0,0.0,0.0,0.0,0.0,0.0,0.0,0.0,0.0,0.0,0.0,0.0,0.0,0.0,0.0,0.0,0.0,0.0,0.0,0.0,0.0,0.0,0.0,0.0,0.0,0.0,0.0,0.0,0.0,0.0,0.0,0.0,0.0,0.0,0.0,0.0,0.0,0.0,0.0,0.0,0.0,0.0,0.0,0.0,0.0,0.0,0.0,0.0,0.0,0.0,0.0,0.0,0.0,0.0,0.0,0.0,0.0,0.0,0.0,0.0,0.0,0.0,0.0,0.0,0.0,0.0,0.0,0.0,0.0,0.0,0.0,0.0,0.0,0.0,0.0,0.0,0.0,0.0,0.0,0.0,0.0,0.0,0.0,0.0,0.0,0.0,0.0,0.0,0.0,0.0,0.0,0.0,0.0,0.0,0.0,0.0,0.0,0.0,0.0,0.0,0.0,0.0,0.0,0.0,0.0,0.0,0.0,0.0,0.0,0.0,0.0,0.0,0.0,0.0,0.0,0.0,0.0,0.0,0.0,0.0,0.0,0.0,0.0,0.0,0.0,0.0,0.0,0.0,0.0,0.0,0.0,0.0,0.0,0.0,0.0,0.0,0.0,0.0,0.0,0.0,0.0,0.0,0.0,0.0,0.0,0.0,0.0,0.0,0.0,0.0,0.0,0.0,0.0,0.0,0.0,0.0,0.0,0.0,0.0,0.0,0.0,0.0,0.0,0.0,0.0,0.0,0.0,0.0,0.0,0.0,0.0,0.0,0.0,0.0,0.0,0.0,0.0,0.0,0.0,0.0,0.0,0.0,0.0,0.0,0.0,0.0,0.0,0.0,0.0,0.0,0.0,0.0,0.0,0.0,0.0,0.0,0.0,0.0,0.0,0.0,0.0,0.0,0.0,0.0,0.0,0.0,0.0,0.0,0.0,0.0,0.0,0.0,0.0,0.0,0.0,0.0,0.0,0.0,0.0,0.0,0.0,0.0,0.0,0.0,0.0,0.0,0.0,0.0,0.0,0.0,0.0,0.0,0.0,0.0,0.0,0.0,0.0,0.0,0.0,0.0,0.0,0.0,0.0,0.0,0.0,0.0,0.0,0.0,0.0,0.0,0.0,0.0,0.0,0.0,0.0,0.0,0.0,0.0,0.0,0.0,0.0,0.0,0.0,0.0,0.0,0.0,0.0,0.0,0.0,0.0,0.0,0.0,0.0,0.0,0.0,0.0,0.0,0.0,0.0,0.0,0.0,0.0,0.0,0.0,0.0,0.0,0.0,0.0,0.0,0.0,0.0,0.0,0.0,0.0,0.0,0.0,0.0,0.0,0.0,0.0,0.0,0.0,0.0,0.0,0.0,0.0,0.0,0.0,0.0,0.0,0.0,0.0,0.0,0.0,0.0,0.0,0.0,0.0,0.0,0.0,0.0,0.0,0.0,0.0,0.0,0.0,0.0,0.0,0.0,0.0,0.0,0.0,0.0,0.0,0.0,0.0,0.0,0.0,0.0,0.0,0.0,0.0,0.0,0.0,0.0,0.0,0.0,0.0,0.0,0.0,0.0,0.0,0.0,0.0,0.0,0.0,0.0,0.0,0.0,0.0,0.0,0.0,0.0,0.0,0.0,0.0,0.0,0.0,0.0,0.0,0.0,0.0,0.0,0.0,0.0,0.0,0.0,0.0,0.0,0.0,0.0,0.0,0.0,0.0,0.0,0.0,0.0,0.0,0.0,0.0,0.0,0.0,0.0,0.0,0.0,0.0,0.0,0.0,0.0,0.0,0.0,0.0,0.0,0.0,0.0,0.0,0.0,0.0,0.0,0.0,0.0,0.0,0.0,0.0,0.0,0.0,0.0,0.0,0.0,0.0,0.0,0.0,0.0,0.0,0.0,0.0,0.0,0.0,0.0,0.0,0.0,0.0,0.0,0.0,0.0,0.0,0.0,0.0,0.0,0.0,0.0,0.0,0.0,0.0,0.0,0.0,0.0,0.0,0.0,0.0,0.0,0.0,0.0,0.0,0.0,0.0,0.0,0.0,0.0,0.0,0.0,0.0,0.0,0.0,0.0,0.0,0.0,0.0,0.0,0.0,0.0,0.0,0.0,0.0,0.0,0.0,0.0,0.0,0.0,0.0,0.0,0.0,0.0,0.0,0.0,0.0,0.0,0.0,0.0,0.0,0.0,0.0,0.0,0.0,0.0,0.0,0.0,0.0,0.0,0.0,0.0,0.0,0.0,0.0,0.0,0.0,0.0,0.0,0.0,0.0,0.0,0.0,0.0,0.0,0.0,0.0,0.0,0.0,0.0,0.0,0.0,0.0,0.0,0.0,0.0,0.0,0.0,0.0,0.0,0.0,0.0,0.0,0.0,0.0,0.0,0.0,0.0,0.0,0.0,0.0,0.0,0.0,0.0,0.0,0.0,0.0,0.0,0.0,0.0,0.0,0.0,0.0,0.0,0.0,0.0,0.0,0.0,0.0,0.0,0.0,0.0,0.0,0.0,0.0,0.0,0.0,0.0,0.0,0.0,0.0,0.0,0.0,0.0,0.0,0.0,0.0,0.0,0.0,0.0,0.0,0.0,0.0,0.0,0.0,0.0,0.0,0.0,0.0,0.0,0.0,0.0,0.0,0.0,0.0,0.0,0.0,0.0,0.0,0.0,0.0,0.0,0.0,0.0,0.0,0.0,0.0,0.0,0.0,0.0,0.0,0.0,0.0,0.0,0.0,0.0,0.0,0.0,0.0,0.0,0.0,0.0,0.0,0.0,0.0,0.0,0.0,0.0,0.0,0.0,0.0,0.0,0.0,0.0,0.0,0.0,0.0,0.0,0.0,0.0,0.0,0.0,0.0,0.0,0.0,0.0,0.0,0.0,0.0,0.0,0.0,0.0,0.0,0.0,0.0,0.0,0.0,0.0,0.0,0.0,0.0,0.0,0.0,0.0,0.0,0.0,0.0,0.0,0.0,0.0,0.0,0.0,0.0,0.0,0.0,0.0,0.0,0.0,0.0,0.0,0.0,0.0,0.0,0.0,0.0,0.0,0.0,0.0,0.0,0.0,0.0,0.0,0.0,0.0,0.0,0.0,0.0,0.0,0.0,0.0,0.0,0.0,0.0,0.0,0.0,0.0,0.0,0.0,0.0,0.0,0.0,0.0,0.0,0.0,0.0,0.0,0.0,0.0,0.0,0.0,0.0,-1.563,-1.5956,0.0,0.0,0.0,0.0,0.0,0.0,0.0,0.0,0.0,0.0,0.0,0.0,0.0,0.0,0.0,0.0,0.0,0.0,0.0,0.0,0.0,0.0,0.0,0.0,0.0,0.0,0.0,0.0,0.0,0.0,0.0,0.0,0.0,0.0,0.0,0.0,0.0,0.0,0.0,0.0,0.0,0.0,0.0,0.0,0.0,0.0,0.0,0.0,0.0,0.0,0.0,0.0,0.0,0.0,0.0,0.0,0.0,0.0,0.0,0.0,0.0,0.0,0.0,0.0,0.0,0.0,0.0,0.0,0.0,0.0,0.0,0.0,0.0,0.0,0.0,0.0,0.0,0.0,0.0,0.0,0.0,0.0,0.0,0.0,0.0,0.0,0.0,0.0,0.0,0.0,0.0,0.0,0.0,0.0,0.0,0.0,0.0,0.0,0.0,0.0,0.0,0.0,0.0,0.0,0.0,0.0,0.0,0.0,0.0,0.0,0.0,0.0,0.0,0.0,-1.6068,-1.628,0.0,0.0,0.0,0.0,0.0,0.0,0.0,0.0,0.0,0.0,0.0,0.0,0.0,0.0,0.0,0.0,0.0,0.0,0.0,0.0,0.0,0.0,0.0,0.0,0.0,0.0,0.0,0.0,0.0,0.0,0.0,0.0,0.0,0.0,0.0,0.0,0.0,0.0,0.0,0.0,0.0,0.0,0.0,0.0,0.0,0.0,0.0,0.0,0.0,0.0,0.0,0.0,0.0,0.0,0.0,0.0,0.0,0.0,0.0,0.0,0.0,0.0,0.0,0.0,0.0,0.0,0.0,0.0,0.0,0.0,0.0,0.0,0.0,0.0,0.0,0.0,0.0,0.0,0.0,0.0,0.0,0.0,0.0,0.0,0.0,0.0,0.0,0.0,0.0,0.0,0.0,0.0,0.0,0.0,0.0,0.0,0.0,0.0,0.0,0.0,0.0,0.0,0.0,0.0,0.0,0.0,0.0,0.0,-1.5204,-1.5743,-1.5743,-1.5743,-1.6493,-1.7582,-1.628,-1.6499,-1.7582,-1.7891,0.0,0.0,0.0,0.0,0.0,0.0,0.0,0.0,0.0,0.0,0.0,0.0,0.0,0.0,0.0,0.0,0.0,0.0,0.0,0.0,0.0,0.0,0.0,0.0,0.0,0.0,0.0,0.0,0.0,0.0,0.0,0.0,0.0,0.0,0.0,0.0,0.0,0.0,0.0,0.0,-0.2617,-0.766,-1.6038,0.0,0.0,0.0,0.0,0.0,0.0,0.0,0.0,0.0,0.0,0.0,0.0,0.0,0.0,0.0,0.0,0.0,0.0,0.0,0.0,0.0,0.0,0.0,0.0,0.0,0.0,0.0,0.0,0.0,0.0,0.0,0.0,0.0,0.0,0.0,0.0,0.0,0.0,0.0,0.0,0.0,0.0,0.0,-0.7534,-0.7736,0.0,0.0,0.0,0.0,0.0,0.0,0.0,0.0,0.0,0.0,0.0,0.0,0.0,-1.6259,-1.6929,-1.6762,-1.6801,-1.7041,-1.7252,-1.7259,-1.7259,-1.7259,-1.747,-1.7582,-1.7364,0.0,-1.7687,-1.8812,0.0,0.0,0.0,0.0,0.0,0.0,0.0,0.0,0.0,0.0,0.0,0.0,0.0,0.0,0.0,0.0,0.0,0.0,0.0,0.0,0.0,0.0,0.0,0.0,0.0,0.0,0.0,0.0,0.0,0.0,0.0,0.0,0.0,0.0,0.0,0.0,0.4845,-0.1221,-0.3534,-0.3571,-0.5765,-0.9916,-1.6293,-2.0211,-2.2216,-2.5679,0.0,0.0,0.0,0.0,0.0,0.0,0.0,0.0,0.0,0.0,0.0,0.0,0.0,0.0,0.0,0.0,0.0,0.0,0.0,0.0,0.0,0.0,0.0,0.0,0.0,0.0,0.0,0.0,0.0,0.0,0.0,0.0,0.0,0.0,0.0,0.0,0.0,0.0,0.0,-0.8038,-0.8038,-0.8038,-0.8038,-0.8038,0.0,0.0,0.0,0.0,0.0,0.0,0.0,0.0,0.0,-1.5126,-1.53,-1.5806,-1.6653,-1.6987,-1.7215,-1.7341,-1.7502,-1.7582,-1.7582,-1.7582,-1.7582,-1.7582,-1.7582,-1.7996,-1.8812,-1.9324,-2.0135,-2.1245,0.0,0.0,0.0,0.0,-2.5742,-2.5927,0.0,0.0,0.0,0.0,0.0,0.0,0.0,0.0,0.0,0.0,0.0,0.0,0.0,0.0,0.0,2.2008,0.0,0.0,0.0,0.0,0.0,0.0,0.0,0.0,0.0,0.0,0.0,0.0,0.3013,-0.1605,-0.4719,-0.5774,-0.8447,-1.2385,-1.5287,-1.8498,-2.2014,-2.509,-2.8049,0.0,0.0,0.0,0.0,0.0,0.0,0.0,0.0,0.0,0.0,0.0,0.0,0.0,0.0,0.0,0.0,0.0,0.0,0.0,0.0,0.0,0.0,0.0,0.0,0.0,0.0,0.0,0.0,0.0,0.0,0.0,0.0,0.0,0.0,0.0,0.0,0.0,0.0,-0.8336,-0.8432,-0.8038,-0.8333,-0.8333,0.0,0.0,0.0,0.0,0.0,0.0,-1.2334,-1.2431,-1.3499,-1.573,-1.5049,-1.5187,-1.6273,-1.6707,-1.7001,-1.7154,-1.7368,-1.7508,-1.7582,-1.7582,-1.7582,-1.7582,-1.7996,-1.8916,-2.0135,-2.0135,-2.1355,-2.3276,-2.389,-2.4609,-2.5226,-2.5538,-2.5742,-2.583,0.0,0.0,0.0,0.0,0.0,0.0,0.0,0.0,0.0,0.0,0.0,0.0,0.0,0.0,2.3186,2.5252,2.538,2.6829,0.0,0.0,0.0,0.0,0.0,0.0,0.0,0.0,0.0,0.0589,0.0222,-0.0075,-0.0389,-0.4421,-0.8429,-1.2284,-1.2494,-1.4736,-1.8449,-2.1862,-2.5074,-2.8028,0.0,0.0,0.0,0.0,0.0,0.0,0.0,0.0,0.0,0.0,0.0,0.0,0.0,0.0,0.0,0.0,0.0,0.0,0.0,0.0,0.0,0.0,0.0,0.0,0.0,0.0,0.0,0.0,0.0,0.0,0.0,0.0,0.0,0.0,0.0,0.0,0.0,0.0,0.0,-0.8137,-0.9118,0.0,0.0,0.0,0.0,-0.9805,-0.9998,-1.1165,-1.368,-1.3776,-1.4364,-1.573,-1.575,-1.589,-1.6273,-1.6299,-1.66,-1.7148,-1.7161,-1.7315,-1.7582,-1.7582,-1.7582,-1.7687,-1.8909,-2.0341,-2.155,-2.155,-2.1651,-2.2055,-2.4609,-2.4815,-2.3998,-2.5226,-2.5742,-2.5732,0.0,0.0,0.0,0.0,0.0,0.0,0.0,0.0,0.0,0.0,0.0,0.0,0.0,2.4477,2.5562,2.6279,2.6233,2.7368,3.0213,0.0,0.0,0.0,0.0,0.0,0.0,0.0,0.8679,0.3481,0.1168,0.0,-0.0076,-0.4322,-0.7084,-0.8576,-1.1161,-1.4439,-1.8241,-2.1678,-2.482,-2.7669,-2.8615,-2.9946,0.0,0.0,0.0,0.0,0.0,0.0,0.0,0.0,0.0,0.0,0.0,0.0,0.0,0.0,0.0,0.0,0.0,0.0,0.0,0.0,0.0,0.0,0.0,0.0,0.0,0.0,0.0,0.0,0.0,0.0,0.0,0.0,0.0,0.0,0.0,0.0,0.0,-0.8882,-0.9259,0.0,-0.7979,-1.0097,-1.1014,-1.0083,-1.2328,-1.3782,-1.3872,-1.4657,-1.5337,-1.5825,-1.5832,-1.5879,-1.5985,-1.6179,-1.638,-1.6593,-1.6967,-1.7201,-1.7315,-1.7495,-1.7582,-1.7582,-1.8094,-1.962,-2.1752,-2.1752,-2.2767,-2.4402,-2.5333,-2.543,-2.502,-2.5528,-2.5742,-2.583,0.0,0.0,0.0,0.0,0.0,0.0,0.0,0.0,0.0,0.0,0.0,2.3636,2.4531,2.605,2.7035,2.7189,2.7285,2.8046,2.9696,0.0,0.0,0.0,0.0,0.0,0.0,0.9971,0.7117,0.3549,0.1144,0.0,-0.0074,-0.4304,-0.6286,-0.6496,-1.0521,-1.4393,-1.8173,-2.0417,-2.3178,-2.6171,-2.7211,-2.8628,-3.0196,0.0,0.0,0.0,0.0,0.0,0.0,0.0,0.0,0.0,0.0,0.0,0.0,0.0,0.0,0.0,0.0,0.0,0.0,0.0,0.0,0.0,0.0,0.0,0.0,0.0,0.0,0.0,0.0,0.0,0.0,0.0,0.0,0.0,0.0,-0.9714,-0.9806,-0.9347,-0.9343,-0.9112,-0.8387,-1.0552,-1.1551,-1.0564,-1.3222,-1.481,-1.4426,-1.5285,-1.5832,-1.5832,-1.5832,-1.5832,-1.5832,-1.6025,-1.6172,-1.6279,-1.6667,-1.6901,-1.7007,-1.7301,-1.7741,-1.8151,-1.8762,-2.0223,-2.2366,-2.2868,-2.4097,-2.5742,-2.5742,-2.5742,-2.5742,-2.5742,-2.6014,-2.6476,0.0,0.0,0.0,0.0,0.0,0.0,0.0,0.0,0.0,0.0,2.3963,2.5366,2.6421,2.6894,2.742,2.816,2.8482,2.8647,2.8653,3.0057,0.0,0.0,0.0,0.0,1.5396,0.8811,0.3614,0.0,0.0,0.0,-0.0072,-0.4292,-0.6306,-0.6477,-1.0473,-1.4393,-1.8031,-1.8131,-2.0086,-2.3384,-2.6398,-2.76,-2.7868,0.0,0.0,0.0,0.0,0.0,0.0,0.0,0.0,0.0,0.0,0.0,0.0,0.0,0.0,0.0,0.0,0.0,0.0,0.0,0.0,0.0,0.0,0.0,0.0,0.0,0.0,0.0,0.0,0.0,0.0,0.0,0.0,0.0,-0.964,-1.0523,-1.0891,-0.9511,-0.9503,-0.9507,-0.9334,-0.9334,-0.989,-1.1186,-1.2592,-1.4043,-1.5285,-1.5658,-1.5812,-1.5812,-1.5825,-1.5832,-1.5832,-1.5832,-1.5972,-1.6259,-1.6266,-1.642,-1.67,-1.7001,-1.7939,-1.9265,-2.0881,-2.2449,-2.3791,-2.5118,-2.5635,-2.5742,-2.5742,-2.5742,-2.5742,-2.5742,-2.6572,-2.7861,0.0,0.0,0.0,0.0,0.0,0.0,0.0,0.0,0.0,0.0,2.4634,2.5595,2.6813,2.7507,2.8153,2.8739,2.9471,2.9907,2.9908,0.0,0.0,0.0,0.0,0.0,1.546,0.8833,0.3623,0.0,0.0,0.0,-0.007,-0.3872,-0.5681,-0.5806,-1.0329,-1.4432,-1.8171,-2.0681,-2.2237,-2.3371,-2.6363,-2.761,-2.7876,0.0,0.0,0.0,0.0,0.0,0.0,0.0,0.0,0.0,0.0,0.0,0.0,0.0,0.0,0.0,0.0,0.0,0.0,0.0,0.0,0.0,0.0,0.0,0.0,0.0,0.0,0.0,0.0,0.0,0.0,0.0,-1.4768,-1.3977,-1.1815,-1.175,-1.193,-1.1488,-1.0787,-0.9967,-0.922,-1.0756,-1.1367,-1.0066,-1.2808,-1.4333,-1.3872,-1.4883,-1.5518,-1.5518,-1.5718,-1.5832,-1.5832,-1.5832,-1.5872,-1.5952,-1.6166,-1.6319,-1.64,-1.6693,-1.7736,-1.925,-1.9737,-2.1319,-2.3692,-2.4097,-2.4815,-2.5742,-2.5742,-2.5742,-2.5742,-2.5742,-2.702,-2.8947,0.0,0.0,0.0,0.0,0.0,0.0,0.0,0.0,0.0,0.0,2.5326,2.5955,2.7287,2.7932,2.8534,2.9156,2.976,3.0182,3.0393,0.0,0.0,0.0,0.0,1.8434,1.5475,0.8848,0.4382,0.2274,0.0736,0.0,-0.0068,-0.3687,-0.6199,-0.7678,-1.0417,-1.4007,-1.8239,-2.1628,-2.3819,-2.5126,-2.6894,-2.8179,-2.9265,-3.0677,-3.1191,-3.1391,-3.2734,-3.4751,-3.6948,-3.7969,0.0,0.0,0.0,0.0,0.0,0.0,0.0,0.0,0.0,0.0,0.0,0.0,0.0,0.0,0.0,0.0,0.0,0.0,0.0,0.0,0.0,0.0,0.0,0.0,-1.5696,-1.5115,-1.3281,-1.2589,-1.2328,-1.2328,-1.0869,-1.0052,-1.0431,-1.1324,-1.1553,-1.0706,-1.3248,-1.4504,-1.3779,-1.4689,-1.5271,-1.5391,-1.5558,-1.5705,-1.5832,-1.5832,-1.5832,-1.5832,-1.6005,-1.6375,-1.6854,-1.7155,-1.8453,-2.0394,-2.0443,-2.1991,-2.4337,-2.4337,-2.4849,-2.5742,0.0,0.0,0.0,0.0,-2.8121,-2.959,0.0,0.0,0.0,0.0,0.0,0.0,0.0,0.0,0.0,0.0,0.0,2.6285,2.7783,2.8183,2.8651,2.9383,2.9602,2.992,0.0,0.0,0.0,2.9052,2.3103,1.843,1.5468,0.8839,0.5368,0.5396,0.1741,0.0,-0.0067,-0.3727,-0.7254,-1.06,-1.0968,-1.3608,-1.7947,-2.1614,-2.4874,-2.7618,-2.7921,-2.9134,-3.0805,-3.1108,-3.1314,-3.1602,-3.2385,-3.3579,-3.5239,-3.8296,0.0,0.0,0.0,0.0,0.0,0.0,0.0,0.0,0.0,0.0,0.0,0.0,0.0,0.0,0.0,0.0,0.0,0.0,0.0,0.0,0.0,0.0,0.0,0.0,-1.5861,-1.5462,-1.425,-1.3203,-1.2413,-1.2328,-1.0438,-0.9923,-1.1895,-1.1214,-1.1042,-1.2066,-1.3608,-1.4382,-1.4289,-1.4661,0.0,0.0,0.0,-1.5484,-1.5778,-1.5778,-1.5798,-1.5832,-1.5832,-1.6386,-1.7512,-1.7896,-1.9453,-2.1859,-2.22,-2.3344,-2.5,-2.5,-2.5264,-2.5664,-2.5713,-2.583,-2.6197,-2.8402,-2.9407,-2.9954,0.0,0.0,0.0,0.0,0.0,0.0,0.0,0.0,0.0,2.6735,2.6029,2.6092,2.8071,2.8123,2.8298,2.902,2.9476,3.0017,0.0,0.0,3.0271,2.905,2.308,1.8409,1.5491,0.8807,0.5424,0.5396,0.1805,0.0,-0.0067,-0.3704,-0.7279,-1.0739,-1.3283,-1.5004,-1.6249,-2.1369,-2.5093,-2.776,-2.9704,-2.9639,-2.85,-3.0472,-3.207,-3.331,-3.3479,-3.4325,-3.5381,-3.5628,-3.7861,-4.0546,-4.0585,-4.0623,0.0,0.0,0.0,0.0,0.0,0.0,0.0,0.0,0.0,0.0,0.0,0.0,0.0,0.0,0.0,0.0,0.0,0.0,0.0,-1.7488,-1.7009,-1.6281,-1.4328,-1.3906,-1.3379,-1.2413,-1.1123,-1.0438,-1.0869,-1.0697,-1.0697,-1.0869,-1.2912,-1.373,-1.2753,-1.3902,-1.4629,-1.4689,-1.4923,-1.519,-1.5478,-1.5478,-1.5598,-1.5832,-1.5832,0.0,-1.6204,-1.729,-1.8746,-2.05,-2.1627,-2.3019,-2.4541,-2.4541,-2.4795,-2.5234,-2.5596,-2.6294,-2.7315,-2.7767,-2.9223,-3.0944,0.0,0.0,0.0,0.0,0.0,0.0,0.0,0.0,0.0,0.0,2.6179,2.614,2.7334,2.7722,2.821,2.8935,2.9642,0.0,0.0,3.0819,3.0335,2.9066,2.5297,2.0782,1.55,0.8844,0.5423,0.5428,0.1801,0.0,-0.0067,-0.3697,-0.726,-1.0767,-1.3952,-1.5407,-1.5743,-2.1262,-2.4355,-2.5932,-2.9675,-3.1011,-3.0828,-3.2037,-3.3042,-3.3868,-3.4444,-3.5011,-3.5448,-3.5207,-3.6443,-3.8416,-4.0184,-4.0773,-4.0776,0.0,0.0,0.0,0.0,0.0,0.0,0.0,0.0,0.0,0.0,0.0,0.0,0.0,0.0,-2.6473,-2.5071,0.0,-2.0931,-1.7811,-1.7342,-1.6527,-1.4412,-1.4088,-1.3646,-1.2413,-1.1295,-1.0611,-1.0611,-1.0611,-1.0869,-1.1381,-1.3124,-1.3822,-1.3203,-1.3867,-1.4369,-1.4516,-1.4663,-1.4883,-1.5177,-1.5324,-1.5735,-1.6508,-1.6678,-1.739,-1.8564,-1.9214,-2.0226,-2.1599,-2.2268,-2.3152,-2.4121,-2.4957,-2.5351,-2.5665,-2.6423,-2.7076,-2.7767,-2.8958,-3.0135,-3.1311,0.0,0.0,0.0,0.0,0.0,0.0,0.0,0.0,0.0,0.0,2.6461,2.6377,2.6771,2.739,2.8139,0.0,0.0,0.0,0.0,3.0719,3.0442,2.9402,2.7947,2.3734,1.6429,0.9791,0.6063,0.5401,0.2446,0.0664,-0.0066,-0.3694,-0.7253,-1.0792,-1.4562,-1.6514,-1.7291,-2.1738,-2.3849,-2.4627,-2.9689,-3.2567,-3.3807,-3.4055,-3.4,-3.395,-3.5087,-3.5494,-3.5509,-3.5499,-3.5542,-3.6098,-3.8966,-4.036,-4.0904,-4.0649,-4.0622,0.0,0.0,0.0,0.0,0.0,0.0,0.0,0.0,-3.3957,-3.3045,-3.097,-2.908,-2.7236,-2.5383,-2.3559,-2.1237,-1.7802,-1.7342,-1.6527,-1.4412,-1.4088,-1.3646,-1.2413,-1.1295,-1.0611,-1.0611,-1.0611,-1.1214,-1.2589,-1.3555,-1.4088,-1.4088,-1.4088,-1.4195,-1.4429,-1.4436,-1.4576,-1.4877,-1.511,-1.5784,-1.6808,-1.7331,-1.8661,-2.0543,-2.1078,-2.1845,-2.2765,-2.296,-2.3418,-2.4128,-2.5434,-2.6057,-2.6423,-2.7622,-2.8055,-2.8234,-3.031,-3.1156,-3.1544,0.0,0.0,0.0,0.0,0.0,0.0,0.0,0.0,0.0,0.0,0.0,0.0,0.0,0.0,0.0,0.0,0.0,0.0,3.0409,3.071,3.0834,3.0691,2.9438,2.5785,1.9448,1.3218,0.8503,0.5384,0.4993,0.315,-0.0066,-0.3687,-0.7269,-1.085,-1.6701,-2.0579,-2.2728,-2.3323,-2.4671,-2.677,-3.1583,-3.3643,-3.3917,-3.4922,-3.4675,-3.3958,-3.5091,-3.5506,-3.5498,-3.5512,-3.5699,-3.6021,-3.6408,-3.8673,-4.1124,-4.0924,-4.0711,-4.046,-4.0196,-3.9645,-3.8952,-3.8111,-3.7506,-3.6619,0.0,-3.3957,-3.3182,-3.1652,-2.9997,-2.8255,-2.6278,-2.4531,-2.1975,-1.7954,-1.7342,-1.6527,-1.4412,-1.4088,-1.3646,-1.2413,-1.1295,-1.0611,-1.0611,-1.0611,-1.1563,-1.3737,-1.3997,-1.4088,-1.4088,-1.4088,-1.4102,-1.4135,-1.4135,-1.4275,-1.4569,-1.4603,-1.4838,-1.528,-1.6621,-1.7394,-1.7756,-2.0231,-2.1382,-2.1569,-2.2589,-2.3657,-2.4732,-2.5298,-2.6087,-2.7153,-2.8788,-2.9385,-2.9453,-3.0182,-3.1149,-3.2197,0.0,0.0,0.0,0.0,0.0,0.0,0.0,0.0,0.0,0.0,0.0,0.0,0.0,0.0,0.0,0.0,0.0,0.0,2.959,3.0232,3.0621,3.0613,3.0291,2.8553,2.5247,1.9108,1.441,1.1239,0.932,0.5519,-0.0062,-0.1576,-0.5236,-1.0902,-1.8573,-2.3259,-2.5404,-2.5393,-2.6726,-2.9018,-3.1014,-3.3138,-3.513,-3.5602,-3.5495,-3.5113,-3.5404,-3.5508,0.0,0.0,-3.5878,-3.5992,-3.5996,-3.7004,-3.8572,-4.0507,-4.0865,-4.0502,-3.9962,-3.9599,-3.9141,-3.8158,-3.7542,-3.6794,-3.529,-3.4235,-3.3323,-3.2312,-3.0466,-2.8552,-2.7196,-2.5025,-2.2339,-1.8761,-1.7705,-1.6527,-1.4412,-1.4088,-1.3587,-1.2212,-1.1685,-1.1149,-1.0687,-1.0611,-1.13,-1.2942,-1.373,-1.4088,-1.4088,-1.4088,-1.4088,-1.4088,-1.4088,-1.4142,-1.4269,-1.5012,-1.5842,-1.6759,-1.8197,-1.9349,-2.028,-2.1429,-2.2089,-2.2394,-2.3607,-2.4372,-2.4882,-2.6329,-2.725,-2.786,-2.9189,-2.9702,-2.98,-3.0633,-3.1687,-3.261,0.0,0.0,0.0,0.0,0.0,0.0,0.0,0.0,0.0,0.0,0.0,0.0,0.0,0.0,0.0,0.0,0.0,0.0,0.0,2.9005,2.9379,2.9389,2.9611,2.9503,2.9016,2.4969,2.1812,1.9665,1.6564,1.1752,0.5402,0.1696,-0.5069,-1.4485,-2.1393,-2.5715,-2.7877,-2.7867,-2.883,-3.0404,-3.0408,-3.2586,-3.5852,-3.5864,-3.5674,-3.5407,-3.5585,-3.565,0.0,0.0,-3.5862,-3.586,-3.5862,-3.586,-3.6384,-3.9006,-4.018,-4.0463,-3.9616,-3.9498,-3.9346,-3.8314,-3.7631,-3.6869,-3.5693,-3.4589,-3.3633,-3.2803,-3.0822,-2.8892,-2.7708,-2.5317,-2.2573,-1.9674,-1.8073,-1.654,-1.4691,-1.4137,-1.3424,-1.2367,-1.1758,-1.1332,-1.1348,-1.108,-1.1288,-1.2143,-1.3425,-1.4088,-1.4088,-1.4088,-1.4088,-1.4088,-1.4088,-1.425,-1.4573,-1.5522,-1.6637,-1.7821,-1.9186,-2.055,-2.1729,-2.2542,-2.3168,-2.3458,-2.4745,-2.5452,-2.5859,-2.7429,-2.8267,-2.8676,-2.9729,-3.0216,-3.0305,-3.1318,-3.2084,-3.2606,0.0,0.0,0.0,0.0,0.0,0.0,0.0,0.0,0.0,0.0,0.0,0.0,0.0,0.0,0.0,0.0,0.0,0.0,0.0,2.6788,2.6826,2.6816,2.682,2.7508,2.8977,3.0039,3.0525,3.0433,2.7599,2.3803,1.893,0.6016,-0.8298,-2.3309,-2.559,-2.8164,-3.0779,-3.0778,-3.0634,-3.0406,-3.0406,-3.2454,-3.5523,-3.5518,-3.4825,-3.4054,-3.548,0.0,0.0,0.0,-3.551,-3.5515,-3.552,-3.5515,-3.5604,-3.6026,-3.823,-4.0249,-3.9127,-3.9193,-3.9395,-3.8593,-3.7803,-3.6869,-3.5693,-3.4981,-3.4186,-3.2895,-3.117,-2.945,-2.7811,-2.5317,-2.2818,-2.0651,-1.8395,-1.6553,-1.5385,-1.4113,-1.3233,-1.3147,-1.1255,-1.0767,-1.2909,-1.24,-1.1964,-1.2058,-1.3323,-1.4088,-1.4088,-1.4088,-1.4088,-1.4088,-1.4088,-1.4573,-1.5621,-1.5711,-1.6288,-1.7359,-1.8874,-1.9643,-1.9761,-2.2786,-2.4126,-2.424,-2.5766,-2.7046,-2.8016,-2.8084,-2.8767,-2.9856,-3.0758,-3.118,-3.1254,-3.2218,-3.2307,-3.222,0.0,0.0,0.0,0.0,0.0,0.0,0.0,0.0,0.0,0.0,0.0,0.0,0.0,0.0,0.0,0.0,0.0,0.0,0.0,2.5417,2.4643,2.463,2.5959,2.6284,2.5433,2.7195,2.8107,2.8116,2.7152,2.5206,2.2224,1.7746,0.7215,-0.8364,-1.7877,-2.4346,-2.8096,-2.8118,-2.8045,-2.8022,-2.905,-3.1422,-3.4234,-3.3093,-3.2402,-3.2301,0.0,0.0,0.0,0.0,-3.5505,-3.5512,-3.5512,-3.549,-3.5534,-3.5739,-3.6462,-3.7284,-3.7803,-3.8068,-3.8102,-3.7645,-3.7343,-3.7032,-3.6693,-3.5857,-3.4838,-3.3925,-3.2214,-3.038,-2.8779,-2.5967,-2.3242,-2.1272,-1.8412,-1.6025,-1.496,-1.388,-1.2897,-1.1979,-1.1239,-1.0701,-1.0622,-1.0561,-1.1201,-1.2698,-1.3286,-1.3587,-1.3781,-1.3794,-1.3881,-1.4082,-1.481,-1.5296,-1.5696,-1.7163,-1.806,-1.8479,-1.9947,-2.0647,-2.0738,-2.2727,-2.3562,-2.3745,-2.6064,-2.7258,-2.7675,-2.9401,-3.0342,-3.0833,-3.1756,-3.2105,-3.2249,-3.3171,-3.3437,-3.3367,0.0,0.0,0.0,0.0,0.0,0.0,0.0,0.0,0.0,0.0,0.0,0.0,0.0,0.0,0.0,0.0,0.0,2.5699,0.0,0.0,2.2649,2.3555,2.4901,2.497,2.3638,2.4913,2.5605,2.5587,2.5602,2.3903,2.0644,1.9497,1.2173,-0.0491,-1.1579,-1.8803,-2.2739,-2.3802,-2.4231,-2.4306,-2.533,-2.7411,-2.9955,-2.9921,-3.046,0.0,0.0,0.0,0.0,0.0,-3.4886,-3.4903,-3.4903,-3.5166,-3.5528,-3.5652,-3.5918,-3.6307,-3.708,-3.7435,-3.7527,-3.7299,-3.6934,-3.6663,-3.6746,-3.5899,-3.4899,-3.4046,-3.2392,-3.0644,-2.8972,-2.6219,-2.3597,-2.1751,-1.8705,-1.6155,-1.514,-1.3774,-1.2575,-1.1688,-1.0977,-1.0373,-0.9911,-0.9777,-1.0458,-1.2321,-1.291,-1.3293,-1.348,-1.3487,-1.3777,-1.4483,-1.4807,-1.5584,-1.6838,-1.79,-1.8789,-1.9608,-2.0534,-2.1145,-2.1529,-2.2951,-2.3848,-2.4338,-2.6571,-2.7724,-2.8176,-2.9878,-3.0897,-3.1433,-3.243,-3.2919,-3.3241,-3.4177,-3.4699,-3.4868,0.0,0.0,0.0,0.0,0.0,0.0,0.0,0.0,0.0,0.0,0.0,0.0,0.0,0.0,0.0,0.0,0.0,0.0,0.0,0.0,0.0,2.3314,2.3475,2.3481,2.3406,2.3548,2.3554,2.3412,2.3421,2.0664,1.5322,1.212,0.6905,-0.0,-0.6958,-1.1857,-1.508,-1.8051,-1.9439,-1.9597,-1.9865,-2.124,-2.346,-2.6304,0.0,0.0,0.0,0.0,0.0,-3.3185,-3.3807,-3.3797,-3.3801,-3.4543,-3.5443,-3.5646,-3.6411,-3.7136,-3.6889,-3.7198,-3.7559,-3.7483,-3.6677,-3.5917,-3.5944,-3.5321,-3.4442,-3.3267,-3.1921,-3.0376,-2.8513,-2.6123,-2.3924,-2.2321,-1.9344,-1.6813,-1.5942,-1.3851,-1.2298,-1.2224,-1.0576,-0.9744,-1.0708,-0.997,-0.9916,-1.1153,-1.244,-1.3173,-1.3186,-1.3186,-1.3784,-1.518,-1.4251,-1.5433,-1.8841,-1.798,-1.8541,-2.0634,-2.0634,-2.1155,-2.2124,-2.3621,-2.4883,-2.5876,-2.742,-2.86,-2.9342,-2.9508,-3.0387,-3.1723,-3.273,-3.3503,-3.4076,-3.5094,-3.593,-3.6446,0.0,0.0,0.0,0.0,0.0,0.0,0.0,0.0,0.0,0.0,0.0,0.0,0.0,0.0,0.0,0.0,0.0,0.0,0.0,0.0,0.0,0.0,0.0,0.0,0.0,0.0,0.0,0.0,0.0,1.8936,1.5314,1.2131,0.8269,0.3825,-0.0691,-0.4645,-0.8194,-1.151,-1.4305,-1.686,0.0,-2.275,-2.3537,0.0,0.0,0.0,0.0,0.0,-2.9049,-3.2617,-3.3818,-3.3807,-3.3784,-3.3987,-3.4423,-3.5283,-3.5609,-3.5694,-3.5876,-3.6034,-3.6224,-3.6584,-3.6441,-3.6252,-3.6459,-3.6046,-3.5217,-3.3873,-3.2646,-3.123,-2.928,-2.6743,-2.4584,-2.3513,-2.0137,-1.7382,-1.6403,-1.4537,-1.2792,-1.1385,-1.0714,-1.0484,-1.0783,-1.0565,-1.0893,-1.1958,-1.2335,-1.2632,-1.2852,-1.2866,-1.3155,-1.3698,-1.4922,-1.6154,-1.7386,-1.8952,-2.0362,-2.1659,-2.1659,-2.2178,-2.3158,-2.4319,-2.4979,-2.529,-2.7507,-2.8516,-2.8887,-3.0671,-3.1627,-3.2046,-3.3006,-3.3517,-3.3698,-3.4471,-3.5243,-3.5916,0.0,0.0,0.0,0.0,0.0,0.0,0.0,0.0,0.0,0.0,0.0,0.0,0.0,0.0,0.0,0.0,0.0,0.0,0.0,0.0,0.0,0.0,0.0,0.0,0.0,0.0,0.0,0.0,0.0,0.0,0.0,1.2097,0.8712,0.5233,0.1631,-0.1994,-0.5619,-0.9126,0.0,0.0,0.0,0.0,0.0,0.0,0.0,0.0,0.0,0.0,-2.6234,-3.0462,-3.2204,-3.2669,-3.2667,-3.313,-3.381,-3.4514,-3.4926,-3.5183,-3.5371,-3.5527,-3.571,-3.597,-3.592,-3.5861,-3.6006,-3.5698,-3.5071,-3.3942,-3.2819,-3.1441,-2.9417,-2.7171,-2.5007,-2.3157,-2.0409,-1.8034,-1.6693,-1.4846,-1.315,-1.1588,-1.0628,-1.0115,-1.0115,-1.0115,-1.0571,-1.1545,-1.2077,-1.2378,-1.2545,-1.2995,-1.336,-1.3684,-1.5177,-1.6397,-1.7235,-1.9707,-2.123,-2.1733,-2.2381,-2.322,-2.4192,-2.4707,-2.5417,-2.6252,-2.7582,-2.8572,-2.9371,-3.0771,-3.1681,-3.2332,-3.2868,-3.3397,-3.3969,-3.4337,-3.519,-3.6143,0.0,0.0,0.0,0.0,0.0,0.0,0.0,0.0,0.0,0.0,0.0,0.0,0.0,0.0,0.0,0.0,0.0,0.0,0.0,0.0,0.0,0.0,0.0,0.0,0.0,0.0,0.0,0.0,0.0,0.0,0.0,0.0,0.0,0.0,0.0,0.0,0.0,0.0,0.0,0.0,0.0,0.0,0.0,0.0,0.0,0.0,0.0,-2.1156,-2.3054,-2.7203,-2.9615,-3.1011,-3.1132,-3.2085,-3.3231,-3.3588,-3.4301,-3.5023,-3.5154,-3.5421,-3.5624,-3.5606,-3.5438,-3.5245,-3.5187,-3.495,-3.4513,-3.3744,-3.2727,-3.1341,-2.9388,-2.7613,-2.549,-2.2528,-2.0602,-1.8812,-1.6876,-1.5005,-1.3433,-1.2158,-1.0548,-0.9523,-0.9523,-0.9523,-0.9895,-1.0938,-1.1842,-1.2305,-1.2305,-1.3098,-1.3799,-1.4454,-1.5381,-1.6447,-1.7777,-2.0159,-2.1376,-2.1658,-2.2933,-2.4184,-2.5346,-2.5346,-2.6296,-2.7855,-2.7986,-2.8876,-3.0329,-3.0495,-3.1383,-3.2539,-3.2598,-3.3368,-3.4405,-3.4503,-3.5384,-3.6551,0.0,0.0,0.0,0.0,0.0,0.0,0.0,0.0,0.0,0.0,2.3122,0.0,0.0,0.0,0.0,0.0,0.0,0.0,0.0,0.0,0.0,0.0,0.0,0.0,0.0,2.0737,1.8623,1.6148,1.5671,0.0,0.0,0.0,0.0,0.0,0.0,0.0,0.0,0.0,0.0,0.0,0.0,0.0,0.0,0.0,0.0,0.0,-1.8015,-1.8631,-1.9448,-2.2994,-2.6659,-2.9907,-3.0886,-3.1285,-3.1636,-3.3117,-3.3725,-3.412,-3.4975,-3.5232,-3.5334,-3.5545,-3.5577,-3.5463,-3.5175,-3.4947,-3.4563,-3.3751,-3.2554,-3.1296,-3.0063,-2.8373,-2.6466,-2.4068,-2.2347,-2.0145,-1.6921,-1.5536,-1.3996,-1.1366,-1.0783,-1.0565,-1.0565,-1.0565,-1.0938,-1.1996,-1.2224,-1.2305,-1.2305,-1.2445,-1.3331,-1.5039,-1.6275,-1.7432,-1.8456,-2.0002,-2.1407,-2.2655,-2.3606,-2.5176,-2.7258,-2.7258,-2.7776,-2.8812,-2.9566,-3.0011,-3.0389,-3.1664,-3.2373,-3.2662,-3.3212,-3.3525,-3.3846,-3.4394,-3.5136,-3.5976,0.0,0.0,0.0,0.0,0.0,0.0,0.0,0.0,0.0,0.0,2.1987,2.31,0.0,0.0,0.0,0.0,0.0,0.0,0.0,0.0,0.0,0.0,0.0,0.0,0.0,2.0323,1.7754,1.5409,0.0,1.3752,1.0581,0.8764,0.7026,0.5325,0.3586,0.0264,0.0,0.0,0.0,0.0,-0.8423,-0.9659,0.0,0.0,0.0,0.0,0.0,-1.5927,-1.7574,-2.0115,-2.2631,-2.5092,-2.7627,-2.881,-2.9583,-3.111,-3.1886,-3.2552,-3.3982,-3.4482,-3.4718,-3.5083,-3.5281,-3.5361,-3.5232,-3.5184,-3.5,-3.4353,-3.3295,-3.2042,-3.0639,-2.8695,-2.6601,-2.448,-2.2456,-2.0362,-1.8198,-1.6807,-1.5051,-1.257,-1.1335,-1.0536,-1.004,-1.004,-1.0415,-1.1465,-1.1996,-1.2519,-1.3025,-1.352,-1.4657,-1.6585,-1.6836,-1.7567,-1.8968,-2.036,-2.1596,-2.2796,-2.4382,-2.5857,-2.7287,-2.7662,-2.851,-2.969,-3.0133,-3.0733,-3.1549,-3.2312,-3.2788,-3.3145,-3.3479,-3.3836,-3.4186,-3.4479,-3.5063,-3.5726,0.0,0.0,0.0,0.0,0.0,0.0,0.0,1.7045,1.8556,1.8037,2.0303,2.2219,2.268,2.2628,2.269,0.0,0.0,0.0,0.0,0.0,0.0,0.0,0.0,0.0,0.0,0.0,0.0,1.5942,1.5942,0.0,0.0,0.0,0.0,0.0,0.5504,0.2845,-0.182,-0.4005,0.0,0.0,0.0,-0.8812,0.0,0.0,0.0,0.0,0.0,-1.3577,-1.606,-1.7599,-1.8551,-1.972,-2.3014,-2.5531,-2.7452,-2.8706,-2.9729,-3.0853,-3.2553,-3.334,-3.3817,-3.4452,-3.4814,-3.5024,-3.5197,-3.5311,-3.5274,-3.4942,-3.4101,-3.2966,-3.1268,-2.9016,-2.6677,-2.4359,-2.2067,-2.0106,-1.888,-1.7316,-1.5545,-1.3561,-1.1752,-1.045,-0.9669,-0.9593,-1.0045,-1.1013,-1.2204,-1.3164,-1.3673,-1.4665,-1.5948,-1.7647,-1.7335,-1.7862,-1.9299,-2.0775,-2.2004,-2.2959,-2.482,-2.6224,-2.7234,-2.7789,-2.8912,-3.0366,-3.0529,-3.1357,-3.2641,-3.2895,-3.3339,-3.3836,-3.3987,-3.4431,-3.5001,-3.5001,-3.5386,-3.6011,0.0,0.0,0.0,0.0,0.0,0.0,0.0,1.552,1.7101,1.7803,1.823,1.9239,2.1348,2.1088,2.142,0.0,0.0,0.0,0.0,0.0,0.0,0.0,0.0,0.0,0.0,0.0,0.0,1.773,1.778,0.0,0.0,0.0,0.0,0.0,0.0,0.4244,0.1505,-0.1076,0.0,0.0,0.0,0.0,0.0,0.0,0.0,0.0,0.0,-1.2164,-1.4032,-1.494,-1.5324,-1.5721,-1.7787,-2.1596,-2.5438,-2.65,-2.7874,-2.9401,-3.0764,-3.1659,-3.2481,-3.3759,-3.4139,-3.4358,-3.4982,-3.5022,-3.4979,-3.5069,-3.4503,-3.3605,-3.2147,-2.9738,-2.7057,-2.4203,-2.1886,-1.9609,-1.7161,-1.6,-1.4569,-1.259,-1.1428,-1.0783,-1.0634,-1.064,-1.1087,-1.2077,-1.3875,-1.4593,-1.3745,-1.4665,-1.5658,-1.6706,-1.821,-1.9166,-1.9299,-2.1019,-2.2464,-2.3704,-2.468,-2.624,-2.8168,-2.824,-2.9101,-3.0526,-3.1174,-3.1905,-3.2695,-3.3937,-3.4431,-3.4576,-3.5161,-3.5749,-3.6232,-3.6232,-3.6586,-3.7058,0.0,0.0,0.0,0.0,0.0,0.0,0.0,1.3554,1.5362,1.6936,1.7571,1.8287,1.925,1.9629,1.9835,0.0,0.0,0.0,0.0,0.0,0.0,0.0,0.0,0.0,0.0,0.0,1.8024,1.8024,1.7986,0.0,0.0,0.0,0.0,0.0,0.0,0.4496,0.1955,0.0073,0.0,0.0,0.0,0.0,0.0,0.0,0.0,0.0,0.0,0.0,-1.1175,-1.2065,-1.276,-1.3397,-1.412,-1.5716,-1.8186,-2.2716,-2.4502,-2.5603,-2.8287,-2.9271,-2.9752,-3.1028,-3.1767,-3.2502,-3.3695,-3.4289,-3.4711,-3.5137,-3.4581,-3.3727,-3.2665,-3.0329,-2.775,-2.5236,-2.23,-1.9426,-1.6834,-1.5205,-1.3735,-1.2371,-1.1335,-1.0754,-1.0783,-1.1292,-1.2318,-1.3947,-1.4736,-1.5492,-1.6218,-1.7142,-1.7852,-1.82,-1.941,-2.0557,-2.1522,-2.2225,-2.3305,-2.4789,-2.556,-2.6775,-2.839,-2.8808,-2.9748,-3.1067,-3.1338,-3.2119,-3.3158,-3.3712,-3.4601,-3.5698,-3.5994,-3.6416,-3.6882,-3.6882,-3.7038,-3.7248,0.0,0.0,0.0,0.0,0.0,0.0,1.0484,1.2317,1.4356,1.6349,1.7151,1.7639,1.793,1.8529,1.8645,1.8016,0.0,0.0,0.0,0.0,0.0,0.0,0.0,0.0,0.0,0.0,1.7969,1.8018,1.8027,1.6069,0.0,0.0,0.8442,0.6857,0.0,0.0,0.0,0.0,0.0,0.0,0.0,0.0,0.0,0.0,0.0,0.0,0.0,0.0,0.0,0.0,0.0,-1.1253,-1.0535,-1.0431,0.0,-1.7938,-2.0461,-2.1972,-2.4972,-2.6347,-2.7309,-2.873,-2.9542,-3.0431,-3.2145,-3.3079,-3.3853,-3.4727,-3.4628,-3.4075,-3.3015,-3.0747,-2.8185,-2.5727,-2.2247,-1.9114,-1.6816,-1.4537,-1.2926,-1.2298,-1.104,-1.0341,-1.0666,-1.1682,-1.326,-1.5369,-1.5317,-1.6165,-1.8329,-1.9112,-1.9544,-1.9683,-2.0749,-2.1856,-2.3,-2.3475,-2.4359,-2.5728,-2.6414,-2.7351,-2.8435,-2.9128,-3.0068,-3.1102,-3.1324,-3.2073,-3.3208,-3.3556,-3.4592,-3.6087,-3.6232,-3.6732,-3.7396,-3.7396,-3.7542,-3.7787,0.0,0.0,0.0,0.0,0.0,0.0,0.0,1.2317,1.4292,1.6306,1.6585,1.6991,1.7862,1.8008,1.8008,1.7998,0.0,0.0,0.0,0.0,0.0,0.0,0.0,0.0,0.0,0.0,1.8027,1.7985,1.7976,1.6048,1.2249,1.0215,0.8964,0.825,0.0,0.0,0.0,0.0,0.0,0.0,0.0,0.0,0.0,0.0,0.0,0.0,0.0,0.0,0.0,0.0,0.0,0.0,0.0,-0.6339,0.0,0.0,-1.5995,-1.9071,-2.0556,-2.2967,-2.548,-2.7357,-2.7829,-2.8373,-3.0443,-3.1343,-3.2147,-3.3705,-3.4696,-3.4796,-3.319,-3.0925,-2.8264,-2.5126,-2.1488,-1.8456,-1.6817,-1.4101,-1.2225,-1.2225,-1.0396,-0.9467,-1.0335,-1.1791,-1.3685,-1.6189,-1.5698,-1.6571,-1.9486,-1.984,-2.0086,-2.0579,-2.2152,-2.2987,-2.3,-2.4557,-2.5728,-2.651,-2.7085,-2.7803,-2.8527,-2.9104,-2.9761,-3.0462,-3.1099,-3.1792,-3.2484,-3.3629,-3.4557,-3.5352,-3.5764,-3.672,-3.7893,-3.7893,-3.8413,-3.908,0.0,0.0,0.0,0.0,0.0,0.0,0.0,1.1077,1.2622,1.5296,1.6219,1.6706,1.6991,1.7647,1.8008,1.8008,0.0,0.0,0.0,0.0,0.0,0.0,0.0,0.0,0.0,0.0,1.8027,1.7995,1.5387,1.3479,1.2256,1.0718,0.8915,0.6908,0.7214,0.6957,0.0,0.0,0.0,0.0,0.0,0.0,-0.3509,0.0,0.0,0.0,0.0,0.0,0.0,0.0,0.0,0.0,0.0,0.0,0.0,0.0,-0.8797,-1.3023,-1.6455,-1.8616,-1.9821,-1.9621,-2.0911,-2.2784,-2.5032,-2.7067,-2.9211,-3.1781,-3.2728,-3.3258,-3.3768,-3.2103,-2.8963,-2.3668,-1.9865,-1.5689,-1.0193,-0.9791,-0.9786,-0.8935,-1.0467,-1.2142,-1.3605,-1.4624,-1.5789,-1.7276,-1.7626,-1.8412,-1.9981,-2.0498,-2.1233,-2.2189,-2.3335,-2.4399,-2.5384,-2.5877,-2.6496,-2.7255,-2.7849,-2.8512,-2.9134,-2.9717,-3.0382,-3.0991,-3.145,-3.211,-3.2866,-3.3502,-3.4429,-3.5454,-3.5592,-3.6103,-3.6906,-3.7632,-3.8053,-3.8387,0.0,0.0,0.0,0.0,0.0,0.0,0.0,1.0467,1.2344,1.535,1.654,1.7229,1.759,1.8162,1.8462,1.8462,0.0,0.0,0.0,0.0,0.0,0.0,0.0,0.0,0.0,1.7968,1.7996,1.7961,1.4159,1.2322,1.2256,1.1428,0.9863,0.7774,0.7435,0.6857,0.0,0.0,0.0,0.0,0.0,0.0,-0.0156,0.0,0.0,0.0,0.0,0.0,0.0,0.0,0.0,0.0,0.0,0.0,0.0,0.0,-0.2293,-0.5538,-0.9873,-1.3208,-1.5462,-1.5427,-1.6431,-1.8124,-2.0516,-2.3121,-2.5702,-2.808,-2.9895,-3.1203,-3.1729,-3.2492,-3.043,-2.2385,-1.7098,-1.2595,-0.8679,-0.8553,-0.8704,-0.8179,-1.0405,-1.2439,-1.3827,-1.5191,-1.6497,-1.7616,-1.8391,-1.9375,-2.0637,-2.1108,-2.212,-2.3795,-2.4422,-2.5327,-2.651,-2.7004,-2.7479,-2.7944,-2.8764,-2.9361,-2.9761,-3.0534,-3.105,-3.1449,-3.1861,-3.2354,0.0,-3.3372,-3.4253,-3.5272,-3.5538,-3.6058,-3.6679,-3.7356,-3.7652,-3.7849,0.0,0.0,0.0,0.0,0.0,0.0,0.0,0.0,0.0,0.0,1.7347,1.8218,1.909,1.9233,1.9299,0.0,0.0,0.0,0.0,0.0,0.0,0.0,0.0,0.0,0.0,1.7691,1.7735,1.801,1.4466,1.2571,1.2276,1.2325,1.1658,1.0355,0.7668,0.6447,0.0,0.0,0.0,0.0,0.0,0.0,0.0,0.0,0.0,0.0,0.0,0.0,0.0,0.0,0.0,0.0,0.0,0.0,0.0,0.0,0.0,0.0,0.0,-0.6718,-1.1683,-1.3427,-1.35,-1.3862,-1.6577,-1.936,0.0,-2.3272,-2.6287,-2.828,-2.7064,-3.0474,-3.0099,-1.9866,-1.2651,-0.8798,-1.0193,-0.9421,-0.9029,-0.9651,-1.0529,-1.1262,-1.1805,-1.4218,-1.63,-1.7709,-1.8448,-1.9706,-2.1548,-2.1648,-2.2754,-2.5237,-2.5472,-2.5908,-2.662,-2.7887,-2.8512,-2.8559,-2.9745,-3.0318,-3.036,-3.1401,-3.1861,-3.1897,-3.235,-3.255,-3.2616,-3.333,-3.4072,-3.4833,-3.5529,-3.6255,-3.693,-3.7009,-3.72,-3.7432,0.0,0.0,0.0,0.0,0.0,0.0,0.0,0.0,0.0,0.0,1.6991,1.8017,1.8228,1.8859,1.9562,0.0,0.0,0.0,0.0,0.0,0.0,0.0,0.0,0.0,0.0,1.4618,1.5049,1.801,1.7097,1.5168,1.2331,1.2311,1.2142,1.1733,0.9039,0.0,0.0,0.0,0.0,0.0,0.0,0.0,0.0,0.0,0.0,0.0,0.2971,0.2344,0.0,0.0,0.0,0.0,0.0,0.0,0.0,0.0,0.527,0.4987,0.4281,0.0,-0.329,-0.536,-0.5748,-0.6625,0.0,-1.4111,-1.7646,-2.071,-2.2068,-2.1785,-1.8935,-1.2953,-0.7611,-0.5018,-0.2026,-0.0077,-0.0256,-0.6768,-1.1929,-1.3005,-1.4227,-1.4522,-1.3296,-1.7292,-1.9948,-1.9901,-2.0946,-2.1788,-2.2263,-2.2766,-2.3674,-2.5173,-2.5737,-2.6626,-2.7873,-2.8176,-2.864,-2.918,-3.0261,-3.0774,-3.0796,-3.1863,-3.235,-3.2366,-3.284,-3.3045,-3.3105,-3.3766,-3.4173,-3.4389,-3.4811,-3.5109,-3.5375,-3.6179,-3.6519,-3.6722,0.0,0.0,0.0,0.0,0.0,0.0,0.0,0.0,0.0,0.0,0.0,0.0,0.0,0.0,0.0,0.0,0.0,0.0,0.0,0.0,0.0,0.0,0.0,0.0,1.7755,1.5061,1.5087,1.7985,1.6209,1.4331,1.2298,1.2297,1.2331,1.219,0.9804,0.0,0.0,0.0,0.0,0.0,0.9044,0.0,0.0,0.0,0.0,0.0,0.4985,0.5146,0.0,0.4849,0.5715,0.7107,0.0,0.0,0.0,0.0,0.6384,0.6829,0.6159,0.3776,0.0923,-0.1168,-0.2397,-0.3438,-0.4715,0.0,-1.1637,-1.3615,-1.2487,-1.0137,-0.6861,0.2532,0.972,0.9734,1.4399,1.4053,0.2679,-0.1773,-0.5694,-1.0549,-1.1251,-1.2487,-1.5464,-1.8382,-2.0345,-2.0906,-2.2193,-2.3054,-2.327,-2.4081,-2.495,-2.5766,-2.6319,-2.7059,-2.801,-2.8666,-2.9296,-2.9862,-3.109,-3.1631,-3.1685,-3.2464,-3.2809,-3.284,-3.3403,-3.367,-3.3723,-3.4342,-3.4615,-3.4656,-3.4982,-3.5089,-3.5145,-3.5793,-3.5997,-3.6071,0.0,0.0,0.0,0.0,0.0,0.0,0.0,0.0,0.0,0.0,0.0,0.0,0.0,0.0,0.0,0.0,0.0,0.0,0.0,0.0,0.0,0.0,0.0,1.8066,1.9905,1.7331,1.6691,1.8016,1.4723,1.315,1.317,1.3162,1.2891,1.2204,1.0507,1.0204,0.0,0.0,1.076,1.1316,1.0536,0.0,0.0,0.0,0.0,0.0,0.0,0.0,0.0,0.7723,0.7923,0.8552,0.7212,0.0,0.0,0.0,0.0,0.0,0.6812,0.5416,0.3898,0.1929,-0.0077,-0.1152,0.054,0.0,0.0,-0.3907,-0.0663,0.3105,0.6231,1.5727,2.242,2.0613,2.7266,2.5344,0.4221,0.3454,0.1993,-0.6176,-0.7038,-0.975,-1.6732,-1.8763,-2.0306,-2.1962,-2.3266,-2.4213,-2.4664,-2.5557,-2.627,-2.6811,-2.7065,-2.7429,-2.7868,-2.9059,-2.9935,-3.0437,-3.18,-3.2453,-3.2527,-3.3105,-3.3382,-3.3468,-3.4031,-3.4288,-3.4334,-3.487,-3.5107,-3.5143,-3.546,-3.5572,-3.5534,-3.5655,-3.5649,-3.5631,0.0,0.0,0.0,0.0,0.0,0.0,0.0,0.0,0.0,0.0,0.0,0.0,0.0,0.0,0.0,0.0,0.0,0.0,0.0,0.0,0.0,0.0,2.0733,2.0309,2.0957,2.0156,1.9162,1.8016,1.7387,1.7159,1.7166,1.7153,1.5387,1.226,1.1971,1.1899,1.2116,1.4212,1.4856,1.449,1.4355,0.0,0.0,0.0,0.0,0.0,0.0,0.0,0.0,1.1334,1.1112,1.0953,1.0597,0.0,0.0,0.0,0.0,0.0,0.9921,0.9958,0.9684,0.8217,0.6286,0.4836,0.5211,0.595,0.6667,0.6667,0.9315,1.2586,1.5419,2.438,2.8048,1.7926,1.7099,1.6578,1.3306,0.5333,-0.1627,-0.5674,-1.0838,-1.3951,-1.3518,-1.9948,-2.4469,-2.5078,-2.5914,-2.6524,-2.6904,-2.7058,-2.7493,-2.8252,-2.7959,-2.8037,-2.8616,-2.8947,-2.9536,-3.0415,-3.1547,-3.2264,-3.2687,-3.3617,-3.42,-3.4486,-3.4572,-3.4614,-3.4653,-3.4963,-3.5127,-3.5207,-3.5484,-3.5643,-3.5674,-3.5688,-3.5681,-3.5693,0.0,0.0,0.0,0.0,0.0,0.0,0.0,0.0,0.0,0.0,0.0,0.0,0.0,0.0,0.0,0.0,0.0,0.0,0.0,0.0,0.0,2.4774,2.3787,2.3056,2.2752,2.1332,2.0668,2.0749,1.8899,1.8978,2.0749,1.8843,1.7034,1.5354,1.4283,1.3816,1.3871,1.508,1.606,1.6692,0.0,0.0,0.0,0.0,0.0,0.0,0.0,0.0,0.0,0.0,1.2223,1.2158,1.1485,0.0,0.0,0.0,0.0,0.0,1.0751,1.0631,1.083,1.0834,0.989,0.9223,1.0171,1.1064,1.2042,1.3528,1.6064,1.8516,2.0265,2.0351,2.0922,2.3375,1.9597,1.4169,0.7955,0.5855,0.3949,0.1179,-0.5473,-1.1276,-1.4965,-2.0393,-2.4343,-2.5902,-2.6454,-2.7093,-2.8067,-2.8136,-2.8385,-2.8852,-2.8876,-2.9015,-2.9283,-2.9344,-2.9698,-3.0293,-3.1382,-3.2238,-3.2873,-3.3478,-3.4097,-3.4694,-3.4851,-3.4926,-3.4944,-3.5245,-3.5385,-3.5442,-3.5676,-3.5742,-3.5702,-3.5789,-3.5824,-3.5864,0.0,0.0,0.0,0.0,0.0,0.0,0.0,0.0,0.0,0.0,0.0,0.0,0.0,0.0,0.0,0.0,0.0,0.0,0.0,0.0,2.6409,2.7129,2.6462,2.5713,2.4937,2.2807,2.2528,2.4121,2.1555,2.1576,2.4099,2.0729,1.9179,1.9106,1.6863,1.5833,1.5935,1.6711,1.7652,1.8583,0.0,0.0,0.0,0.0,0.0,0.0,0.0,0.0,0.0,0.0,0.0,0.0,0.0,0.0,0.0,1.2453,1.3279,1.4361,1.3075,1.2565,1.2676,1.3952,1.2949,1.204,1.3565,1.4164,1.5002,1.7326,1.9736,2.1813,2.3144,1.8146,1.7081,2.7238,2.2395,1.4146,0.4915,0.6079,0.7187,0.528,-0.1548,-0.884,-1.5853,-2.0899,-2.4506,-2.6393,-2.6976,-2.7781,-2.9018,-2.9113,-2.923,-2.9456,-2.9641,-2.9784,-2.9845,-2.9784,-2.9889,-3.0157,-3.1126,-3.1984,-3.2727,-3.3241,-3.3885,-3.4623,-3.5028,-3.5209,-3.5245,-3.5508,-3.5641,-3.5699,-3.5834,-3.5843,-3.5786,-3.5882,-3.5969,-3.5996,0.0,0.0,0.0,0.0,0.0,0.0,0.0,0.0,0.0,0.0,0.0,0.0,0.0,0.0,0.0,0.0,0.0,0.0,0.0,0.0,2.8435,2.9164,2.8482,2.7845,2.7351,2.5867,2.5757,2.7256,2.7018,2.7032,2.7199,2.4142,2.274,2.26,1.9298,1.7831,1.8034,2.1178,2.1738,2.0391,2.0402,0.0,0.0,0.0,0.0,0.0,0.0,0.0,0.0,0.0,0.0,0.0,0.0,0.0,1.7137,1.7038,1.8318,1.9731,1.9607,1.8952,1.8686,2.0341,1.6656,1.2914,1.3741,1.4857,1.6083,1.7099,1.9413,2.2043,2.4613,2.6703,2.6907,2.3476,1.8804,1.5284,1.4407,0.647,0.0671,0.0501,-0.5655,-1.0714,-1.2752,-2.1838,-2.7551,-2.7504,-2.8718,-2.9682,-3.0157,-3.0186,-3.0279,-3.0496,-3.0098,-3.0007,-3.0247,-3.0007,-2.9931,-3.0034,-3.0655,-3.1246,-3.1847,-3.3169,-3.3926,-3.4293,-3.5172,-3.5556,-3.5556,-3.5647,-3.5776,-3.5872,-3.5892,-3.5935,-3.5976,-3.5994,-3.5995,-3.5996,0.0,0.0,0.0,0.0,0.0,0.0,0.0,0.0,0.0,0.0,0.0,0.0,0.0,0.0,0.0,0.0,0.0,0.0,0.0,0.0,3.0185,3.0465,3.0362,3.0234,3.0032,2.8386,2.7557,2.761,2.7588,2.7595,2.7607,2.6425,2.5916,2.5826,2.4569,2.2942,2.1386,2.4558,2.5521,2.4975,2.4975,2.4964,0.0,0.0,0.0,0.0,0.0,0.0,0.0,0.0,1.8309,1.8641,1.8228,1.8382,1.8803,1.9117,1.9722,2.0356,2.0718,2.0302,1.9977,2.0979,1.9547,1.7898,1.8046,1.8086,1.8344,1.9404,2.0517,2.2702,2.7154,2.9301,2.9764,2.7961,2.6172,2.0543,0.7656,0.9864,0.9629,0.1021,-0.1423,-0.6403,-1.6598,-2.3195,-2.7302,-2.845,-2.9152,-2.9823,-3.05,-3.0392,-3.0402,-3.0591,-3.0434,-3.0385,-3.0494,-3.0385,-3.0346,-3.0366,-3.0479,-3.0911,-3.1657,-3.2321,-3.2979,-3.364,-3.4537,-3.4916,-3.4962,-3.5483,-3.5782,-3.5907,-3.5954,-3.5988,-3.5996,-3.5996,-3.5996,-3.5994,0.0,0.0,0.0,0.0,0.0,0.0,0.0,0.0,0.0,0.0,0.0,0.0,0.0,0.0,0.0,0.0,0.0,0.0,0.0,3.1787,3.1888,3.1888,3.2065,3.2154,3.2154,3.0957,2.9614,2.8168,2.8568,2.8735,2.8713,2.796,2.8028,2.8732,2.8748,2.7582,2.5815,2.8467,2.9564,2.9497,2.8981,2.8754,0.0,0.0,0.0,0.0,0.0,0.0,0.0,0.0,2.0957,2.0669,1.9806,1.9519,1.9669,2.0569,2.1389,2.2098,2.2527,2.1941,2.1467,2.2703,0.0,2.2097,2.2358,2.122,2.0386,2.1265,2.2292,2.4269,2.832,2.9813,3.0525,3.084,3.0899,2.5942,1.1739,1.5078,1.5452,0.5975,0.2959,-0.3354,-1.6115,-2.3572,-2.803,-2.9026,-2.9586,-3.0125,-3.0722,-3.0599,-3.0549,-3.0685,-3.0685,-3.0685,-3.0685,-3.0686,-3.0684,-3.0697,-3.056,-3.0762,-3.1287,-3.169,-3.218,-3.2803,-3.3684,-3.4194,-3.4476,-3.5078,-3.555,-3.5907,-3.5956,-3.5962,-3.5966,-3.5916,-3.5906,-3.589,0.0,0.0,0.0,0.0,0.0,0.0,0.0,0.0,0.0,0.0,0.0,0.0,0.0,0.0,0.0,0.0,0.0,0.0,3.36,3.3619,3.3619,3.3619,3.3619,3.3619,3.3619,3.3619,3.2247,2.9435,3.0656,3.1246,3.1211,2.8784,2.8937,3.1264,3.1233,3.1255,3.1341,3.3082,3.381,3.363,3.1911,3.1243,3.1253,0.0,0.0,0.0,0.0,0.0,0.0,0.0,2.5492,2.2628,2.1234,2.0233,1.9867,2.144,2.3705,2.5724,2.5954,2.4618,2.3788,2.6411,2.567,2.4597,2.5982,2.394,2.1848,2.2345,2.4585,2.6801,2.7811,2.8763,2.9732,3.0733,3.0897,3.0907,3.089,2.2047,1.5551,1.5551,0.6439,-0.2626,-0.9659,-2.2809,-3.039,-2.9206,-3.0205,-3.0898,-3.0898,-3.0898,-3.0898,-3.0898,-3.0898,-3.0898,-3.0898,-3.0907,-3.0903,-3.0903,-3.0903,-3.0787,-3.0637,-3.1436,-3.1797,-3.1836,-3.2714,-3.3535,-3.4296,-3.4438,-3.5045,-3.5895,-3.5892,-3.5905,-3.5888,-3.5743,-3.5703,-3.5703,0.0,0.0,0.0,0.0,0.0,0.0,0.0,0.0,0.0,0.0,0.0,0.0,0.0,0.0,0.0,0.0,0.0,0.0,3.4523,3.466,3.4717,3.4717,3.4903,3.4987,3.4937,3.5034,3.4098,3.214,3.3543,3.4203,3.4197,3.3486,3.3536,3.4215,3.421,3.3773,3.3071,3.3579,3.379,3.3757,3.325,3.335,3.3858,0.0,0.0,0.0,0.0,0.0,0.0,0.0,0.0,0.0,2.3496,2.2581,2.25,2.2948,2.4179,2.5524,2.6267,2.6063,2.5831,2.6632,2.6138,2.5589,2.5982,2.5227,2.4387,2.408,2.5524,2.7245,2.8537,2.9002,2.9563,3.0717,3.0891,3.0894,3.089,2.8262,2.6298,2.6298,1.7131,0.4331,-1.2294,-2.4219,-3.0751,-3.0389,-3.0701,-3.0898,-3.0898,-3.0803,-3.0765,-3.0765,-3.0714,-3.0685,-3.0685,-3.0693,-3.0684,-3.0684,-3.0684,-3.0673,-3.0672,-3.0933,-3.0998,-3.0998,-3.1875,-3.238,-3.2701,-3.3981,-3.4604,-3.4847,-3.5507,-3.5773,-3.5751,-3.5719,-3.5697,-3.5697,0.0,0.0,0.0,0.0,0.0,0.0,0.0,0.0,0.0,0.0,0.0,0.0,0.0,0.0,0.0,0.0,0.0,0.0,0.0,0.0,3.5405,3.5405,3.5306,3.5091,3.4738,3.5368,3.5229,3.4246,3.5214,3.5707,3.5694,3.5706,3.5708,3.5646,3.4353,3.3412,3.2783,3.3017,3.3119,3.3141,3.3397,3.3743,3.4177,0.0,0.0,0.0,0.0,0.0,0.0,0.0,0.0,0.0,2.573,0.0,2.4963,2.5563,2.5782,2.5931,2.6539,2.6687,2.6712,2.6687,2.6362,2.6179,2.6774,2.6302,2.5796,2.5919,2.6764,2.7907,2.914,2.9516,2.9894,3.0758,3.0898,3.0899,3.0906,3.0895,3.0901,3.0912,2.1751,0.7285,-1.3387,-2.4811,-3.0901,-3.0907,-3.0787,-3.0742,-3.0818,-3.0634,-3.0588,-3.066,-3.0608,-3.061,-3.061,-3.061,-3.061,-3.061,-3.061,-3.0608,-3.0621,-3.0621,-3.0602,-3.0602,-3.1441,-3.1819,-3.1934,-3.3372,-3.3897,-3.3914,-3.4798,-3.5151,-3.518,-3.5507,-3.5622,-3.5622,0.0,0.0,0.0,0.0,0.0,0.0,0.0,0.0,0.0,0.0,0.0,0.0,0.0,0.0,0.0,0.0,0.0,0.0,0.0,0.0,3.5385,3.5338,3.4802,3.4189,3.35,3.4806,3.5469,3.5469,3.5795,3.5948,3.5947,3.5961,3.5803,3.5438,3.2274,3.0848,3.0871,3.1492,3.1753,3.1826,3.2374,3.253,3.2451,3.225,0.0,0.0,0.0,0.0,0.0,0.0,0.0,0.0,2.7991,2.7076,2.7324,2.8469,2.7792,2.6689,2.6691,2.6706,2.6712,2.6712,2.6445,2.652,2.7936,2.7221,2.6597,2.7795,2.8246,2.8746,2.9728,3.0192,3.0548,3.0858,3.0898,3.0898,3.0898,3.0898,3.0892,3.0894,2.1722,0.7285,-1.3387,-2.4811,-3.0863,-3.0808,-3.0548,-3.0446,-3.0586,-3.0403,-3.0361,-3.0559,-3.0571,-3.0583,-3.0583,-3.0583,-3.0583,-3.0583,-3.0571,-3.0533,-3.0487,-3.0506,-3.0506,-3.0525,-3.1256,-3.1571,-3.1616,-3.2551,-3.2955,-3.3012,-3.3826,-3.416,-3.4257,-3.4974,-3.5287,-3.5345,0.0,0.0,0.0,0.0,0.0,0.0,0.0,0.0,0.0,0.0,0.0,0.0,0.0,0.0,0.0,0.0,0.0,0.0,0.0,0.0,3.3071,3.258,3.2778,3.2826,3.2648,3.3433,3.3808,3.3808,3.5021,3.5611,3.5611,3.5608,3.4409,3.2109,2.9527,2.8263,2.8111,2.8758,2.912,2.9295,2.9423,2.9059,2.8548,2.9429,2.9429,0.0,0.0,0.0,0.0,0.0,0.0,0.0,3.0617,3.0009,2.9626,2.7757,2.6945,2.6703,2.6701,2.6704,2.6691,2.6691,2.7047,2.7513,2.7843,2.8068,2.8503,2.9621,2.9646,2.9719,3.0515,3.0735,3.0818,3.0898,3.0898,3.0898,3.0898,3.0898,3.0892,3.0894,2.1722,0.7285,-1.3387,-2.4811,-3.0667,-3.0089,-3.0253,-3.0202,-2.9706,-3.0032,-3.0237,-3.028,-3.0401,-3.0448,-3.0448,-3.0448,-3.0448,-3.0436,-3.0234,-3.0234,-3.0417,-3.0487,-3.0467,-3.0417,-3.0602,-3.0567,-3.0433,-3.1327,-3.169,-3.1771,-3.2641,-3.3072,-3.3205,-3.3221,-3.362,-3.4143,0.0,0.0,0.0,0.0,0.0,0.0,0.0,0.0,0.0,0.0,0.0,0.0,0.0,0.0,0.0,0.0,0.0,0.0,0.0,0.0,0.0,3.0038,3.0594,3.0782,3.0459,3.1271,3.164,3.1452,3.1603,3.2289,3.3442,3.3442,3.2018,2.9377,2.74,2.6813,2.7276,2.7605,2.7787,2.7907,2.7876,2.7362,2.6657,2.7299,2.6701,2.5879,2.8556,0.0,0.0,0.0,0.0,0.0,0.0,0.0,3.0607,2.9143,2.8286,2.7651,2.6916,2.668,2.6686,2.6691,2.6974,2.7366,2.7707,2.8336,2.9049,2.9926,2.9939,2.9755,2.9581,2.9551,2.9551,2.9551,2.9551,2.9864,3.076,3.0898,3.0892,3.0894,2.1722,0.7285,-1.3387,-2.4192,-2.9883,-2.978,-2.9715,-2.9635,-2.9511,-2.9794,-3.006,-3.0289,-3.0369,-3.0398,-3.0398,-3.0267,-3.0209,-3.0209,-2.9973,-2.9927,-3.0066,-3.0337,-3.0362,-3.0209,-3.0209,-3.0061,-2.9899,-3.0335,-3.0541,-3.0617,-3.1488,-3.1895,-3.2012,-3.2317,-3.2665,-3.3009,0.0,0.0,0.0,0.0,0.0,0.0,0.0,0.0,0.0,0.0,0.0,0.0,0.0,0.0,0.0,0.0,0.0,0.0,0.0,0.0,0.0,2.7518,2.8331,2.8589,2.8132,2.9312,2.9847,2.972,2.7753,2.786,2.979,3.0342,2.9485,2.7533,2.6062,2.5849,2.656,2.652,2.6396,2.6292,2.5931,2.5371,2.4736,2.4382,2.3313,2.2268,2.3946,2.4481,2.4955,2.8599,0.0,0.0,0.0,0.0,3.0478,3.0791,3.0156,2.9007,2.7504,2.6899,2.6688,2.6707,2.679,2.7065,2.7647,2.8336,2.8935,2.939,2.9763,2.9705,2.8767,2.8566,2.8566,2.8566,2.8566,2.9132,3.068,3.0719,3.0675,3.088,2.0516,0.6047,-1.2618,-2.2855,-2.851,-2.9093,-2.9001,-2.9028,-2.9336,-2.9476,-2.978,-3.0273,-3.0209,-3.0209,-3.0286,-3.0047,-2.9954,-2.9954,-2.978,-2.9678,-2.9661,-3.0085,-3.0155,-2.9954,-2.9954,-2.9829,-2.9643,-2.9643,-2.9643,-2.9718,-3.0433,-3.0752,-3.0844,-3.1487,-3.1789,-3.1921,0.0,0.0,0.0,0.0,0.0,0.0,0.0,0.0,0.0,0.0,0.0,0.0,0.0,0.0,0.0,0.0,0.0,0.0,2.4873,0.0,0.0,2.4653,2.5979,2.6924,2.744,2.8755,2.995,3.0975,2.609,2.3865,2.4243,2.6832,2.7917,2.7554,2.6038,2.4759,2.3642,2.3573,2.3187,2.2506,2.0922,2.0239,1.9975,1.8167,1.7414,1.7453,1.8783,1.921,1.9734,2.3137,2.401,0.0,0.0,0.0,2.8783,3.0414,3.0773,3.036,2.906,2.7714,2.6688,2.6707,2.716,2.7673,2.7792,2.8336,2.8697,2.833,2.9582,3.0702,3.0541,3.0536,3.0536,3.0536,3.0536,3.0619,3.0859,2.9994,2.9737,3.0773,1.5737,0.1054,-0.9617,-2.0057,-2.6314,-2.6487,-2.7987,-2.8763,-2.8408,-2.8732,-2.9184,-2.9763,-2.9456,-2.9438,-2.9799,-2.9765,-2.9748,-2.9748,-2.9713,-2.9607,-2.9454,-2.9697,-2.9782,-2.9748,-2.9748,-2.9644,-2.9434,-2.9434,-2.9434,-2.9453,-2.9584,-2.972,-2.9867,-2.9794,-3.0219,-3.0775,0.0,0.0,0.0,0.0,0.0,0.0,0.0,0.0,0.0,0.0,0.0,0.0,0.0,0.0,0.0,1.9876,2.1308,2.2087,2.2133,2.1634,2.1747,2.2566,2.3297,2.4094,2.4865,2.5995,2.7056,2.7975,2.6399,2.4775,2.3141,2.4439,2.5053,2.4983,2.3448,2.2815,2.2989,2.1789,2.0854,1.999,1.8994,1.7775,1.6393,1.5498,1.3929,1.2492,1.4572,1.4281,1.359,1.7317,1.7804,1.7411,2.0321,0.0,0.0,0.0,2.8553,2.8612,2.8935,2.7879,2.6195,2.4078,2.4334,2.5106,2.5168,2.5116,2.5205,2.576,2.6249,2.674,2.7226,2.7308,2.7308,2.7308,2.7308,2.7686,2.8722,2.8808,2.8782,2.8853,1.4575,-0.0623,-1.4127,-2.126,-2.4999,-2.5044,-2.6876,-2.766,-2.6958,-2.7896,-2.8746,-2.9345,-2.9193,-2.9288,-2.9696,-2.9589,-2.9455,-2.9314,-2.9474,-2.9414,-2.9181,-2.9415,-2.9532,-2.9532,-2.9532,-2.9414,-2.9178,-2.9178,-2.9178,-2.9178,-2.9178,-2.9228,-2.9293,-2.9203,-2.94,-2.9673,0.0,0.0,0.0,0.0,0.0,0.0,0.0,0.0,0.0,0.0,0.0,0.0,0.0,0.0,0.0,0.0,1.6462,1.7083,1.8418,1.8111,1.869,2.0479,2.088,2.144,2.2128,2.339,2.4327,2.484,2.594,2.5315,2.312,2.312,2.3075,2.3013,2.1332,2.126,2.2247,2.0396,1.9035,1.8124,1.7131,1.5486,1.351,1.257,1.0405,0.8103,1.0117,0.9378,0.8068,1.1814,1.2177,1.1737,1.5628,1.8729,0.0,0.0,0.0,2.795,2.8774,2.748,2.4888,2.0706,2.084,2.2162,2.2683,2.2282,2.2215,2.347,2.3071,2.2613,2.3124,2.3733,2.4143,2.4176,2.454,2.5288,2.6685,2.7653,2.8197,2.8207,1.4365,-0.1537,-1.7669,-2.1769,-2.3382,-2.3346,-2.5519,-2.6582,-2.593,-2.7227,-2.8254,-2.8849,-2.8717,-2.8879,-2.9361,-2.9334,-2.916,-2.8863,-2.916,-2.9138,-2.8863,-2.916,-2.9249,-2.9166,-2.9249,-2.9181,-2.8994,-2.8994,-2.8994,-2.8994,-2.8994,-2.8994,-2.8994,-2.8994,-2.8994,-2.8994,0.0,0.0,0.0,0.0,0.0,0.0,0.0,0.0,0.0,0.0,0.0,0.0,0.8661,0.9787,1.0998,1.2432,1.2573,1.2618,1.2763,1.3824,1.554,1.8083,1.8909,0.0,1.9854,2.2051,2.3159,2.3247,2.3283,2.3271,2.3107,2.3107,2.3083,2.301,2.1323,2.0653,2.0616,1.9236,1.7987,1.6664,1.4097,1.2528,1.1323,0.7818,0.5832,0.4932,0.5,0.4435,0.405,0.7022,0.7648,0.7876,1.1687,1.3681,1.531,0.0,0.0,0.0,2.9302,2.644,2.247,1.707,1.7545,1.9857,2.1566,2.1539,2.1408,2.2292,2.1411,2.0306,1.9846,2.1636,2.3187,2.3266,2.4602,2.5661,2.5771,2.6706,2.8196,3.0435,1.4222,-0.2544,-1.6407,-1.9514,-2.0718,-2.0718,-2.3804,-2.5744,-2.5897,-2.6822,-2.7619,-2.8229,-2.7688,-2.7759,-2.8453,-2.8845,-2.8821,-2.8446,-2.8821,-2.8797,-2.8446,-2.8839,-2.8821,-2.8471,-2.8863,-2.9017,-2.8994,-2.8994,-2.8994,-2.8994,-2.8994,-2.8994,-2.8994,-2.8994,-2.8994,-2.8994,0.0,0.0,0.0,0.0,0.0,0.0,0.0,0.0,0.0,0.0,0.0,0.0,0.0,0.8192,0.921,0.9718,1.0126,1.0911,1.223,1.2764,1.341,1.4284,1.6193,1.7304,1.761,1.8247,1.9589,2.1529,2.0379,1.9814,1.9834,1.9846,1.9835,1.9838,1.9805,1.9695,1.9361,1.7139,1.5619,1.4486,1.1617,0.9586,0.8078,0.5017,0.2576,0.0877,0.0811,-0.0136,-0.1221,-0.0134,0.0066,0.0263,0.2217,0.3832,0.6988,1.6906,2.5079,3.0791,3.0341,2.7941,2.5114,2.3117,1.968,1.6941,1.7569,1.853,1.9107,1.8684,1.7398,1.6175,1.5481,1.8302,2.0812,2.0812,2.1812,2.2637,2.2637,2.3928,2.5258,2.6128,0.837,-0.6768,-1.3951,-1.7775,-1.9244,-1.7959,-2.131,-2.3122,-2.2482,-2.4249,-2.554,-2.6,-2.6503,-2.7199,-2.8075,-2.8228,-2.8228,-2.8075,-2.8228,-2.8228,-2.8075,-2.8228,-2.8228,-2.8075,-2.8228,-2.843,-2.8615,-2.8887,-2.8839,-2.8633,-2.8905,-2.8994,-2.8952,-2.8707,-2.8615,-2.8615,0.0,0.0,0.0,0.0,0.0,0.0,0.0,0.0,0.0,0.0,0.0,0.0,0.0,0.0,0.682,0.76,0.8062,0.8856,1.0236,1.0288,1.0261,1.0319,1.2837,1.4489,1.4928,1.4796,1.5963,0.0,1.7542,1.7092,1.7054,1.7693,1.7337,1.6085,1.6313,1.7359,1.8817,1.6052,1.4256,1.3115,0.992,0.7402,0.5291,0.3049,0.053,-0.179,-0.2101,-0.3351,-0.4885,-0.5087,-0.522,-0.5026,-0.3848,-0.1915,0.1715,1.0575,1.9806,2.7727,3.0215,2.9533,2.7871,2.6951,2.251,1.7579,1.4483,1.5871,1.7712,1.7564,1.5644,1.3839,1.3116,1.539,1.7323,1.7332,1.8282,1.8465,1.6726,1.6025,1.4781,1.2413,0.0875,-0.8448,-1.2328,-1.593,-1.7483,-1.6131,-1.9497,-2.1305,-2.0554,-2.2688,-2.4101,-2.4571,-2.5678,-2.6589,-2.7251,-2.7507,-2.7643,-2.7678,-2.784,-2.784,-2.7707,-2.784,-2.784,-2.7725,-2.784,-2.8037,-2.8264,-2.8533,-2.8558,-2.842,-2.8558,-2.87,-2.8749,-2.8368,-2.8237,-2.8264,0.0,0.0,0.0,0.0,0.0,0.0,0.0,0.0,0.0,0.0,0.0,0.0,0.0,0.0,0.0,0.6038,0.6237,0.6283,0.6273,0.6149,0.6163,0.6311,0.904,1.0991,1.1979,1.1864,1.253,1.3981,0.0,0.0,0.0,1.6941,1.5797,1.2223,1.1108,1.376,1.8826,1.5927,1.4021,1.2688,0.9203,0.6112,0.339,0.1871,-0.0334,-0.2736,-0.3614,-0.5104,-0.681,-0.756,-0.7845,-0.7511,-0.5986,-0.3186,-0.0404,-0.0103,0.9133,2.0795,0.0,0.0,0.0,2.7362,2.5634,2.2131,1.3025,1.4045,1.729,1.8823,1.6236,1.345,1.2727,1.2602,1.2594,1.2626,1.4184,1.3638,0.8639,0.3381,-0.2626,-0.9747,-0.7502,-0.7163,-1.1762,-1.4061,-1.5235,-1.5303,-1.8494,-2.042,-2.0469,-2.2214,-2.3522,-2.4178,-2.5196,-2.5809,-2.5961,-2.6703,-2.7134,-2.7255,-2.7648,-2.7648,-2.7255,-2.7648,-2.7619,-2.7286,-2.7695,-2.7869,-2.7869,-2.7897,-2.8075,-2.8342,-2.802,-2.8102,-2.8324,-2.7992,-2.7869,-2.7926,0.0,0.0,0.0,0.0,0.0,0.0,0.0,0.0,0.0,0.0,0.0,0.0,0.0312,0.2029,0.3357,0.3906,0.5401,0.6271,0.6268,0.3414,0.3084,0.6152,0.7015,0.825,1.0007,1.0021,0.9955,0.9742,0.0,0.0,0.0,0.0,0.0,1.1044,1.0718,1.1525,1.3026,1.3347,1.3285,1.2696,0.928,0.6694,0.4452,0.1522,-0.0132,-0.1112,-0.3968,-0.7649,-1.1262,-1.149,-1.0705,-0.9773,-1.0622,-1.0977,-0.9701,-0.2203,0.2596,0.5912,0.8001,0.0,0.0,0.0,0.0,0.0,2.1383,1.6472,1.2831,1.1399,1.1011,0.9419,0.4478,0.3617,0.3612,0.359,1.0219,1.4889,1.3453,0.5631,-0.2626,-0.9747,-0.8587,-0.8575,-1.1848,-1.3025,-1.4028,-1.5235,-1.7236,-1.8619,-1.9157,-2.0664,-2.2186,-2.3673,-2.3978,-2.4538,-2.5411,-2.6002,-2.6144,-2.5786,-2.63,-2.6454,-2.6368,-2.6488,-2.664,-2.6873,-2.6987,-2.7019,-2.7083,-2.7648,-2.7794,-2.7631,-2.7823,-2.7954,-2.7992,-2.7619,-2.7487,-2.747,0.0,0.0,0.0,0.0,0.0,0.0,0.0,0.0,0.0,0.0,0.0,0.0,-0.0156,0.1094,0.1799,0.1798,0.2973,0.368,0.3673,0.1402,0.1088,0.3567,0.4031,0.5038,0.6667,0.6201,0.6396,0.7254,0.0,0.0,0.0,0.0,0.0,0.0,0.9706,0.9515,0.9582,1.0498,1.1361,1.1731,0.9062,0.6929,0.4869,0.0528,-0.1573,-0.2463,-0.4614,-0.7777,-1.1203,-1.327,-1.3339,-1.2652,-1.3672,-1.4666,-1.4241,-0.819,-0.642,-0.6411,-0.6408,-0.4047,-0.002,0.6526,0.0,0.0,1.0891,0.7682,0.5995,0.6253,0.5236,0.2481,-0.336,-0.444,-0.4199,-0.343,0.0516,0.4964,0.9102,0.3458,-0.3088,-0.8491,-0.827,-0.8635,-1.1248,-1.1757,-1.272,-1.4681,-1.5955,-1.7258,-1.8608,-1.9748,-2.0975,-2.2321,-2.2639,-2.3186,-2.4045,-2.4673,-2.4886,-2.4792,-2.5395,-2.5652,-2.5652,-2.5652,-2.5835,-2.6087,-2.6315,-2.6401,-2.647,-2.7129,-2.7348,-2.7303,-2.7378,-2.75,-2.7589,-2.721,-2.7051,-2.7083,0.0,0.0,0.0,0.0,0.0,0.0,0.0,0.0,0.0,0.0,0.0,-0.25,-0.0549,-0.0314,-0.0314,-0.0235,-0.0078,0.0,0.0,-0.0234,-0.0312,-0.0311,0.07,0.1711,0.273,0.1675,0.2655,0.5662,0.0,0.0,0.0,0.0,0.0,0.0,0.0,0.7957,0.7892,0.7892,0.8592,0.9598,0.7842,0.5917,0.3673,-0.1191,-0.4211,-0.5936,-0.6279,-0.7439,-0.9553,-1.4304,-1.5899,-1.5859,-1.5491,-1.5797,-1.6331,-1.6341,-1.6209,-1.6053,-1.5902,-1.1113,-0.9006,-2.0838,-1.3198,0.0,-0.8857,-0.6498,-0.2181,0.1788,-0.0975,-0.5593,-1.0255,-1.1049,-1.0438,-0.8805,-1.0989,-0.9765,-0.0908,-0.1909,-0.4596,-0.7484,-0.763,-0.8382,-1.0551,-1.0613,-1.1534,-1.4127,-1.509,-1.6444,-1.8489,-1.9153,-1.9825,-2.0521,-2.1183,-2.1736,-2.2298,-2.3083,-2.3673,-2.403,-2.4768,-2.5105,-2.5105,-2.5105,-2.5144,-2.5221,-2.5779,-2.6013,-2.6049,-2.6505,-2.6906,-2.721,-2.6841,-2.6939,-2.7178,-2.6841,-2.6691,-2.6758,-1.7316,0.0,0.0,0.0,0.0,0.0,0.0,0.0,0.0,0.0,-0.4924,-0.3906,-0.2656,-0.25,-0.2265,-0.1717,-0.0624,0.0,0.0,-0.1559,-0.2495,-0.2491,-0.1555,-0.0466,0.062,0.0386,0.1003,0.2484,0.0,0.0,0.0,0.0,0.0,0.0,0.0,0.7747,0.727,0.727,0.6074,0.4096,0.2294,-0.0395,-0.3394,-0.4478,-0.6802,-0.9897,-1.2476,-1.3672,-1.4457,-1.7824,-1.8939,-1.8515,-1.614,-1.846,-2.1992,-2.1982,-2.1253,-2.0195,-1.902,-1.9828,-2.1642,-2.4247,-2.2574,0.0,-1.1757,-0.988,-0.9004,-0.7139,-0.757,-0.9466,-1.3549,-1.3835,-1.3097,-1.2097,-1.195,-1.1031,-0.8415,-0.8564,-0.9787,-1.2187,-1.0946,-1.0568,-1.232,-1.1301,-1.1759,-1.4838,-1.6352,-1.7335,-1.7797,-1.795,-1.8335,-1.9028,-1.9724,-2.0367,-2.0938,-2.2656,-2.3332,-2.301,-2.4085,-2.4552,-2.4552,-2.4552,-2.4776,-2.5221,-2.5779,-2.6013,-2.6049,-2.6505,-2.6758,-2.6808,-2.6725,-2.6758,-2.6808,-2.6725,-2.6691,-2.6725,-1.654,0.0,0.0,0.0,0.0,0.0,0.0,0.0,0.0,-0.555,-0.453,-0.3671,-0.3124,-0.3124,-0.3124,-0.3124,-0.2183,-0.2027,-0.3046,-0.4146,-0.4698,-0.4693,-0.4201,-0.3181,-0.1555,-0.2556,-0.2,0.0152,0.0,0.0,0.0,0.0,0.0,0.0,0.0,0.5577,0.496,0.5844,0.5384,0.3786,0.1116,-0.2176,-0.5495,-0.6355,-0.8801,-1.2034,-1.3616,-1.4698,-1.5879,-1.8817,-1.9813,-1.9533,-1.8082,-2.0353,-2.3623,-2.3582,-2.2536,-2.1345,-2.1519,-2.2629,-2.3906,-2.4293,-2.5262,0.0,0.0,-1.7661,-1.7986,-1.655,-1.5833,-1.6044,-1.798,-1.7565,-1.6351,-1.4792,-1.4731,-1.4246,-1.2435,-1.0795,-1.0229,-1.1387,-1.0174,-1.0085,-1.2158,-1.1224,-1.1705,-1.4514,-1.5813,-1.6641,-1.7034,-1.7034,-1.739,-1.8055,-1.8442,-1.8972,-1.966,-2.0979,-2.1655,-2.1752,-2.2965,-2.355,-2.355,-2.3849,-2.4158,-2.443,-2.4989,-2.5221,-2.5259,-2.5746,-2.6087,-2.6367,-2.6624,-2.6691,-2.6691,-2.6691,-2.6691,-2.6691,-1.5913,0.0,0.0,0.0,0.0,0.0,0.0,0.0,0.0,-0.5157,-0.4217,-0.3748,-0.3748,-0.3748,-0.3984,-0.4538,-0.4064,-0.4455,-0.6197,-0.6274,-0.6511,-0.6824,-0.6692,-0.5819,-0.4053,-0.5822,-0.5208,-0.1948,0.0,0.0,0.0,0.0,0.0,-0.0133,0.2197,0.2933,0.2528,0.4207,0.468,0.4074,0.1185,-0.1915,-0.4954,-0.7042,-0.9817,-1.2641,-1.3255,-1.4505,-1.6146,-1.8261,-1.9127,-1.9444,-1.9713,-2.1302,-2.311,-2.3117,-2.2283,-2.1718,-2.3043,-2.3127,-2.2922,-2.3463,-2.5123,-2.6166,0.0,0.0,0.0,-2.3914,-2.3035,-2.2441,-2.211,-2.1225,-1.9887,-1.7805,-1.8265,-1.7932,-1.5325,-1.2529,-1.0629,-1.0233,-0.9578,-0.9901,-1.1759,-1.1348,-1.1796,-1.3846,-1.4569,-1.5216,-1.5786,-1.5843,-1.6167,-1.6946,-1.7102,-1.7611,-1.8501,-1.931,-2.0092,-2.0795,-2.1988,-2.2498,-2.2543,-2.3143,-2.3421,-2.345,-2.4116,-2.4389,-2.443,-2.4973,-2.5465,-2.5888,-2.6367,-2.6624,-2.6691,-2.659,-2.659,-2.659,-1.5913,-1.5234,0.0,0.0,0.0,0.0,0.0,0.0,0.0,-0.6257,-0.6022,-0.5944,-0.5944,-0.5944,-0.5944,-0.6025,-0.6022,-0.6009,-0.6283,-0.628,-0.713,-0.8846,-0.8353,-0.7816,-0.731,-0.838,-0.7358,-0.4136,0.0,0.0,0.0,0.0,0.0,-0.1131,0.0,0.0797,0.1531,0.2596,0.2064,0.06,0.0133,-0.0862,-0.2591,-0.5956,-0.8727,-1.1226,-1.4109,-1.6095,-1.7192,-1.6213,-1.6763,-1.81,-1.9381,-2.0451,-2.1202,-2.1345,-2.2315,-2.3231,-2.2873,-2.3463,-2.407,-2.3709,-2.4517,-2.54,-2.5277,0.0,-2.648,-2.5313,0.0,-2.589,-2.4288,0.0,0.0,-2.2314,-2.1854,-2.0833,-1.8564,-1.7329,-1.5917,-1.3886,-1.3571,-1.3347,-1.287,-1.2757,-1.2818,-1.313,-1.3252,-1.3304,-1.3364,-1.3425,-1.3777,-1.4551,-1.5206,-1.6285,-1.7688,-1.9036,-2.0092,-2.0795,-2.1486,-2.1805,-2.1852,-2.2498,-2.2785,-2.2875,-2.3918,-2.4389,-2.443,-2.4973,-2.5259,-2.5335,-2.5872,-2.6332,-2.6657,-2.6227,-2.6085,-2.6085,-1.6609,-1.5579,0.0,0.0,0.0,0.0,0.0,0.0,-0.7403,-0.6412,-0.6338,-0.6338,-0.6338,-0.6338,-0.6567,-0.7099,-0.7338,-0.7149,-0.6388,-0.8452,-1.0149,-1.1023,-1.0796,-0.9992,-0.8694,-0.9537,-0.8905,-0.6881,-0.7123,0.0,0.0,0.0,0.0,-0.438,-0.2381,-0.1325,-0.093,0.0529,0.0994,0.0666,-0.0332,-0.139,-0.2645,-0.6282,-0.9134,-1.1578,-1.39,-1.5086,-1.5756,-1.68,-1.6761,-1.6732,-1.9093,-1.9939,-2.0268,-2.0772,-2.1969,-2.3009,-2.2785,-2.3304,-2.3879,-2.3681,-2.4184,-2.4744,-2.482,-2.5807,-2.6622,-2.6332,0.0,0.0,0.0,0.0,0.0,0.0,-2.5086,-2.4079,-2.2002,-2.0755,-1.9008,-1.6106,-1.4157,-1.3229,-1.3648,-1.3586,-1.3501,-1.3657,-1.3252,-1.3009,-1.3009,-1.3009,-1.3373,-1.4145,-1.4483,-1.54,-1.6922,-1.7981,-1.8838,-1.9606,-2.0657,-2.1161,-2.121,-2.1819,-2.21,-2.2146,-2.3054,-2.342,-2.3463,-2.4017,-2.4471,-2.4752,-2.4973,-2.5357,-2.5819,-2.5598,-2.554,-2.554,-1.7784,-1.6419,-1.5163,-1.3882,0.0,0.0,0.0,-0.9064,-0.75,-0.6813,-0.65,-0.6338,-0.6338,-0.6567,-0.7022,-0.7706,-0.8412,-0.8371,-0.7191,-1.0396,-1.2198,-1.2087,-1.2236,-1.1391,-0.9485,-1.0321,-1.0036,-0.8468,0.0,0.0,0.0,0.0,0.0,0.0,-0.4632,-0.3577,-0.3323,-0.152,-0.0662,-0.0597,-0.1652,-0.3033,-0.4742,-0.7339,-0.9806,-1.195,-1.3356,-1.4136,-1.4845,-1.7143,-1.7024,-1.6419,-1.896,-1.9813,-2.0016,-2.0805,-2.1974,-2.292,-2.274,-2.3143,-2.3595,-2.3595,-2.3879,-2.4184,-2.4184,-2.5201,-2.6232,-2.6467,-2.76,0.0,0.0,0.0,-2.9027,-2.8161,0.0,-2.7058,-2.579,-2.4415,-2.2003,-1.7784,-1.4763,-1.3549,-1.4836,-1.4308,-1.397,-1.4195,-1.3061,-1.2458,-1.2634,-1.2458,-1.2696,-1.3537,-1.3786,-1.461,-1.6177,-1.6912,-1.7688,-1.8394,-1.9645,-2.0232,-2.027,-2.1099,-2.1472,-2.1472,-2.2161,-2.2452,-2.2452,-2.3098,-2.3565,-2.3975,-2.4101,-2.443,-2.4792,-2.495,-2.4973,-2.4973,-1.9431,-1.7794,-1.593,-1.4027,-1.3636,-1.2991,-1.112,-0.9074,-0.7785,-0.7785,-0.6902,-0.6338,-0.6338,-0.7176,-0.7783,-0.7783,-0.9261,-0.9916,-0.9255,-1.1123,-1.2037,-1.1423,-1.1992,-1.1518,-0.991,-1.1147,-1.0664,-0.8243,-0.9181,0.0,0.0,0.0,0.0,0.0,-0.6584,-0.6052,-0.5124,-0.3323,-0.3588,-0.5051,-0.4224,-0.599,-0.9069,-0.9204,-1.0338,-1.1888,-1.2757,-1.399,-1.5428,-1.6301,-1.6978,-1.7775,-1.9245,-2.0116,-2.0722,-2.1431,-2.256,-2.3465,-2.2875,-2.3143,-2.3595,-2.3595,-2.3595,-2.3638,-2.3638,-2.4455,-2.5243,-2.5259,-2.652,-2.7796,-2.8254,-2.8857,-2.9469,-3.002,-2.9668,0.0,0.0,-2.875,-2.5372,-1.9021,-1.6468,-1.5646,-1.6705,-1.5168,-1.4123,-1.4204,-1.202,-1.1045,-1.1834,-1.1108,-1.1045,-1.1834,-1.2634,-1.376,-1.5303,-1.611,-1.6933,-1.7633,-1.8382,-1.8768,-1.8821,-2.0219,-2.0845,-2.0845,-2.1472,-2.1744,-2.1791,-2.2452,-2.274,-2.283,-2.3421,-2.3638,-2.3709,-2.4225,-2.443,-2.443,-2.0333,-1.9225,-1.7581,-1.5147,-1.4132,-1.3064,-1.112,-1.0193,-0.9528,-0.8908,-0.8467,-0.8268,-0.8268,-0.8551,-0.9069,-0.9734,-1.0131,-1.0627,-1.1257,-1.19,-1.2203,-1.2019,-1.1494,-1.1519,-1.2222,-1.2157,-1.1689,-1.087,-1.1518,0.0,0.0,0.0,0.0,0.0,-0.842,-0.7957,-0.7033,-0.6408,-0.6144,-0.6155,-0.6456,-0.7648,-0.9274,-0.9274,-1.0034,-1.117,-1.252,-1.3356,-1.4109,-1.643,-1.709,-1.7191,-1.9178,-1.9581,-1.9595,-2.0756,-2.1663,-2.2363,-2.2634,-2.3376,-2.4032,-2.3681,-2.3879,-2.4032,-2.3681,-2.4158,-2.4776,-2.5144,-2.6097,-2.7113,-2.789,-2.8555,-2.9187,-2.9842,-2.9852,-2.9917,0.0,-2.9341,-2.7439,-2.4237,-2.054,-1.8295,-1.8431,-1.6308,-1.4552,-1.351,-1.2658,-1.1824,-1.105,-1.0759,-1.0703,-1.0981,-1.1283,-1.2401,-1.4532,-1.5332,-1.6089,-1.6866,-1.7633,-1.8221,-1.8715,-1.9178,-1.9658,-2.0144,-2.0818,-2.1113,-2.121,-2.2267,-2.2452,-2.2146,-2.3172,-2.3377,-2.3054,-2.3666,-2.3879,-2.3921,-2.0767,-1.9889,-1.8512,-1.6088,-1.4553,-1.3157,-1.1617,-1.1058,-1.0576,-0.99,-0.9533,-0.9225,-0.9155,-0.9452,-0.9939,-1.0446,-1.0653,-1.1064,-1.1794,-1.1914,-1.1868,-1.1703,-1.2093,-1.2541,-1.2971,-1.2724,-1.2582,-1.2459,-1.2808,-1.2458,0.0,0.0,0.0,0.0,-0.946,-0.9005,-0.8415,-0.8066,-0.7792,-0.7598,-0.7857,-0.8656,-0.9722,-0.9402,-0.9658,-1.0421,-1.2328,-1.3009,-1.3468,-1.6532,-1.7302,-1.7246,-1.9451,-1.9953,-2.0016,-2.1148,-2.1913,-2.2469,-2.2905,-2.3565,-2.4032,-2.3681,-2.3991,-2.4266,-2.3709,-2.4307,-2.5012,-2.5182,-2.595,-2.6836,-2.7736,-2.821,-2.8759,-2.9607,-2.9861,-3.0042,0.0,-2.9893,-2.8978,-2.7529,-2.4341,-2.162,-2.0054,-1.7645,-1.5522,-1.3943,-1.3295,-1.256,-1.1537,-1.0899,-1.0613,-1.0607,-1.0594,-1.133,-1.2907,-1.4127,-1.5245,-1.6128,-1.6585,-1.7158,-1.7961,-1.8167,-1.8715,-1.9411,-1.9863,-2.0181,-2.0547,-2.1609,-2.1785,-2.1472,-2.2515,-2.2815,-2.2785,-2.3377,-2.3595,-2.3638,-2.0808,-1.9899,-1.8762,-1.6917,-1.4969,-1.3402,-1.2472,-1.1476,-1.0825,-1.0825,-1.0013,-0.9306,-0.8975,-0.9856,-1.0302,-1.0025,-1.0848,-1.1328,-1.1165,-1.1364,-1.1228,-1.089,-1.3664,-1.4375,-1.2409,-1.304,-1.3285,-1.307,-1.313,-1.307,0.0,0.0,0.0,0.0,-0.9761,-0.9396,-0.9332,-0.8484,-0.8613,-0.9274,-0.8484,-0.9064,-1.0434,-0.9658,-0.9338,-0.9709,-1.2135,-1.3009,-1.3537,-1.6588,-1.7578,-1.795,-2.0054,-2.1161,-2.1805,-2.2452,-2.3098,-2.3551,-2.3595,-2.3638,-2.3638,-2.3638,-2.4032,-2.4307,-2.3794,-2.4855,-2.5852,-2.5373,-2.6035,-2.6954,-2.7765,-2.7926,-2.8314,-2.9495,-2.9756,-3.0018,-3.0619,-3.054,-2.9985,-2.8793,-2.7566,-2.5373,-2.1705,-1.9135,-1.706,-1.5505,-1.3987,-1.3139,-1.3094,-1.149,-1.06,-1.0617,-1.0405,-1.0401,-1.062,-1.2637,-1.4194,-1.5298,-1.5313,-1.5688,-1.6482,-1.718,-1.7938,-1.8715,-1.8715,-1.9097,-1.985,-2.0497,-2.0795,-2.0795,-2.1472,-2.21,-2.274,-2.3377,-2.3595,-2.3595,-2.1827,-2.0369,-1.8728,-1.694,-1.5007,-1.3653,-1.3395,-1.2385,-1.1636,-1.1636,-1.115,-1.0801,-1.0742,-1.0981,-1.1093,-1.1027,-1.1082,-1.1434,-1.2306,-1.2116,-1.267,-1.4092,-1.3844,-1.3902,-1.4532,-1.401,-1.3787,-1.3906,-1.451,-1.4145,-1.3009,0.0,0.0,0.0,-1.1267,-1.0843,-1.0238,-1.004,-1.004,-1.0238,-1.004,-0.9786,-0.9658,-1.011,-1.0218,-1.0431,-1.2312,-1.3364,-1.4255,-1.6768,-1.7578,-1.7907,-1.9515,-2.0497,-2.1161,-2.1758,-2.2438,-2.3009,-2.3465,-2.3879,-2.4184,-2.4184,-2.4592,-2.495,-2.4816,-2.5105,-2.5545,-2.6042,-2.6353,-2.6899,-2.8066,-2.8264,-2.8554,-2.9336,-2.982,-3.0201,-3.0513,-3.055,-3.0249,-2.9456,-2.8779,-2.7572,-2.549,-2.1615,-1.8147,-1.5608,-1.5012,-1.4773,-1.4757,-1.211,-1.0628,-1.0624,-0.8106,-0.798,-1.0557,-1.1141,-1.2143,-1.3606,-1.4818,-1.5488,-1.5688,-1.591,-1.6972,-1.8715,-1.8715,-1.9097,-1.985,-2.0497,-2.0497,-2.0144,-2.128,-2.1805,-2.2086,-2.3172,-2.3595,-2.3551,-2.2153,-2.051,-1.8829,-1.7213,-1.5671,-1.4488,-1.4079,-1.3188,-1.2484,-1.2248,-1.1771,-1.1378,-1.1227,-1.1223,-1.1177,-1.1032,-1.1203,-1.1667,-1.234,-1.2727,-1.3305,-1.4309,-1.4152,-1.4463,-1.5362,-1.4836,-1.4601,-1.4746,-1.5167,-1.4932,-1.4025,0.0,0.0,0.0,-1.2135,-1.1531,-1.1108,-1.0744,-1.0624,-1.0624,-1.0624,-1.0301,0.0,-1.0793,-1.1337,-1.1742,-1.3053,-1.3846,-1.4551,-1.6834,-1.7578,-1.7841,-1.9307,-2.0434,-2.1245,-2.1615,-2.2377,-2.3157,-2.3508,-2.3837,-2.4116,-2.4348,-2.4776,-2.5221,-2.5221,-2.5561,-2.5966,-2.6404,-2.6704,-2.7168,-2.8201,-2.8394,-2.8652,-2.9416,-2.9912,-3.0269,-3.0472,-3.0536,-3.0416,-2.9998,-2.9625,-2.8683,-2.6897,-2.2513,-1.9083,-1.7458,-1.6115,-1.4812,-1.3363,-1.1553,-0.9894,-0.8393,-0.6394,-0.7044,-1.0551,-1.0611,-1.1051,-1.1943,-1.2862,-1.4061,-1.541,-1.5391,-1.6105,-1.7323,-1.8213,-1.8851,-1.9371,-2.0093,-2.0144,-1.9901,-2.0904,-2.1293,-2.1438,-2.2409,-2.2786,-2.2741,-2.1883,-2.0386,-1.8917,-1.7658,-1.67,-1.5843,-1.4858,-1.3883,-1.3176,-1.2838,-1.213,-1.1502,-1.1277,-1.1277,-1.1199,-1.0918,-1.1524,-1.1981,-1.2081,-1.3201,-1.3681,-1.3348,-1.4672,-1.541,-1.541,-1.5604,-1.5604,-1.541,-1.5526,-1.5526,0.0,0.0,0.0,-1.4255,-1.2801,-1.2081,-1.1896,-1.1233,-1.0933,-1.0933,-1.0933,-1.0933,-1.0989,-1.1717,-1.2451,-1.3252,-1.3974,-1.4323,-1.4845,-1.689,-1.7677,-1.795,-1.9371,-2.0657,-2.1697,-2.1697,-2.2606,-2.3595,-2.3595,-2.3638,-2.3837,-2.4389,-2.491,-2.5335,-2.5357,-2.6087,-2.6691,-2.6704,-2.706,-2.7601,-2.8342,-2.8522,-2.88,-2.957,-2.9975,-3.0257,-3.0475,-3.0507,-3.0482,-3.0417,-3.0146,0.0,-2.7247,-2.3188,-2.0455,-1.9837,-1.706,-1.3983,-1.076,-1.0609,-0.9223,-0.6157,-0.5667,-0.6888,-0.9882,-1.0374,-1.0595,-1.0594,-1.0629,-1.205,-1.4786,-1.5219,-1.54,-1.5515,-1.7279,-1.8317,-1.8869,-1.9436,-1.9695,-1.985,-2.056,-2.0759,-2.0746,-2.139,-2.152,-2.1459,-2.0867,-1.9749,-1.8839,-1.791,-1.756,-1.7079,-1.5972,-1.44,-1.3339,-1.3283,-1.2962,-1.2688,-1.268,-1.268,-1.2617,-1.2601,-1.2695,-1.3075,-1.3726,-1.3983,-1.4364,-1.4944,-1.5274,-1.541,-1.541,-1.6602,-1.6602,-1.541,-1.6036,-1.6322,0.0,0.0,-1.5138,-1.508,-1.4177,-1.3425,-1.2757,-1.2642,-1.2581,-1.2581,-1.2581,-1.2581,-1.2581,-1.2757,-1.3304,-1.4034,-1.4154,-1.5031,-1.6244,-1.7246,-1.8015,-1.8661,-1.9527,-2.0657,-2.1697,-2.1697,-2.2606,-2.3595,-2.3595,-2.3921,-2.4389,-2.495,-2.5449,-2.5961,-2.635,-2.6573,-2.6873,-2.7542,-2.7736,-2.8037,-2.8767,-2.9075,-2.9316,-2.9643,-2.9975,-3.0289,-3.0554,-3.0581,-3.0586,-3.0557,-3.0433,-2.9965,-2.9098,-2.6888,-2.3891,-2.0087,-1.7055,-1.4026,-1.0785,-1.0608,-1.0299,-0.9703,-0.6879,-0.5712,-0.6298,-0.918,-1.0604,-1.0628,-1.058,-1.089,-1.151,-1.4207,-1.54,-1.5392,-1.5792,-1.7313,-1.9572,-1.9076,-1.9254,-1.985,-2.056,-2.0446,-2.0055,-2.0733,-2.0584,-2.0181,-2.1039,-2.0133,-1.9325,-1.827,-1.8063,-1.7787,-1.7027,-1.5808,-1.4694,-1.3923,-1.3325,-1.3029,-1.3029,-1.3005,-1.2976,-1.2976,-1.3374,-1.376,-1.4165,-1.4597,-1.4991,-1.5352,-1.5428,-1.5426,-1.5426,-1.6079,-1.6856,-1.7654,-1.7022,-1.6847,-1.7034,-1.6312,-1.5958,-1.5861,-1.5109,-1.4118,-1.3009,-1.3391,-1.3339,-1.3009,-1.3009,-1.3009,-1.307,-1.3485,-1.3846,-1.4264,-1.4688,-1.5776,-1.7146,-1.7468,-1.8112,-1.8874,-1.9978,-2.0953,-2.1758,-2.21,-2.2846,-2.3681,-2.3948,-2.4184,-2.4592,-2.5411,-2.5815,-2.612,-2.659,-2.6691,-2.6939,-2.7736,-2.7897,-2.812,-2.8858,-2.9112,-2.9312,-2.9643,-2.9841,-3.0094,-3.053,-3.0575,-3.0569,-3.0643,-3.0443,-3.0101,-2.9608,-2.8558,-2.6197,-2.2077,-1.9241,-1.6342,-1.323,-1.3067,-1.2343,-1.0667,-0.7222,-0.541,-0.5397,-0.7053,-0.8807,-1.0624,-1.0604,-1.0594,-1.0732,-1.3926,-1.5417,-1.5391,-1.5424,-1.6217,-1.7633,-1.8804,-1.9494,-1.985,-2.0156,-2.0093,-1.985,-2.0144,-2.0105,-1.985,-2.112,-2.063,-2.0045,-1.8815,-1.8617,-1.8359,-1.7716,-1.7254,-1.6404,-1.4904,-1.4025,-1.3485,-1.3485,-1.3499,-1.3526,-1.3526,-1.4118,-1.4449,-1.4446,-1.5167,-1.5623,-1.5633,-1.5682,-1.5751,-1.5895,-1.6185,-1.7477,-1.9787,-1.8242,-1.762,-1.7852,-1.709,-1.6708,-1.6708,-1.6079,-1.5139,-1.399,-1.4594,-1.4486,-1.3999,-1.3999,-1.3999,-1.4058,-1.465,-1.4895,-1.5012,-1.5613,-1.6687,-1.7841,-1.7993,-1.8436,-1.9137,-2.0383,-2.121,-2.1852,-2.2498,-2.3113,-2.3724,-2.4266,-2.4471,-2.4776,-2.5762,-2.6068,-2.6262,-2.6708,-2.6841,-2.7051,-2.7851,-2.8065,-2.8334,-2.8957,-2.9115,-2.9293,-2.9713,-2.9815,-3.0037,-3.0521,-3.0565,-3.0587,-3.0683,-3.0451,-3.0139,-2.9752,-2.94,-2.7921,-2.4827,-2.2105,-1.9346,-1.6504,-1.5733,-1.4249,-1.1717,-0.8296,-0.6173,-0.5383,-0.5377,-0.7177,-1.058,-1.0628,-1.0571,-1.0684,-1.3194,-1.4753,-1.5417,-1.5409,-1.5414,-1.5649,-1.8557,-1.9812,-1.9783,-1.9823,-1.9798,-1.9798,-1.9798,-1.9798,-1.9798,-2.0408,-2.0531,-2.0746,-1.9833,-1.9617,-1.9123,-1.7796,-1.8108,-1.795,-1.6472,-1.5623,-1.5167,-1.5167,-1.5206,-1.5187,-1.5187,-1.5255,-1.5274,-1.5294,-1.5965,-1.6398,-1.6368,-1.6605,-1.6961,-1.7368,-1.872,-1.9492,-1.9787,-1.9636,-1.9209,-1.8555,-1.7841,-1.7523,-1.7468,-1.7401,-1.728,-1.7169,-1.7224,-1.7224,-1.7169,-1.7169,-1.7169,-1.7169,-1.7224,-1.7291,-1.7291,-1.7346,-1.7895,-1.8703,-1.9297,-1.9594,-1.985,-2.0547,-2.121,-2.1852,-2.2498,-2.3113,-2.3724,-2.4266,-2.4736,-2.5259,-2.5852,-2.6332,-2.6741,-2.7147,-2.7224,-2.7452,-2.8192,-2.8633,-2.898,-2.931,-2.9514,-2.9695,-2.9939,-3.024,-3.0482,-3.0579,-3.0658,-3.0683,-3.0703,-3.0615,-3.0451,-3.0171,-2.9954,-2.9246,-2.7886,-2.4965,-2.213,-1.9543,-1.6874,-1.5274,-1.4939,-1.1821,-0.8619,-0.5418,-0.5387,-0.7131,-1.0581,-1.058,-1.0631,-1.0616,-1.0891,-1.2671,-1.5377,-1.5398,-1.542,-1.5649,-1.8557,-1.9818,-1.9821,-1.9795,-1.9798,-1.9798,-1.9798,-1.9798,-1.9798,-2.2305,-2.1735,-2.1337,-2.1019,-2.0611,-2.0165,-1.9622,-1.9047,-1.8501,-1.7895,-1.6804,-1.6045,-1.6045,-1.5654,-1.5576,-1.6035,-1.6045,-1.627,-1.6684,-1.6973,-1.717,-1.717,-1.7585,-1.7752,-1.7588,-1.9062,-1.98,-1.9813,-1.98,-1.9635,-1.9357,-1.9028,-1.8843,-1.8782,-1.9199,-1.9147,-1.873,-1.8855,-1.859,-1.8151,-1.7775,-1.7578,-1.7578,-1.7578,-1.7872,-1.8205,-1.8205,-1.8923,-1.9902,-2.0154,-2.0319,-2.0597,-2.1609,-2.2128,-2.2483,-2.3448,-2.3891,-2.4266,-2.5144,-2.554,-2.5799,-2.6297,-2.6724,-2.7083,-2.7255,-2.7487,-2.7794,-2.8298,-2.8855,-2.9267,-2.9392,-2.9551,-2.9782,-2.9969,-3.0109,-3.0286,-3.0571,-3.0613,-3.0679,-3.08,-3.0735,-3.0604,-3.0455,-3.0218,-2.977,-2.9044,-2.6802,-2.4492,-2.2203,-1.9497,-1.6331,-1.2654,-1.126,-0.9938,-0.8565,-0.6419,-0.6073,-0.7495,-0.9588,-1.0631,-1.0607,-1.0581,-1.2329,-1.54,-1.54,-1.5419,-1.5505,-1.6677,-1.8186,-1.9805,-1.9808,-1.9798,-1.9798,-1.9798,-1.9798,-1.9798,-2.3673,-2.3035,-2.2453,-2.1989,-2.1601,-2.1274,-2.1083,-2.0204,-1.9517,-1.9334,-1.8228,-1.7296,-1.6863,-1.6353,-1.6259,-1.6753,-1.6833,-1.7045,-1.7577,-1.782,-1.7943,-1.7932,-1.8677,-1.8973,-1.8668,-1.9746,-2.0382,-2.0348,-2.0748,-2.0647,-2.0178,-2.0252,-2.0267,-2.0176,-2.0709,-2.0611,-2.0126,-2.0267,-1.9965,-1.9469,-1.8988,-1.8802,-1.8802,-1.8802,-1.9092,-1.9508,-1.9508,-2.0128,-2.0903,-2.0934,-2.1064,-2.1448,-2.2333,-2.2483,-2.257,-2.3937,-2.4295,-2.4579,-2.5677,-2.6052,-2.6282,-2.6757,-2.7178,-2.75,-2.7601,-2.7833,-2.8183,-2.8603,-2.906,-2.9434,-2.9551,-2.9696,-2.9861,-3.0075,-3.0122,-3.0253,-3.0571,-3.0617,-3.0709,-3.0878,-3.0781,-3.0679,-3.0617,-3.0359,-3.0013,-2.9551,-2.8192,-2.6528,-2.4606,-2.1531,-1.7812,-1.3425,-1.1537,-1.0587,-1.0628,-0.817,-0.6962,-0.6989,-0.9418,-1.0588,-1.0618,-1.1559,-1.3271,-1.543,-1.5371,-1.539,-1.5405,-1.5386,-1.7158,-1.9809,-1.978,-1.9798,-1.9798,-1.9798,-1.9798,-1.9798,-2.3794,-2.417,-2.4157,-2.2672,-2.2523,-2.2449,-2.1787,-2.1666,-2.1472,-2.0832,-2.0092,-1.9141,-1.7743,-1.7596,-1.76,-1.7593,-1.7566,-1.7583,-1.7618,-1.8295,-1.8698,-1.8684,-2.0029,-2.0877,-2.1063,-2.1465,-2.1697,-2.1697,-2.2956,-2.2701,-2.1077,-2.1505,-2.1649,-2.1649,-2.1697,-2.1697,-2.1649,-2.1697,-2.1649,-2.1649,-2.1649,-2.1649,-2.1649,-2.1649,-2.1649,-2.1649,-2.1649,-2.1649,-2.1708,-2.1695,-2.2016,-2.2378,-2.2393,-2.1947,-2.1759,-2.3563,-2.41,-2.4393,-2.5655,-2.6232,-2.6622,-2.7175,-2.7607,-2.7982,-2.8316,-2.8394,-2.8578,-2.9251,-2.9392,-2.9532,-2.9924,-2.9999,-3.0075,-3.0355,-3.0456,-3.0525,-3.0583,-3.066,-3.075,-3.0876,-3.0781,-3.0675,-3.0617,-3.0356,-3.001,-2.954,-2.918,-2.8298,-2.6742,-2.2307,-1.9786,-1.9697,-1.3775,-1.0611,-1.062,-1.0557,-1.0555,-1.0553,-1.056,-1.0578,-1.0688,-1.3917,-1.5349,-1.5417,-1.543,-1.541,-1.5371,-1.5391,-1.7148,-1.9782,-1.9803,-1.9798,-1.9798,-1.9798,-1.9798,-1.9798,-2.4505,-2.4416,-2.4239,-2.3372,-2.2951,-2.2618,-2.2412,-2.1997,-2.1615,-2.1424,-2.1218,-2.0899,-2.0429,-1.871,-1.7816,-1.8302,-1.8359,-1.8558,-1.9049,-1.9734,-2.0105,-2.0148,-2.0966,-2.1595,-2.1979,-2.1783,-2.215,-2.298,-2.3387,-2.304,-2.2009,-2.2126,-2.2457,-2.298,-2.298,-2.3187,-2.3533,-2.3084,-2.2907,-2.2907,-2.2415,-2.2016,-2.1697,-2.1697,-2.1993,-2.2438,-2.2802,-2.2862,-2.2858,-2.3231,-2.2807,-2.2175,-2.2429,-2.2528,-2.2708,-2.3833,-2.4166,-2.4379,-2.5386,-2.615,-2.6696,-2.6847,-2.7573,-2.8324,-2.8597,-2.899,-2.936,-2.9551,-2.9713,-2.9845,-2.9984,-3.015,-3.0318,-3.0456,-3.0487,-3.0544,-3.0641,-3.0679,-3.075,-3.0876,-3.0859,-3.0781,-3.0673,-3.0548,-3.0323,-2.9997,-2.9419,-2.8384,-2.6776,-2.3967,-2.1585,-1.9876,-1.5956,-1.3877,-1.3847,-1.1676,-1.0629,-1.0616,-1.2787,-1.2699,-1.0688,-1.3909,-1.5413,-1.5371,-1.5381,-1.541,-1.5381,-1.5391,-1.7148,-1.9782,-1.9803,-1.9798,-1.9798,-1.9798,-1.9798,-1.9798,-2.5198,-2.5044,-2.4776,-2.4032,-2.3608,-2.3245,-2.3054,-2.2665,-2.2317,-2.21,-2.21,-2.1993,-2.1758,-2.0176,-1.9315,-1.9808,-1.9825,-2.0042,-2.0489,-2.0888,-2.112,-2.1149,-2.1736,-2.2207,-2.2515,-2.2464,-2.2805,-2.3613,-2.3588,-2.334,-2.2859,-2.3135,-2.351,-2.4035,-2.4153,-2.4389,-2.4657,-2.4302,-2.4122,-2.4107,-2.367,-2.3314,-2.2996,-2.2996,-2.3259,-2.3661,-2.3682,-2.3683,-2.3575,-2.3487,-2.2977,-2.2442,-2.2578,-2.2825,-2.3198,-2.3879,-2.4154,-2.4408,-2.5261,-2.5959,-2.6542,-2.6921,-2.7677,-2.8439,-2.9024,-2.9439,-2.9731,-2.9796,-2.9908,-3.0047,-3.0155,-3.0318,-3.0467,-3.0525,-3.0564,-3.0602,-3.0679,-3.0742,-3.0812,-3.0897,-3.0898,-3.0859,-3.0703,-3.0645,-3.0519,-3.0333,-2.9779,-2.8957,-2.7879,-2.5878,-2.4037,-2.2438,-1.8931,-1.6528,-1.5425,-1.3383,-1.2425,-1.2434,-1.4466,-1.4342,-1.2449,-1.4496,-1.5386,-1.541,-1.541,-1.541,-1.5449,-1.6001,-1.7644,-1.9782,-1.9803,-1.9798,-1.9798,-1.9798,-1.9798,-1.9798,-2.5867,-2.5878,-2.5689,-2.4632,-2.4471,-2.4282,-2.3794,-2.3724,-2.3493,-2.2965,-2.286,-2.2665,-2.2011,-2.1918,-2.1955,-2.1939,-2.1808,-2.1677,-2.1701,-2.1714,-2.1786,-2.1787,-2.2395,-2.2776,-2.2778,-2.3304,-2.367,-2.3825,-2.3834,-2.3833,-2.3817,-2.4528,-2.4796,-2.478,-2.5118,-2.5237,-2.5259,-2.5259,-2.5259,-2.5259,-2.5259,-2.5221,-2.5205,-2.5243,-2.5211,-2.5083,-2.4441,-2.4152,-2.3919,-2.2867,-2.2795,-2.3061,-2.2747,-2.2951,-2.333,-2.3772,-2.4068,-2.4421,-2.5232,-2.5714,-2.6204,-2.7233,-2.7822,-2.8428,-2.949,-2.975,-2.9815,-3.0003,-3.0047,-3.0142,-3.0451,-3.0498,-3.0529,-3.0602,-3.066,-3.0691,-3.0717,-3.0823,-3.0898,-3.0898,-3.0898,-3.0859,-3.0723,-3.0645,-3.0586,-3.051,-3.0202,-2.992,-2.9727,-2.7908,-2.6792,-2.6704,-2.2523,-1.8808,-1.5723,-1.5717,-1.5595,-1.538,-1.5422,-1.539,-1.5417,-1.5367,-1.5399,-1.541,-1.541,-1.541,-1.5517,-1.6957,-1.8467,-1.9782,-1.9803,-1.9798,-1.9798,-1.9798,-1.9798,-1.9798,-2.609,-2.598,-2.5779,-2.5144,-2.5012,-2.4989,-2.4816,-2.4816,-2.4776,-2.4641,-2.4601,-2.4545,-2.4393,-2.4393,-2.4368,-2.4389,-2.2731,-2.1694,-2.1697,-2.2186,-2.2481,-2.2439,-2.3066,-2.339,-2.3407,-2.3519,-2.4371,-2.5979,-2.5959,-2.595,-2.5966,-2.6118,-2.595,-2.5474,-2.5561,-2.5664,-2.5815,-2.5815,-2.5815,-2.5815,-2.5815,-2.5577,-2.5243,-2.5554,-2.5252,-2.4729,-2.5261,-2.4723,-2.3735,-2.3819,-2.3545,-2.319,-2.3257,-2.353,-2.3787,-2.3759,-2.3786,-2.3977,-2.4574,-2.5225,-2.5875,-2.6278,-2.7549,-2.8941,-2.9861,-3.0238,-3.0394,-3.0452,-3.0465,-3.0477,-3.0552,-3.0578,-3.061,-3.0675,-3.0679,-3.0733,-3.0833,-3.0874,-3.0898,-3.0898,-3.0898,-3.0898,-3.0859,-3.0759,-3.0642,-3.0579,-3.0266,-3.001,-2.9863,-2.895,-2.7939,-2.6747,-2.5631,-2.3014,-1.8789,-1.8758,-1.7622,-1.5397,-1.5391,-1.541,-1.542,-1.5379,-1.5399,-1.541,-1.541,-1.541,-1.5517,-1.6626,-1.8144,-1.9782,-1.9803,-1.9798,-1.9798,-1.9798,-1.9798,-1.9798,-2.6707,-2.6454,-2.6139,-2.5652,-2.5577,-2.5486,-2.5259,-2.5221,-2.5221,-2.5221,-2.5221,-2.5221,-2.5221,-2.5221,-2.5221,-2.5221,-2.4025,-2.3283,-2.3316,-2.3643,-2.3819,-2.3859,-2.4162,-2.4348,-2.4348,-2.4172,-2.4493,-2.5271,-2.6216,-2.6713,-2.6703,-2.6703,-2.6503,-2.6168,-2.6168,-2.6336,-2.6702,-2.6702,-2.6753,-2.6871,-2.6871,-2.6673,-2.6472,-2.667,-2.6226,-2.5527,-2.5681,-2.4997,-2.4063,-2.4121,-2.397,-2.3737,-2.4008,-2.4207,-2.4349,-2.4228,-2.421,-2.4264,-2.4556,-2.496,-2.544,-2.5996,-2.7603,-2.9161,-2.9639,-3.0194,-3.0597,-3.0597,-3.0597,-3.0598,-3.0645,-3.0656,-3.0676,-3.0788,-3.0795,-3.0818,-3.0897,-3.0898,-3.0898,-3.0898,-3.0898,-3.0898,-3.0898,-3.0781,-3.0682,-3.0643,-3.0439,-3.0266,-3.0138,-2.9811,-2.9075,-2.7808,-2.7739,-2.6189,-2.2999,-2.0866,-1.9019,-1.7409,-1.6048,-1.5733,-1.6415,-1.607,-1.5896,-1.5921,-1.6244,-1.6026,-1.5517,-1.7092,-1.815,-1.8834,-1.9534,-1.9798,-1.9798,-1.9798,-1.9798,-1.9798,-2.7378,-2.7115,-2.6774,-2.6368,-2.6298,-2.6142,-2.566,-2.5566,-2.5545,-2.5545,-2.547,-2.5449,-2.5449,-2.547,-2.5545,-2.5545,-2.5566,-2.5535,-2.5298,-2.5274,-2.532,-2.535,-2.5377,-2.5362,-2.5363,-2.5128,-2.467,-2.4053,-2.5849,-2.67,-2.6688,-2.6939,-2.7051,-2.7067,-2.7067,-2.7236,-2.7558,-2.7593,-2.7745,-2.7933,-2.7897,-2.7908,-2.7946,-2.8002,-2.7477,-2.6613,-2.5982,-2.527,-2.4587,-2.4246,-2.4225,-2.4425,-2.4756,-2.4851,-2.4851,-2.4893,-2.4907,-2.4893,-2.4865,-2.4879,-2.5137,-2.6136,-2.762,-2.892,-2.9179,-2.9873,-3.0482,-3.0619,-3.0658,-3.0658,-3.0714,-3.0733,-3.077,-3.0875,-3.0898,-3.0898,-3.0898,-3.0898,-3.0898,-3.0898,-3.0898,-3.0898,-3.0898,-3.0801,-3.0714,-3.0695,-3.0646,-3.0544,-3.0398,-3.0388,-2.9964,-2.9027,-2.8999,-2.8091,-2.6259,-2.2161,-1.9991,-1.9748,-1.7126,-1.6517,-1.7578,-1.6922,-1.6652,-1.6708,-1.7302,-1.6912,-1.5911,-1.7884,-1.834,-1.7895,-1.9254,-1.9798,-1.9798,-1.9798,-1.9798,-1.9798,-2.7851,-2.7754,-2.7678,-2.7601,-2.7601,-2.7572,-2.7495,-2.7189,-2.6967,-2.6967,-2.6674,-2.647,-2.647,-2.6757,-2.6967,-2.6967,-2.7282,-2.698,-2.5773,-2.5717,-2.5815,-2.6108,-2.6128,-2.6122,-2.6133,-2.62,-2.6217,-2.6236,-2.6554,-2.6714,-2.6731,-2.8017,-2.8639,-2.8642,-2.8642,-2.8337,-2.7862,-2.8032,-2.8131,-2.8149,-2.7979,-2.8004,-2.8188,-2.8518,-2.7842,-2.6706,-2.6878,-2.601,-2.4767,-2.47,-2.4693,-2.4756,-2.4972,-2.505,-2.5108,-2.5324,-2.5386,-2.5335,-2.5101,-2.5225,-2.5608,-2.6495,-2.6987,-2.7642,-2.9118,-2.9615,-2.9958,-3.07,-3.0857,-3.0856,-3.0868,-3.0868,-3.0871,-3.0898,-3.0898,-3.0898,-3.0898,-3.0898,-3.0898,-3.0898,-3.0898,-3.0898,-3.0898,-3.0879,-3.0811,-3.0714,-3.0646,-3.0544,-3.0398,-3.0404,-2.9975,-2.9044,-2.8993,-2.7399,-2.4089,-2.2314,-2.0851,-1.9799,-1.8708,-1.797,-1.7578,-1.7468,-1.7413,-1.7413,-1.7523,-1.7468,-1.7346,-1.8286,-1.8608,-1.8608,-1.9475,-1.9798,-1.9798,-1.9798,-1.9798,-1.9798,-2.821,-2.802,-2.7897,-2.7897,-2.7897,-2.7897,-2.7897,-2.756,-2.7378,-2.7589,-2.7255,-2.7115,-2.7317,-2.75,-2.7619,-2.7619,-2.7794,-2.7683,-2.7235,-2.7037,-2.7014,-2.7169,-2.7169,-2.7164,-2.7147,-2.733,-2.7432,-2.753,-2.7811,-2.794,-2.7951,-2.8676,-2.9007,-2.8993,-2.8993,-2.8804,-2.8525,-2.8852,-2.8985,-2.8912,-2.887,-2.8913,-2.8989,-2.8683,-2.7905,-2.6925,-2.6648,-2.5872,-2.4959,-2.4959,-2.5057,-2.5184,-2.5241,-2.5253,-2.5271,-2.5372,-2.5439,-2.5466,-2.5305,-2.5357,-2.5522,-2.5892,-2.6403,-2.7006,-2.7804,-2.8803,-2.9668,-3.0059,-3.0547,-3.0898,-3.0898,-3.0837,-3.0782,-3.0782,-3.0769,-3.074,-3.0781,-3.0781,-3.082,-3.0898,-3.0829,-3.0782,-3.0782,-3.0754,-3.076,-3.0798,-3.0681,-3.0544,-3.0398,-3.0398,-3.019,-2.977,-2.8453,-2.6418,-2.3623,-2.3007,-2.1722,-1.978,-1.9838,-1.9478,-1.8768,-1.8732,-1.8519,-1.8221,-1.8608,-1.834,-1.7688,-1.8821,-1.9044,-1.8768,-1.9527,-1.9798,-1.9798,-1.9798,-1.9798,-1.9798,-2.8628,-2.8368,-2.8147,-2.8147,-2.8147,-2.8147,-2.8147,-2.7823,-2.7678,-2.7964,-2.7678,-2.7577,-2.7869,-2.7982,-2.8037,-2.8037,-2.8093,-2.8255,-2.8515,-2.8308,-2.8174,-2.8144,-2.817,-2.8164,-2.8147,-2.8316,-2.8428,-2.8554,-2.8923,-2.9072,-2.9009,-2.9009,-2.9017,-2.9012,-2.9012,-2.9012,-2.9034,-2.9394,-2.9605,-2.9718,-2.9737,-2.9769,-2.9727,-2.886,-2.8058,-2.7304,-2.6494,-2.5766,-2.5194,-2.5175,-2.5301,-2.5466,-2.5418,-2.5406,-2.5387,-2.5356,-2.5422,-2.5483,-2.5426,-2.5405,-2.5408,-2.5369,-2.5896,-2.6464,-2.6679,-2.7986,-2.924,-2.9425,-3.0208,-3.0834,-3.0834,-3.0743,-3.0681,-3.0671,-3.0626,-3.0613,-3.0668,-3.0671,-3.0717,-3.0814,-3.0743,-3.0681,-3.0691,-3.0635,-3.0651,-3.0818,-3.0679,-3.0544,-3.0398,-3.04,-3.0297,-3.0075,-2.7877,-2.5929,-2.4335,-2.38,-2.2571,-2.0615,-2.0941,-2.0805,-2.0232,-2.0042,-1.9774,-1.9414,-1.967,-1.9254,-1.8424,-1.9411,-1.9475,-1.898,-1.9579,-1.9798,-1.9798,-1.9798,-1.9798,-1.9798,-2.9332,-2.9115,-2.8905,-2.8905,-2.8905,-2.8905,-2.8905,-2.8583,-2.8324,-2.8368,-2.8075,-2.7869,-2.7897,-2.8183,-2.835,-2.835,-2.87,-2.8929,-2.8952,-2.8929,-2.8929,-2.891,-2.891,-2.8929,-2.8905,-2.8929,-2.9152,-2.9586,-2.9491,-2.9307,-2.9006,-2.9006,-2.9006,-2.9005,-2.9005,-2.9005,-2.9005,-2.9042,-2.9548,-3.0298,-3.0015,-2.9988,-3.0079,-2.9197,-2.8521,-2.7926,-2.7048,-2.6194,-2.5456,-2.5392,-2.5388,-2.5408,-2.541,-2.5404,-2.5407,-2.5464,-2.5483,-2.549,-2.5419,-2.5444,-2.5484,-2.5484,-2.5542,-2.5802,-2.6611,-2.7528,-2.8433,-2.9246,-3.0053,-3.0623,-3.0623,-3.06,-3.061,-3.0609,-3.0606,-3.0609,-3.0601,-3.0614,-3.0603,-3.0623,-3.06,-3.0614,-3.0606,-3.0606,-3.0606,-3.0621,-3.0602,-3.0544,-3.0398,-3.0398,-3.0009,-2.9136,-2.7543,-2.6628,-2.6472,-2.4442,-2.3322,-2.314,-2.2108,-2.1602,-2.1554,-2.0966,-2.1015,-2.1411,-2.027,-2.0093,-2.0534,-1.9991,-1.9747,-1.9695,-1.9798,-1.9798,-1.9798,-1.9798,-1.9798,-1.9901,-2.9589,-2.9514,-2.9436,-2.9436,-2.9314,-2.9246,-2.9246,-2.8761,-2.8471,-2.8749,-2.8438,-2.8308,-2.8558,-2.87,-2.8827,-2.9016,-2.9163,-2.9291,-2.9436,-2.9436,-2.9375,-2.9246,-2.9084,-2.9107,-2.9314,-2.912,-2.9194,-2.9587,-2.9625,-2.9564,-2.9418,-2.9147,-2.932,-2.9864,-2.9864,-2.9868,-2.987,-2.9876,-3.0118,-3.0519,-3.0399,-3.0379,-3.0286,-2.8888,-2.8226,-2.7857,-2.6396,-2.5679,-2.5421,-2.5407,-2.5439,-2.5453,-2.5414,-2.5402,-2.5403,-2.538,-2.539,-2.5332,-2.5194,-2.528,-2.5428,-2.539,-2.529,-2.5283,-2.5611,-2.6278,-2.7094,-2.7919,-2.8804,-2.957,-3.0075,-3.0273,-3.0362,-3.0347,-3.042,-3.0487,-3.0525,-3.0537,-3.055,-3.0608,-3.0569,-3.0549,-3.0537,-3.0506,-3.0487,-3.0487,-3.0487,-3.0448,-3.0398,-3.0409,-2.9962,-2.9045,-2.8427,-2.7897,-2.7451,-2.603,-2.4949,-2.4271,-2.4015,-2.3443,-2.2702,-2.2565,-2.2383,-2.2126,-2.1335,-2.1135,-2.1342,-2.1086,-2.0988,-2.0988,-2.0988,-2.0988,-2.0988,-2.0988,-2.0988,-2.0988,-2.9796,-2.9729,-2.9696,-2.9696,-2.9589,-2.9455,-2.9412,-2.9016,-2.8808,-2.9093,-2.8897,-2.8837,-2.9166,-2.9228,-2.9293,-2.9474,-2.9494,-2.9551,-2.9696,-2.9696,-2.9625,-2.9494,-2.9289,-2.9268,-2.9493,-2.9364,-2.9402,-2.963,-2.9725,-2.9844,-2.9913,-2.9601,-2.9763,-3.0399,-3.0399,-3.0408,-3.0416,-3.0515,-3.0609,-3.0679,-3.0635,-3.0397,-2.9908,-2.853,-2.785,-2.7415,-2.5902,-2.5392,-2.5431,-2.5411,-2.5434,-2.5466,-2.539,-2.534,-2.5261,-2.5179,-2.5138,-2.5115,-2.4981,-2.5068,-2.5195,-2.5138,-2.5049,-2.4943,-2.4943,-2.5532,-2.6233,-2.6782,-2.7824,-2.8812,-2.9355,-2.9826,-3.0145,-3.0145,-3.0291,-3.0417,-3.0467,-3.0467,-3.0487,-3.0525,-3.0506,-3.0467,-3.0467,-3.0417,-3.0398,-3.0398,-3.0398,-3.0405,-3.0394,-3.0402,-2.9979,-2.9026,-2.9012,-2.8763,-2.8238,-2.7063,-2.6116,-2.5326,-2.5223,-2.4737,-2.3886,-2.3755,-2.3473,-2.3054,-2.2278,-2.209,-2.2243,-2.2044,-2.1937,-2.1983,-2.214,-2.2016,-2.1744,-2.1904,-2.1857,-2.1744,-2.998,-2.9826,-2.9713,-2.9713,-2.9713,-2.9644,-2.9434,-2.9412,-2.9412,-2.9412,-2.9412,-2.9493,-2.9678,-2.9696,-2.9696,-2.9713,-2.9713,-2.9713,-2.9713,-2.9713,-2.9713,-2.9713,-2.9566,-2.9494,-2.9513,-2.9774,-2.9906,-2.9906,-2.9963,-3.0148,-3.0398,-3.0398,-3.041,-3.041,-3.041,-3.039,-3.0436,-3.0762,-3.0898,-3.0879,-3.0683,-2.9922,-2.8827,-2.8222,-2.7503,-2.667,-2.5803,-2.5505,-2.5486,-2.5428,-2.5399,-2.538,-2.5322,-2.5163,-2.4974,-2.4842,-2.4804,-2.4804,-2.479,-2.479,-2.479,-2.4804,-2.4804,-2.4804,-2.4804,-2.5408,-2.5993,-2.5993,-2.7315,-2.8501,-2.8501,-2.9308,-2.9999,-2.9999,-3.0209,-3.0398,-3.0398,-3.0398,-3.0398,-3.0398,-3.0398,-3.0398,-3.0398,-3.0398,-3.0398,-3.0398,-3.0398,-3.0394,-3.039,-3.0395,-2.9963,-2.9018,-2.9005,-2.8994,-2.8994,-2.7343,-2.6488,-2.6488,-2.5644,-2.5221,-2.5166,-2.4507,-2.4281,-2.4333,-2.3054,-2.2878,-2.3417,-2.2775,-2.2523,-2.2553,-2.3109,-2.2643,-2.1763,-2.2341,-2.2172,-2.1838,-2.934,-2.9398,-2.953,-3.0092,-3.0052,-2.9893,-2.9829,-2.9696,-2.9607,-2.9607,-2.9607,-2.9625,-2.9696,-2.9696,-2.9765,-2.9908,-2.9908,-3.0007,-3.0245,-3.0259,-3.0278,-3.0335,-2.999,-2.9875,-3.0126,-3.0208,-3.0244,-3.0244,-3.0263,-3.0321,-3.0398,-3.0641,-3.0627,-3.0412,-3.0657,-3.0758,-3.0762,-3.0856,-3.0765,-3.0543,-3.0485,-2.9823,-2.883,-2.8228,-2.7473,-2.6612,-2.5688,-2.5271,-2.5157,-2.5126,-2.5056,-2.4974,-2.4955,-2.491,-2.4855,-2.4818,-2.4625,-2.4428,-2.4279,-2.4082,-2.4026,-2.4644,-2.47,-2.4575,-2.4575,-2.4664,-2.4912,-2.5468,-2.6431,-2.734,-2.7914,-2.8875,-2.957,-2.957,-2.9765,-2.9958,-3.0109,-3.0122,-3.0196,-3.0367,-3.0398,-3.0398,-3.0398,-3.0398,-3.0398,-3.0398,-3.0394,-3.0409,-3.0409,-2.9773,-2.9286,-2.9018,-2.9005,-2.8994,-2.8994,-2.821,-2.783,-2.7847,-2.7335,-2.6965,-2.6656,-2.6062,-2.5409,-2.4652,-2.3912,-2.3429,-2.3117,-2.2917,-2.2863,-2.291,-2.3608,-2.3678,-2.3462,-2.4151,-2.4281,-2.4174,-2.8637,-2.87,-2.8829,-2.9333,-2.9289,-2.9129,-2.9041,-2.919,-2.9339,-2.9339,-2.9623,-2.9864,-2.9977,-2.9977,-3.0037,-3.0188,-3.0207,-3.0318,-3.0533,-3.0539,-3.055,-3.0598,-3.0306,-3.024,-3.0467,-3.0487,-3.0481,-3.047,-3.0481,-3.0477,-3.0481,-3.0691,-3.0642,-3.0411,-3.0605,-3.0696,-3.0706,-3.0706,-3.0591,-3.034,-2.9687,-2.8952,-2.8219,-2.7659,-2.6828,-2.5876,-2.5373,-2.5065,-2.493,-2.493,-2.4869,-2.4756,-2.4551,-2.4484,-2.4452,-2.4227,-2.4008,-2.3836,-2.3731,-2.3545,-2.3505,-2.4044,-2.4192,-2.4229,-2.4338,-2.4284,-2.4337,-2.4814,-2.5566,-2.6374,-2.7181,-2.817,-2.9003,-2.9357,-2.957,-2.9729,-2.9861,-2.9877,-2.9924,-3.0114,-3.0128,-3.0155,-3.0222,-3.035,-3.0407,-3.0407,-3.0409,-3.024,-2.9857,-2.9307,-2.8994,-2.9003,-2.8993,-2.8994,-2.8994,-2.8749,-2.8565,-2.8394,-2.8047,-2.7765,-2.753,-2.6719,-2.5879,-2.4996,-2.4251,-2.37,-2.3278,-2.3278,-2.3278,-2.3361,-2.399,-2.4029,-2.3765,-2.4696,-2.4917,-2.4814,-2.7884,-2.7845,-2.7843,-2.7901,-2.7909,-2.7827,-2.7561,-2.8215,-2.8725,-2.8725,-2.936,-2.9926,-3.0251,-3.0294,-3.0352,-3.0506,-3.0568,-3.0587,-3.0602,-3.0595,-3.0594,-3.0618,-3.0542,-3.0543,-3.0608,-3.0586,-3.0613,-3.0624,-3.0594,-3.0586,-3.0574,-3.0589,-3.0524,-3.0405,-3.0423,-3.0423,-3.0398,-3.0398,-3.0398,-3.0271,-2.8741,-2.7707,-2.7026,-2.6707,-2.5824,-2.4818,-2.4937,-2.4891,-2.4775,-2.476,-2.4746,-2.4666,-2.4137,-2.3969,-2.3871,-2.3356,-2.3165,-2.3165,-2.3165,-2.3159,-2.3135,-2.3141,-2.3392,-2.3692,-2.4036,-2.4113,-2.4113,-2.4151,-2.4812,-2.5601,-2.6465,-2.7411,-2.8368,-2.9223,-2.9514,-2.9643,-2.9661,-2.9678,-2.9678,-2.9696,-2.9696,-2.9782,-2.9973,-3.0232,-3.0399,-3.0399,-3.0327,-2.991,-2.9038,-2.8998,-2.9003,-2.8998,-2.8994,-2.8994,-2.8994,-2.8994,-2.8815,-2.8446,-2.8129,-2.7982,-2.7918,-2.6801,-2.5954,-2.5334,-2.4229,-2.3703,-2.3604,-2.3604,-2.3588,-2.3637,-2.4168,-2.3835,-2.3189,-2.4357,-2.4547,-2.4328,-2.7,-2.7123,-2.7305,-2.7873,-2.7988,-2.7928,-2.7827,-2.798,-2.8096,-2.8096,-2.8249,-2.8645,-2.9371,-2.9448,-2.9756,-3.0506,-3.0586,-3.0613,-3.0671,-3.0628,-3.0618,-3.068,-3.0606,-3.0589,-3.0594,-3.0604,-3.0683,-3.0828,-3.0565,-3.0432,-3.0433,-3.0434,-3.0433,-3.0404,-3.0665,-3.0642,-3.0398,-3.0398,-3.0394,-3.0371,-2.9991,-2.8027,-2.5405,-2.6062,-2.5669,-2.4804,-2.4828,-2.4712,-2.4545,-2.4375,-2.4339,-2.4266,-2.3883,-2.378,-2.3678,-2.3305,-2.3021,-2.2822,-2.2822,-2.2669,-2.2544,-2.2764,-2.2855,-2.2996,-2.3346,-2.3414,-2.35,-2.3735,-2.4451,-2.5332,-2.6405,-2.7279,-2.8113,-2.896,-2.9115,-2.9228,-2.9434,-2.9474,-2.9532,-2.9678,-2.9789,-2.9863,-2.9914,-3.0196,-3.0402,-3.0402,-2.9719,-2.9193,-2.9,-2.9015,-2.8989,-2.9017,-2.8994,-2.8994,-2.8994,-2.8994,-2.897,-2.8863,-2.8791,-2.8583,-2.8254,-2.7368,-2.6428,-2.5444,-2.4539,-2.369,-2.2939,-2.2939,-2.2779,-2.2673,-2.338,-2.351,-2.3424,-2.4238,-2.4876,-2.538,-2.615,-2.6223,-2.6362,-2.6742,-2.6804,-2.6804,-2.6755,-2.7112,-2.7372,-2.7372,-2.7747,-2.817,-2.8632,-2.8676,-2.9052,-2.9987,-3.0086,-3.0243,-3.0663,-3.0636,-3.0617,-3.0645,-3.0588,-3.0559,-3.0544,-3.0517,-3.0594,-3.0759,-3.0527,-3.0398,-3.0398,-3.0398,-3.0398,-3.0398,-3.0583,-3.0554,-3.04,-3.04,-3.0395,-3.0281,-2.9068,-2.6953,-2.4599,-2.5273,-2.5098,-2.4528,-2.4623,-2.4528,-2.4321,-2.4037,-2.3958,-2.3876,-2.3392,-2.3212,-2.3165,-2.2857,-2.266,-2.25,-2.25,-2.2415,-2.2321,-2.249,-2.25,-2.2643,-2.3093,-2.3189,-2.33,-2.3631,-2.4017,-2.4686,-2.5819,-2.6686,-2.7493,-2.8301,-2.8737,-2.9044,-2.92,-2.9203,-2.9267,-2.9336,-2.9433,-2.9472,-2.9476,-3.0019,-3.0205,-2.9758,-2.9286,-2.8994,-2.8997,-2.9012,-2.8994,-2.8994,-2.8994,-2.8994,-2.8994,-2.8994,-2.8994,-2.8994,-2.8994,-2.8905,-2.8646,-2.7284,-2.6363,-2.5707,-2.4353,-2.3457,-2.2947,-2.2947,-2.2865,-2.2773,-2.3154,-2.3309,-2.3386,-2.3984,-2.4798,-2.571,-2.5504,-2.55,-2.5506,-2.548,-2.5492,-2.5498,-2.5473,-2.6109,-2.6581,-2.6581,-2.72,-2.7721,-2.7873,-2.8022,-2.8432,-2.9184,-2.9263,-2.9539,-3.0198,-3.0287,-3.0315,-3.0316,-3.0337,-3.0363,-3.0363,-3.0305,-3.0369,-3.0564,-3.0448,-3.0405,-3.04,-3.04,-3.0407,-3.0401,-3.0401,-3.0398,-3.0388,-3.0232,-3.0155,-2.9931,-2.725,-2.5381,-2.4244,-2.457,-2.4495,-2.4228,-2.4393,-2.4303,-2.4074,-2.3795,-2.3671,-2.3522,-2.288,-2.2695,-2.266,-2.2388,-2.231,-2.231,-2.231,-2.231,-2.231,-2.231,-2.231,-2.2443,-2.2933,-2.3038,-2.3135,-2.3459,-2.3522,-2.3905,-2.5077,-2.5981,-2.6786,-2.7658,-2.8484,-2.8994,-2.8994,-2.8994,-2.8994,-2.8994,-2.8994,-2.8993,-2.901,-2.97,-2.9832,-2.907,-2.9013,-2.9,-2.8998,-2.8994,-2.8994,-2.8994,-2.8994,-2.8994,-2.8994,-2.8994,-2.8994,-2.8994,-2.8994,-2.8994,-2.8938,-2.7196,-2.639,-2.6276,-2.44,-2.3542,-2.3478,-2.3353,-2.3236,-2.3189,-2.3189,-2.3189,-2.3289,-2.3938,-2.4752,-2.5618,-2.5493,-2.5508,-2.5483,-2.5427,-2.5468,-2.5473,-2.5426,-2.5566,-2.5676,-2.5676,-2.5774,-2.6165,-2.6969,-2.7733,-2.821,-2.8271,-2.8286,-2.8345,-2.8431,-2.8887,-2.9145,-2.9127,-2.9561,-2.9817,-2.9817,-2.9799,-2.9992,-3.0417,-3.0398,-3.0394,-3.04,-3.04,-3.0388,-3.04,-3.04,-3.0402,-3.0347,-2.9531,-2.9187,-2.8914,-2.5779,-2.4394,-2.4205,-2.4247,-2.4247,-2.419,-2.4228,-2.4036,-2.3774,-2.3714,-2.3522,-2.3189,-2.2822,-2.2695,-2.266,-2.2388,-2.231,-2.231,-2.231,-2.231,-2.231,-2.231,-2.231,-2.2338,-2.2388,-2.2415,-2.2508,-2.2789,-2.2848,-2.3274,-2.4717,-2.5642,-2.6531,-2.7636,-2.8484,-2.8994,-2.8994,-2.8994,-2.8994,-2.8994,-2.8994,-2.8998,-2.9007,-2.9108,-2.9126,-2.9007,-2.9007,-2.9003,-2.9017,-2.8994,-2.8994,-2.8994,-2.8994,-2.8994,-2.8994,-2.8994,-2.8994,-2.8994,-2.8994,-2.8994,-2.8957,-2.7999,-2.7578,-2.7486,-2.5813,-2.4954,-2.4622,-2.392,-2.3459,-2.3189,-2.3189,-2.3189,-2.3366,-2.4766,-2.5208,-2.5286,-2.5445,-2.5468,-2.5495,-2.5459,-2.5473,-2.5483,-2.5457,-2.5485,-2.5506,-2.5506,-2.5506,-2.5664,-2.6065,-2.6456,-2.6881,-2.7331,-2.7342,-2.7469,-2.7853,-2.8057,-2.8113,-2.8025,-2.8231,-2.8369,-2.8369,-2.8369,-2.8676,-2.9332,-2.987,-3.0224,-3.0392,-2.9848,-2.9612,-2.9621,-2.9621,-2.9623,-2.9589,-2.9176,-2.7974,-2.6188,-2.4787,-2.4194,-2.4208,-2.4205,-2.419,-2.419,-2.419,-2.4094,-2.3937,-2.3756,-2.3477,-2.3141,-2.2822,-2.2599,-2.2436,-2.2321,-2.231,-2.231,-2.231,-2.231,-2.231,-2.231,-2.231,-2.231,-2.231,-2.231,-2.2388,-2.2634,-2.2695,-2.2952,-2.3809,-2.4756,-2.5746,-2.67,-2.7679,-2.8503,-2.892,-2.8994,-2.8994,-2.8994,-2.8994,-2.8994,-2.8994,-2.8994,-2.8994,-2.8994,-2.8994,-2.8994,-2.8994,-2.8994,-2.8994,-2.8994,-2.8994,-2.8994,-2.8994,-2.8994,-2.8994,-2.8994,-2.8994,-2.8994,-2.8957,-2.8172,-2.7787,-2.7732,-2.6576,-2.5999,-2.5816,-2.5473,-2.5223,-2.5117,-2.5085,-2.4976,-2.4958,-2.6049,-2.6254,-2.6125]}]]